GFSSGP_sfc_30mbdewp_000.txt.gz
Dewpoint
55 50 39 37 36 38 34 37 38 38 35 29 29 28 29 32 27 20 55 59 63 64 67 68 69 67 66 64 63 62 60 58 57 60 59 61 61 59 58 58 59 58 59 57 58 56 57 60 62
55 44 36 38 33 33 32 36 38 39 39 29 29 31 28 29 47 54 55 63 64 66 67 68 69 66 65 64 62 61 59 59 58 58 62 62 60 61 59 58 57 57 57 57 58 55 55 57 56
44 41 31 33 34 30 32 38 36 39 31 28 27 30 31 30 46 53 56 63 65 66 68 69 69 67 64 63 63 61 60 59 59 59 63 63 61 60 59 58 56 56 56 56 58 56 56 56 55
38 31 29 29 29 32 33 33 31 38 33 27 27 29 37 47 47 53 56 62 64 65 68 69 69 67 66 63 62 61 59 60 58 63 63 63 61 60 58 56 56 56 56 56 55 57 57 56 55
36 28 23 24 23 26 26 26 31 36 35 30 26 31 36 50 54 56 56 61 62 64 67 70 70 68 66 64 63 62 59 59 58 59 62 63 62 60 58 57 56 57 57 57 55 55 57 57 57
33 29 21 19 22 23 23 24 27 35 36 30 27 33 38 50 55 55 56 58 61 63 67 69 70 69 67 64 63 62 60 60 59 60 62 62 60 60 60 59 58 58 60 59 57 55 55 57 57
34 31 25 24 22 22 23 31 32 35 35 28 29 33 43 51 53 55 55 56 63 66 67 68 69 69 67 65 65 63 61 61 60 57 61 61 60 60 61 59 60 59 60 59 57 54 55 56 57
36 33 28 24 20 21 27 32 34 31 31 28 33 32 35 46 53 54 54 54 61 65 66 67 67 66 65 65 65 64 63 61 60 60 61 61 60 61 60 61 60 60 60 59 57 55 52 53 56
38 33 29 25 24 25 29 29 33 34 31 30 39 39 43 47 54 54 53 53 57 64 65 66 65 64 64 64 64 63 63 61 60 61 61 61 60 60 61 62 60 61 60 59 57 54 51 52 54
36 34 32 31 27 32 32 31 32 33 32 31 38 50 51 52 53 52 52 53 54 60 63 64 64 63 62 61 61 63 62 61 61 61 61 60 59 59 60 61 61 60 60 60 58 56 53 54 55
37 34 35 35 35 36 33 31 32 30 31 32 31 43 51 52 52 52 52 53 54 54 56 62 63 63 61 60 59 61 61 60 60 60 60 60 59 58 58 59 60 61 61 60 59 57 55 52 53
38 38 36 36 37 35 31 32 31 31 30 33 34 36 51 51 52 52 52 52 54 54 54 55 61 61 61 59 59 59 60 60 59 60 60 59 58 57 57 58 59 59 59 58 58 57 55 53 52
39 39 39 39 37 34 32 30 31 31 31 32 33 41 49 51 50 52 53 54 53 54 55 55 55 59 59 58 59 59 58 59 59 59 59 59 58 57 56 57 58 58 58 57 57 56 55 54 52
39 36 34 33 32 33 32 31 31 31 31 30 32 39 46 50 49 51 52 52 53 52 54 55 56 56 57 56 57 58 57 57 57 57 58 57 57 57 55 55 56 56 57 56 56 55 55 54 52
35 35 35 32 32 31 31 29 27 29 29 28 29 32 36 43 48 50 51 52 52 52 51 54 56 57 57 56 55 54 56 56 56 57 56 56 56 56 55 54 53 54 54 54 54 54 53 52 51
30 31 29 30 32 32 30 27 28 29 29 28 28 30 29 30 32 34 34 39 47 50 49 51 55 57 58 58 57 54 52 52 54 55 55 55 55 55 55 54 54 53 52 52 51 51 50 50 50
31 28 27 27 29 29 29 27 28 29 28 27 28 26 30 33 36 39 40 41 40 40 48 48 52 55 57 58 59 58 55 52 52 53 53 53 54 55 54 54 54 54 52 52 52 52 51 50 51
29 28 27 26 25 29 27 28 28 28 24 25 25 30 33 34 36 40 43 44 44 43 43 45 48 53 57 57 59 59 59 57 56 54 54 53 53 53 54 54 54 55 54 53 52 52 52 52 52
30 27 25 25 26 27 27 27 27 27 24 25 29 31 34 36 38 40 41 43 44 45 44 43 43 45 52 58 58 58 58 59 59 58 57 56 55 54 54 54 54 55 54 54 54 53 52 52 53
30 27 24 26 28 26 25 24 26 21 25 29 31 33 35 36 37 39 40 41 42 42 44 44 43 45 50 55 57 58 58 59 59 60 59 59 58 57 56 55 55 55 55 55 55 54 53 53 53
29 27 25 27 29 28 27 26 21 25 29 32 33 34 35 37 37 39 40 42 42 41 40 41 43 46 47 53 56 57 58 58 57 58 58 59 60 60 59 58 57 57 56 56 56 56 54 54 55
27 28 27 28 26 23 27 21 20 25 29 31 32 33 34 36 38 40 41 41 41 41 41 41 41 41 42 46 48 49 50 50 52 54 55 54 56 57 59 59 59 59 58 57 57 57 57 56 55
27 30 28 26 25 24 24 23 22 25 27 30 31 32 33 36 39 40 40 41 42 42 42 41 41 41 41 40 41 41 41 46 47 47 45 46 48 50 52 55 58 59 59 59 59 59 58 58 57
31 27 27 27 25 22 23 23 21 24 25 29 32 32 33 36 39 40 41 41 41 41 41 41 41 41 41 41 41 40 40 40 41 41 42 43 44 46 45 45 47 53 58 59 60 60 60 60 59
26 26 24 23 23 21 23 23 23 24 28 29 32 32 32 36 38 39 39 40 40 40 40 40 41 41 41 41 41 42 42 42 42 42 42 42 42 42 42 42 42 42 43 46 52 57 59 60 59
25 26 24 22 22 22 21 19 20 24 28 31 33 33 33 36 37 38 39 40 40 40 40 40 40 41 41 42 42 42 43 43 43 43 43 43 42 43 42 42 42 42 42 42 43 45 48 51 54
23 24 28 26 26 24 24 25 23 30 31 32 33 33 33 35 37 38 39 39 39 39 39 39 41 42 42 42 43 43 43 42 42 42 42 42 42 41 41 42 42 42 42 42 42 42 43 44 45
25 26 24 25 22 19 20 21 22 27 30 32 33 33 33 34 37 38 39 39 39 39 40 41 42 42 42 42 42 42 42 41 40 40 39 39 39 39 40 40 40 41 42 42 42 42 42 43 43
24 21 20 24 23 20 18 20 24 24 30 32 33 34 34 34 37 38 38 39 39 41 42 41 40 38 37 39 39 39 40 39 39 37 37 36 36 36 36 37 38 39 40 39 39 39 39 40 41
27 25 22 20 20 22 20 19 24 26 27 30 32 34 35 35 37 38 38 40 41 41 40 39 37 35 35 36 36 36 38 35 33 32 31 32 32 32 33 34 35 35 33 35 38 38 38 40 36

GFSSGP_sfc_30mbdewp_003.txt.gz
Dewpoint
60 50 36 39 34 36 33 35 38 36 36 30 29 28 28 31 26 22 54 61 63 63 66 68 68 66 67 66 65 63 62 59 57 58 57 61 60 60 59 60 60 59 57 56 58 58 56 61 60
55 42 36 38 32 31 31 35 35 37 40 34 29 30 28 27 46 52 55 60 64 65 67 67 68 68 67 65 64 63 61 60 58 59 61 62 60 59 58 56 57 57 57 57 58 56 55 56 60
41 33 30 33 33 29 30 35 37 33 36 29 27 31 30 29 44 50 56 62 64 66 67 68 69 68 66 65 64 63 61 61 59 59 63 63 61 59 60 59 57 56 57 57 58 57 56 56 56
36 30 28 25 27 31 32 30 26 26 35 29 27 28 36 45 45 53 58 64 65 66 67 68 70 67 66 64 64 62 61 60 59 59 61 65 62 60 60 58 57 57 57 56 56 58 57 57 56
34 27 21 23 22 24 27 25 27 29 34 31 26 27 35 45 55 56 60 63 63 65 67 69 69 68 66 64 64 63 60 60 60 60 63 64 62 59 58 57 56 57 57 57 56 55 57 58 56
35 28 21 15 19 23 23 23 30 30 35 32 26 32 35 48 54 56 58 62 64 64 67 70 70 69 67 65 64 63 61 60 58 59 61 62 63 62 59 60 58 57 59 59 58 56 55 57 58
34 31 26 23 22 20 23 29 31 34 35 34 32 31 40 49 54 55 56 60 62 64 66 69 69 69 68 66 65 65 62 61 61 60 59 61 62 60 60 60 59 59 59 60 60 58 56 56 56
36 34 29 27 20 19 25 31 31 32 30 29 36 31 32 44 53 55 55 56 61 64 66 67 68 69 68 67 66 65 63 62 63 61 59 61 61 62 61 61 60 60 60 60 60 58 56 54 55
37 33 31 29 24 23 30 32 32 33 32 32 39 41 45 47 53 54 53 53 58 63 65 66 67 67 66 65 66 66 64 63 62 61 61 61 61 60 61 62 62 61 60 60 60 58 57 55 55
36 34 34 33 27 27 33 33 32 32 31 32 33 49 51 52 53 52 52 52 53 60 63 65 65 65 64 63 63 64 63 63 61 60 61 61 60 59 60 61 62 61 60 60 59 59 58 57 54
37 35 35 35 33 36 36 35 33 30 30 31 31 34 49 51 53 52 51 52 53 56 61 64 64 63 62 61 60 62 62 61 60 60 60 60 60 59 59 59 59 61 61 61 61 59 58 56 54
37 38 37 37 37 38 37 34 33 31 30 32 33 33 47 50 51 52 51 52 53 54 55 61 63 63 62 61 59 59 60 60 59 59 60 60 59 58 58 57 57 58 60 59 59 58 57 56 54
40 40 40 40 40 37 36 32 32 31 32 32 32 34 42 50 51 52 52 52 52 53 54 54 59 62 62 60 59 58 59 59 59 59 59 59 59 58 57 57 57 58 58 58 57 57 56 55 54
41 40 40 36 36 33 32 31 32 31 32 31 30 30 39 49 51 51 52 52 53 53 53 55 55 58 60 60 59 58 58 58 58 58 58 59 59 58 57 56 56 56 57 57 57 56 56 55 54
39 37 35 34 35 34 32 30 29 31 30 29 28 29 32 38 46 48 51 50 52 52 53 53 55 55 56 58 57 58 58 57 57 58 57 57 57 57 57 56 55 55 55 55 56 55 55 54 53
31 32 30 32 31 31 31 27 30 32 29 28 29 28 29 33 35 37 40 39 39 43 50 51 53 56 56 56 56 55 56 57 56 56 57 56 56 56 56 56 55 55 53 53 53 52 52 51 51
31 29 28 28 29 29 30 26 28 30 28 27 27 30 33 36 38 42 44 44 44 44 43 45 50 54 56 57 57 56 54 53 54 54 55 55 55 55 55 55 55 55 54 53 52 52 51 51 50
32 30 29 28 27 29 27 27 28 29 26 24 27 32 34 36 38 41 42 43 45 45 44 44 47 51 55 57 58 59 58 56 54 53 53 53 53 53 54 54 54 54 54 54 53 52 53 52 52
33 29 26 26 27 25 26 27 27 28 26 24 29 32 34 36 38 40 41 41 41 42 44 45 46 48 52 57 57 57 57 58 59 59 57 56 55 55 54 54 54 54 54 54 54 53 53 52 52
31 29 28 28 29 26 26 26 27 25 24 26 30 33 35 36 37 39 41 41 40 40 41 41 43 47 51 55 57 57 58 58 59 59 59 59 59 59 57 56 56 56 55 55 55 54 54 54 54
33 30 32 30 28 28 27 26 27 23 27 30 32 34 36 37 37 39 39 40 40 40 40 41 41 41 46 53 56 56 55 55 52 53 53 52 54 56 57 58 59 58 57 56 56 56 55 55 55
39 31 30 28 27 25 27 23 23 23 27 30 32 34 35 37 39 39 40 40 41 41 41 41 41 41 41 42 43 45 45 44 47 48 46 45 47 47 46 48 51 55 58 58 58 57 57 56 55
38 29 28 27 26 24 24 23 24 23 26 29 31 31 34 37 38 39 40 40 41 41 41 41 41 41 41 41 41 41 41 42 42 42 42 42 42 44 42 42 42 43 46 50 53 56 58 59 57
30 28 27 27 25 23 24 23 22 22 24 28 30 31 34 37 38 39 40 40 39 40 40 41 40 40 41 41 41 41 41 41 41 41 41 41 41 42 41 41 41 41 41 42 43 45 47 52 56
28 26 25 24 24 23 24 23 23 24 24 27 30 30 34 37 38 38 39 39 39 39 39 40 41 41 41 41 41 41 41 41 40 39 39 39 39 39 40 40 40 40 40 41 42 42 43 45 46
27 27 25 20 21 21 23 21 21 27 27 28 31 30 33 36 38 38 39 39 38 38 39 40 40 40 41 41 41 40 39 39 38 38 38 38 38 38 37 39 39 39 40 41 41 41 42 43 43
23 25 28 26 27 25 23 24 24 29 29 30 30 31 32 35 37 38 38 38 37 39 40 40 39 39 39 39 39 39 37 37 36 36 36 36 35 34 35 36 36 37 38 40 40 38 39 40 41
25 26 25 25 24 22 21 21 22 25 28 30 30 30 32 35 37 38 38 37 39 40 40 38 37 36 36 36 37 37 35 34 34 33 31 31 32 32 32 32 34 35 35 34 33 37 38 38 39
21 22 22 25 24 20 19 19 23 24 29 30 31 31 32 34 37 38 38 38 40 40 38 36 34 33 33 34 33 32 30 29 27 25 26 26 27 27 28 27 28 27 27 29 34 33 34 38 35
26 23 21 21 20 21 19 19 24 25 30 32 32 33 34 34 36 37 38 39 39 38 35 32 31 30 31 30 30 27 24 22 21 22 22 21 21 22 23 23 23 20 23 27 30 27 34 30 30

GFSSGP_sfc_30mbdewp_006.txt.gz
Dewpoint
59 44 37 39 32 35 32 34 38 35 37 32 29 28 28 30 25 24 53 59 61 62 64 68 68 67 67 65 65 63 62 59 58 57 55 59 59 59 59 60 59 55 56 55 58 56 58 56 59
47 37 37 37 31 30 30 34 36 34 36 39 30 30 28 27 44 48 53 59 63 63 65 68 68 67 67 66 65 64 62 61 58 58 57 62 61 58 58 57 57 58 56 57 58 59 56 56 58
37 33 29 33 32 28 29 34 36 30 29 33 27 30 29 29 40 48 55 60 64 64 66 67 68 67 68 66 65 64 62 61 60 58 60 63 62 60 59 59 58 57 58 57 58 58 56 56 57
35 28 27 23 26 31 32 32 26 27 31 34 26 26 35 39 43 52 58 62 63 65 67 67 68 69 67 66 65 64 62 61 60 60 61 65 63 60 61 58 58 57 57 57 57 58 58 56 57
34 27 21 19 21 24 27 24 24 30 31 34 27 26 32 42 54 54 61 64 63 65 66 67 69 68 67 66 65 64 62 61 59 60 60 62 64 61 60 59 57 57 58 57 57 56 56 58 58
36 28 26 26 20 22 22 24 29 32 32 35 28 29 33 47 54 56 62 63 64 64 66 67 70 69 67 66 65 64 61 60 60 60 58 63 64 62 59 59 59 58 58 58 58 58 56 56 57
35 32 29 25 26 24 21 30 29 31 32 34 29 29 34 44 53 56 59 62 63 64 66 67 69 69 68 67 66 65 62 62 60 59 60 57 61 62 60 60 61 59 58 58 60 60 59 57 56
36 34 30 29 26 24 23 32 32 31 31 32 35 29 30 43 53 55 55 59 61 63 65 67 68 68 68 67 66 66 65 63 63 62 61 60 61 61 61 61 62 60 59 59 60 60 59 58 56
36 33 31 31 27 25 28 33 34 34 33 32 35 39 43 50 53 54 54 54 59 62 64 66 67 68 68 67 66 66 65 64 63 63 61 61 60 60 61 61 62 62 60 59 58 59 59 59 58
36 34 34 33 29 27 32 35 35 33 31 30 32 42 49 50 53 52 52 52 53 59 62 65 66 66 66 66 65 65 65 64 62 61 60 61 60 59 59 60 61 62 61 61 60 59 60 60 58
37 35 36 35 34 32 36 37 36 33 31 31 30 32 39 48 51 52 51 51 52 54 61 64 64 65 64 64 63 63 63 62 61 60 59 60 60 59 59 59 58 59 60 60 60 60 59 58 57
37 37 36 37 37 37 37 37 35 33 32 33 33 34 35 43 48 50 52 52 52 53 55 61 63 64 63 62 61 61 61 61 60 59 59 59 59 59 58 57 57 57 57 58 58 58 58 57 56
39 39 40 40 40 40 39 35 33 32 33 33 33 32 32 40 48 51 52 53 52 52 53 55 61 63 63 62 61 59 59 60 60 59 58 59 58 58 58 57 57 56 57 57 57 57 57 56 56
41 41 40 40 39 36 35 35 33 32 33 31 30 30 30 35 47 51 51 51 52 53 53 54 55 60 62 62 60 60 59 58 58 59 58 58 58 58 58 57 56 56 56 57 56 56 56 56 55
41 40 39 37 36 35 34 32 32 32 31 30 29 29 30 31 37 40 43 43 42 43 48 53 54 55 58 60 60 59 59 58 58 58 58 58 58 58 57 57 56 56 56 56 56 56 56 55 55
38 34 36 35 32 32 31 24 27 31 31 30 28 29 34 38 41 42 44 44 44 43 44 43 52 55 55 57 58 58 58 58 58 57 57 57 57 57 57 56 56 56 55 55 54 54 53 53 52
31 33 31 32 30 30 31 27 24 30 28 27 26 32 35 37 39 41 42 44 45 44 44 45 48 52 55 56 56 56 55 56 56 56 56 56 56 56 56 56 55 55 55 54 53 53 52 52 52
34 32 31 30 29 29 27 27 28 29 27 27 26 33 36 37 39 40 41 41 42 44 45 46 48 49 54 57 57 57 57 55 54 53 53 53 53 54 54 54 54 54 54 54 54 53 53 53 53
37 31 33 30 28 27 26 26 26 28 28 26 27 33 35 37 39 40 40 40 40 41 41 43 46 50 54 56 56 56 56 58 58 59 59 58 57 57 56 55 54 55 54 55 55 54 53 53 54
35 31 30 30 29 27 27 27 27 28 26 25 28 33 35 37 38 39 40 40 40 40 40 41 42 45 52 56 57 57 57 58 55 53 51 52 53 53 54 55 56 57 57 57 56 55 55 55 55
35 35 35 33 30 29 27 26 26 25 26 29 32 34 36 36 37 39 39 40 40 40 40 40 40 41 42 46 50 50 50 48 46 46 44 45 45 43 43 44 45 48 52 53 55 56 56 55 55
39 36 34 31 30 25 27 24 25 24 25 29 32 35 36 38 39 40 40 40 40 40 41 41 41 41 41 42 42 42 42 41 43 43 42 41 43 42 41 41 41 41 43 42 45 45 50 52 52
40 36 35 32 27 25 25 23 24 23 24 28 31 34 36 38 39 39 39 40 40 41 40 41 41 41 42 41 42 41 41 41 41 40 39 40 40 41 40 39 40 40 41 41 42 42 42 44 47
37 33 28 27 25 24 25 24 22 23 23 27 31 32 35 38 39 39 40 39 39 40 41 41 41 41 41 41 41 40 39 38 37 37 37 38 38 39 38 38 39 39 39 40 42 42 42 42 44
34 33 29 24 24 23 24 23 23 24 24 26 30 31 35 38 39 39 38 38 39 39 40 41 41 40 41 39 38 38 38 37 36 36 35 34 34 34 34 35 36 36 37 39 40 41 41 41 42
34 32 25 21 22 22 24 22 21 26 30 28 31 31 35 37 38 39 38 38 39 40 40 39 39 38 39 38 36 35 34 34 33 32 32 32 32 33 31 33 33 34 35 36 35 35 37 38 40
28 29 28 26 26 25 26 23 25 28 28 29 30 31 35 37 38 38 38 38 39 40 39 37 36 36 36 36 34 31 29 28 27 28 29 27 28 26 27 29 28 29 28 27 29 33 33 34 37
27 28 26 26 23 22 23 21 23 23 26 30 30 30 34 36 37 38 37 39 40 39 37 35 34 34 33 33 30 27 25 24 24 23 21 21 23 23 24 23 23 22 20 23 24 32 25 29 37
24 24 25 26 25 21 19 19 23 23 25 29 30 31 34 36 37 38 37 40 39 37 34 32 31 30 29 30 26 21 18 19 19 19 20 19 19 20 20 19 20 18 18 19 21 27 21 26 28
24 23 24 24 22 22 20 22 24 26 26 31 31 32 33 35 37 38 38 39 37 34 31 29 28 27 26 26 20 16 16 16 14 15 17 17 16 17 17 16 18 16 16 18 21 18 18 25 22

GFSSGP_sfc_30mbdewp_009.txt.gz
Dewpoint
53 40 38 40 32 35 31 34 38 34 35 36 35 29 28 30 26 27 51 59 61 62 63 68 69 68 69 67 66 64 63 60 59 57 56 56 57 58 58 59 58 55 56 56 56 56 57 56 57
42 34 37 37 30 28 30 35 36 35 32 35 32 31 29 27 40 45 52 58 62 62 64 67 69 68 68 66 66 64 63 61 59 58 56 57 60 58 57 57 57 58 57 57 57 59 58 57 58
36 34 30 33 32 27 28 34 31 28 28 30 29 29 28 29 36 45 54 60 63 62 64 67 68 68 68 67 67 65 63 63 60 58 60 62 62 58 58 59 58 58 58 58 58 58 58 57 57
35 30 27 19 22 30 33 33 28 27 33 35 28 27 33 37 42 51 57 61 63 63 65 67 68 68 69 67 66 65 64 62 61 59 59 62 63 61 60 59 58 57 58 58 57 57 58 58 57
34 28 25 21 19 24 26 26 26 30 31 32 28 28 31 41 54 54 61 62 62 64 66 66 68 69 68 67 66 63 63 62 60 60 61 61 64 63 59 59 59 58 58 58 57 57 56 56 57
37 30 29 29 26 24 25 24 28 30 33 34 29 28 31 46 53 55 62 62 63 64 66 66 68 69 68 67 66 65 63 62 60 59 59 61 63 64 61 60 59 59 58 57 58 59 58 57 57
37 34 31 28 28 28 22 30 30 31 31 32 30 29 32 43 53 57 61 63 64 64 65 66 66 69 68 67 66 66 64 62 62 60 60 61 59 63 61 60 61 61 60 58 58 61 60 60 58
36 34 31 30 30 28 24 31 34 33 32 34 33 30 32 42 52 56 57 61 63 64 65 66 66 68 68 67 67 66 65 64 63 62 62 61 60 60 61 61 62 61 60 59 58 60 61 60 59
36 33 32 31 29 30 27 33 35 35 34 33 33 38 42 50 54 54 54 56 60 62 64 65 66 67 68 67 66 66 65 65 63 63 63 61 61 60 60 60 61 62 62 60 59 59 60 60 60
36 35 34 34 31 29 29 35 36 36 34 32 32 35 45 49 52 52 51 52 54 58 62 64 65 66 67 67 67 66 65 65 63 62 61 61 61 60 60 60 60 61 62 62 62 61 61 61 59
38 36 36 36 35 32 34 37 38 35 33 32 30 32 34 42 46 51 52 52 52 54 59 63 64 65 66 66 66 65 65 65 64 62 60 60 60 60 60 60 59 59 59 58 58 58 58 58 58
38 37 37 37 37 38 37 38 38 36 35 34 34 34 33 33 36 44 50 52 52 53 54 59 63 64 65 65 65 64 63 63 63 62 60 59 59 59 59 59 59 58 58 58 58 57 57 57 58
38 39 39 39 39 40 40 39 38 35 35 35 34 33 32 31 34 46 51 53 53 52 53 54 59 63 64 64 63 62 61 61 61 61 60 59 59 58 58 58 58 58 58 57 57 57 56 56 56
42 41 40 41 40 39 37 38 35 37 35 34 32 31 30 31 37 49 50 51 51 51 52 53 55 59 62 63 63 62 61 60 60 59 59 59 59 58 58 58 57 57 57 57 57 56 56 56 56
42 40 40 39 39 38 36 35 34 35 33 32 31 29 33 38 40 41 42 41 42 43 44 45 50 55 59 61 62 61 61 60 59 59 58 58 59 59 58 58 57 57 57 57 56 56 56 55 55
41 38 38 39 33 33 32 31 29 30 32 31 28 32 37 40 41 42 44 44 45 44 45 47 47 54 56 58 59 60 60 60 59 59 58 58 58 58 57 57 56 56 56 56 55 55 54 54 54
36 37 36 37 35 35 31 27 29 29 29 28 27 33 36 38 40 41 42 43 44 45 46 49 50 51 55 56 57 57 57 57 57 57 56 56 56 56 56 55 55 55 55 55 55 55 54 54 55
34 35 32 31 30 29 28 28 28 29 29 28 27 34 37 38 39 40 41 41 41 43 44 48 51 52 56 57 58 58 58 58 57 58 58 57 57 56 55 56 56 56 56 56 56 55 55 55 54
33 32 32 34 30 27 27 27 29 29 29 28 28 34 36 38 39 40 40 40 40 41 42 44 50 53 56 57 56 57 56 53 51 49 48 47 49 49 50 50 49 50 51 52 53 54 53 53 55
35 33 32 31 30 29 31 29 28 29 28 27 28 34 36 37 38 39 40 40 40 40 41 41 43 46 54 57 58 57 51 48 46 45 44 43 40 40 39 40 41 41 43 42 43 46 46 47 49
37 35 34 34 32 30 27 26 26 26 26 29 31 35 36 37 38 39 39 40 41 41 41 41 42 43 44 46 46 45 45 44 43 42 40 41 40 38 38 38 38 39 40 39 41 41 41 41 41
38 35 36 34 36 33 27 25 26 26 25 29 33 36 36 38 39 39 39 40 40 41 42 42 42 42 43 43 43 42 41 39 40 39 39 37 38 38 35 36 37 37 37 37 38 38 40 39 39
39 39 38 35 33 26 26 25 25 24 23 28 32 36 37 39 39 39 40 40 41 41 42 42 42 42 42 41 41 39 38 38 37 36 34 35 34 36 32 32 33 34 34 36 37 37 38 39 39
33 34 34 29 26 25 25 25 24 23 23 27 31 34 37 39 39 39 40 40 40 42 42 42 40 40 39 39 38 37 36 33 32 32 30 29 29 31 27 28 28 29 29 31 32 34 37 37 37
35 37 32 29 26 25 25 24 24 25 24 27 30 33 37 39 39 39 39 39 40 41 41 40 40 38 37 35 34 34 33 31 28 26 24 22 21 24 23 25 23 24 24 24 26 28 33 33 34
38 36 31 25 23 23 25 23 21 25 29 29 31 33 37 38 39 38 39 39 40 40 39 38 37 37 35 32 29 28 27 25 22 22 20 19 19 20 20 21 20 20 19 18 20 22 31 25 30
35 36 31 26 25 25 26 25 26 27 28 29 30 33 37 38 39 39 38 39 40 38 37 36 35 34 34 30 24 21 20 19 18 18 17 17 17 14 16 18 17 18 16 16 18 18 23 22 22
35 34 33 27 23 21 24 23 24 23 25 29 30 33 36 37 38 38 38 39 39 36 35 34 32 31 29 24 20 17 16 15 15 14 14 15 14 15 16 15 15 16 14 14 15 17 19 18 18
31 34 31 27 26 23 19 19 23 23 24 28 30 33 35 37 38 38 38 40 37 34 32 31 29 28 25 20 15 13 13 13 12 11 13 13 14 14 13 12 13 12 12 12 13 13 13 15 20
27 30 29 25 23 23 21 23 24 26 27 29 30 32 35 37 38 38 39 38 34 31 29 27 25 24 22 16 12 11 11 11 9 10 11 12 12 12 12 11 11 11 11 12 12 12 14 17 19

GFSSGP_sfc_30mbdewp_012.txt.gz
Dewpoint
51 38 39 39 31 31 23 28 37 34 35 32 32 32 30 30 28 30 53 57 58 58 59 68 70 68 68 68 66 64 63 61 60 58 57 56 57 57 56 58 58 57 56 56 57 58 60 57 57
45 34 40 37 23 21 19 33 36 35 31 31 31 32 31 29 34 41 48 57 59 58 59 62 69 69 69 68 66 64 63 62 60 58 56 57 59 58 57 57 57 58 58 58 58 59 60 58 58
40 33 30 29 28 21 24 34 30 29 31 32 32 29 29 30 34 41 53 57 59 58 60 63 70 68 69 67 66 65 64 63 61 58 60 60 62 58 58 58 58 58 58 58 58 57 59 59 58
39 35 29 21 15 26 31 32 26 30 33 34 32 31 31 37 40 49 55 57 57 58 60 66 69 68 69 68 67 66 64 63 62 61 59 60 63 62 60 60 58 57 58 58 58 57 57 58 58
39 33 29 27 25 19 22 25 25 30 31 33 34 33 31 42 51 52 56 58 56 58 60 61 68 68 68 68 66 65 64 63 62 60 60 62 62 64 61 60 59 58 58 58 58 58 58 57 57
37 34 28 28 30 29 29 27 29 30 31 33 32 30 34 46 49 53 58 57 58 59 61 60 66 69 69 67 67 64 64 63 62 60 60 60 62 63 64 60 60 59 60 59 57 59 60 59 59
38 34 30 30 29 31 26 27 28 30 31 32 32 31 33 41 52 55 58 58 59 60 61 60 61 66 69 68 67 66 65 63 62 61 60 61 62 61 62 61 60 62 61 59 57 60 61 61 60
39 35 32 30 28 31 30 26 35 32 30 34 32 31 33 43 48 55 57 58 59 61 61 61 61 63 64 64 67 66 66 64 64 63 62 62 61 60 60 61 61 62 61 61 59 59 60 61 61
39 34 30 31 31 31 29 32 37 37 35 32 32 34 37 46 51 53 53 56 58 60 61 62 61 62 63 63 64 66 65 64 63 63 62 61 55 57 57 58 60 61 61 61 60 60 60 61 61
39 35 32 34 33 32 33 35 37 37 34 32 30 33 35 36 42 46 48 49 52 55 58 60 62 62 63 63 63 63 61 61 60 59 58 56 54 56 58 59 60 61 61 61 61 60 60 61 56
40 36 35 36 35 34 36 37 38 38 36 33 31 30 33 34 35 39 42 48 49 50 54 58 61 62 62 63 62 62 62 61 60 60 59 57 55 55 57 57 57 57 58 56 56 55 55 54 55
39 39 37 37 38 38 37 38 38 39 39 39 37 37 35 33 33 33 38 45 49 51 52 54 58 61 62 62 63 61 61 61 60 60 59 58 56 56 55 55 55 56 55 55 55 55 55 55 55
40 38 39 39 39 39 39 39 39 39 40 39 39 37 34 33 32 34 45 48 50 51 52 53 54 58 61 62 62 61 60 60 59 60 59 58 57 56 56 56 56 55 55 55 56 56 56 56 56
41 41 40 39 39 40 39 39 39 38 38 38 36 35 34 33 35 40 45 47 49 49 50 50 53 54 58 60 61 61 60 60 60 59 59 59 58 58 58 57 57 56 56 56 56 56 56 56 56
42 40 40 40 40 39 40 37 36 37 33 30 30 32 35 39 39 41 42 42 43 43 44 45 45 50 55 58 60 60 60 60 59 59 59 59 59 58 58 58 57 57 57 57 57 57 57 56 56
42 42 37 37 39 40 37 33 33 33 30 30 29 31 37 39 39 41 42 43 44 44 47 49 47 48 54 56 58 59 59 59 59 59 58 58 58 58 58 57 57 57 57 57 57 57 56 55 55
41 36 37 35 38 37 35 32 31 30 30 29 29 32 35 37 39 40 42 43 44 46 48 50 50 52 54 56 57 57 57 57 57 57 57 58 57 57 57 58 58 57 56 55 55 54 54 54 54
35 35 34 35 34 32 33 32 31 30 30 29 28 32 35 36 38 40 41 42 44 46 49 51 54 54 55 56 56 57 58 58 57 55 54 54 52 52 52 48 46 47 47 46 44 45 47 47 48
31 32 33 33 33 32 33 33 31 33 32 30 29 32 34 36 38 40 41 41 42 43 47 51 54 55 55 55 56 54 50 47 44 43 41 39 39 39 39 39 38 38 39 38 38 38 37 37 39
36 34 33 32 32 31 33 34 35 33 30 30 29 32 34 36 37 38 39 39 40 41 42 45 51 55 56 57 53 48 45 43 42 41 40 38 37 36 36 36 36 37 37 37 37 38 37 36 36
36 33 31 32 34 35 32 31 31 27 27 28 28 33 35 35 36 37 39 40 40 41 42 42 45 46 46 45 44 44 44 42 40 39 37 36 36 33 34 34 33 34 34 34 34 33 34 33 32
36 36 36 36 37 33 33 28 29 28 27 28 31 34 35 36 37 38 39 40 41 43 44 43 43 43 43 43 42 41 39 38 37 35 35 33 33 30 26 27 28 28 27 28 28 27 29 30 29
35 38 37 38 36 34 33 29 27 26 25 27 31 34 35 37 37 38 40 41 42 44 43 42 41 40 40 39 38 36 35 35 34 32 30 29 27 26 22 21 22 22 22 23 24 24 25 28 27
38 36 36 34 32 30 30 28 25 24 23 26 31 35 36 37 38 39 40 41 42 43 42 40 38 38 37 36 35 34 32 29 28 26 23 21 19 20 18 18 17 17 19 19 19 21 23 27 24
38 37 33 31 32 28 25 25 24 26 25 27 31 34 36 38 38 39 39 40 41 42 41 38 36 35 34 32 30 30 28 25 22 19 16 14 12 14 14 15 14 14 15 15 16 17 21 24 22
37 35 29 24 25 25 25 24 23 26 28 27 30 34 36 38 38 38 39 40 41 40 39 37 35 33 30 28 25 23 21 19 16 14 13 10 10 10 13 13 12 13 12 13 13 14 15 17 19
39 37 32 26 26 24 24 26 27 27 28 28 29 34 37 38 38 38 40 40 39 38 37 36 35 32 28 24 20 17 15 14 12 11 10 10 10 8 10 11 10 11 11 11 11 10 11 13 15
39 38 32 29 24 22 23 24 22 24 24 28 29 34 36 38 38 38 39 39 38 36 36 34 32 28 24 20 16 14 10 9 9 8 8 9 8 9 9 8 8 8 8 8 9 9 10 11 13
37 38 37 31 27 22 19 21 24 24 25 26 29 33 36 38 38 38 38 39 36 35 34 31 29 26 21 17 13 11 8 7 7 6 7 7 7 8 8 7 7 6 6 7 7 7 8 10 13
36 35 34 31 26 25 23 21 24 26 28 28 29 33 36 37 38 38 39 38 35 33 31 28 27 23 19 13 10 8 8 7 5 5 7 6 6 7 8 7 6 6 6 8 7 8 9 12 13

GFSSGP_sfc_30mbdewp_015.txt.gz
Dewpoint
52 43 38 38 30 25 22 22 34 35 36 32 32 32 32 31 30 32 51 53 53 55 59 66 69 69 68 68 67 65 63 61 60 58 56 56 57 58 57 58 58 58 57 57 59 60 61 60 58
49 41 36 31 20 21 16 23 29 34 33 32 32 32 32 30 32 44 49 54 54 54 58 63 70 68 68 68 66 65 64 62 60 59 56 57 58 58 58 57 57 57 58 58 58 58 60 60 59
46 38 32 29 22 17 23 28 31 31 33 32 33 31 30 31 35 42 51 54 54 54 57 65 69 69 69 68 66 65 64 63 61 59 59 61 62 61 59 57 58 58 58 58 58 57 58 59 59
42 36 32 28 25 20 25 31 28 29 33 33 33 32 32 40 41 49 52 53 53 55 57 68 70 69 69 67 67 66 65 64 63 61 60 60 61 65 60 60 59 58 58 59 58 58 57 57 57
42 35 30 29 28 24 17 24 25 29 31 32 34 34 34 43 48 49 53 53 53 54 57 63 69 69 68 69 67 66 65 63 62 61 60 61 62 63 63 61 60 58 59 58 57 57 57 58 58
38 35 29 26 28 30 26 24 26 29 31 32 32 32 38 44 48 52 53 52 54 56 58 60 67 69 69 68 67 65 65 63 62 60 60 60 62 63 64 63 61 59 60 60 57 57 58 61 61
38 34 31 27 27 30 31 22 25 29 30 31 32 31 36 41 47 53 54 53 55 57 58 58 61 65 69 68 67 65 65 64 62 61 60 61 62 61 62 61 61 62 62 61 60 59 60 60 61
41 36 33 31 29 28 32 27 25 31 30 32 33 32 34 42 46 52 54 53 55 57 58 58 59 62 64 64 66 66 66 65 63 63 63 62 61 60 60 60 61 62 61 61 60 59 59 60 61
42 35 31 30 30 29 32 31 32 36 35 33 32 32 36 38 45 49 51 53 54 56 58 58 58 60 61 61 65 66 65 64 63 62 62 61 54 55 57 58 58 60 60 60 60 60 60 61 62
40 34 31 31 31 31 32 33 35 36 34 33 33 32 34 34 34 38 42 46 51 52 55 57 58 58 60 60 62 62 61 61 61 60 57 57 52 53 55 58 59 60 61 61 61 60 61 61 57
41 36 34 33 33 34 33 34 35 36 35 35 33 33 34 35 33 33 36 40 45 49 51 55 57 58 59 60 60 59 59 59 57 57 56 55 53 52 53 54 55 56 58 57 56 57 58 55 54
39 38 37 35 35 36 36 36 35 36 37 38 39 39 38 36 31 32 32 36 44 48 50 52 55 58 59 59 60 59 58 58 58 57 57 56 55 54 54 53 54 54 54 54 55 55 55 55 55
40 38 37 37 37 37 37 36 36 37 38 39 38 38 39 37 34 32 33 42 44 48 50 52 53 56 59 59 59 59 58 58 58 58 58 57 56 56 55 55 55 55 56 56 56 56 56 56 56
42 39 38 37 37 37 37 37 36 37 38 37 37 36 36 36 35 36 39 42 46 48 50 51 52 53 56 58 59 59 59 58 58 58 58 58 58 58 58 57 57 57 57 56 56 56 56 56 56
41 39 38 37 37 37 37 36 35 36 37 35 28 28 31 35 38 38 41 41 42 43 44 44 45 49 53 57 59 59 59 58 58 58 58 58 58 58 58 58 58 57 57 57 57 57 57 55 54
38 41 39 38 37 37 38 34 33 34 33 28 28 28 33 37 37 39 41 42 43 44 46 48 48 44 51 55 58 58 58 58 58 58 58 58 57 57 58 57 57 58 58 57 55 53 52 51 51
40 37 37 38 36 35 37 34 32 33 30 28 28 28 33 36 37 40 40 42 43 45 48 50 50 50 52 56 57 57 57 56 57 57 58 58 57 57 57 54 48 48 49 46 43 42 43 42 42
36 36 34 36 33 36 35 34 33 33 31 30 28 27 32 35 37 39 41 42 44 48 50 52 53 53 54 55 56 57 57 53 49 46 45 43 42 42 43 41 40 39 40 38 38 37 39 38 38
34 35 33 33 33 33 33 32 32 31 32 31 30 28 32 35 38 40 41 41 43 48 51 53 53 54 55 55 55 52 48 45 43 41 40 39 38 38 38 37 36 37 37 37 37 36 37 37 36
41 34 31 31 33 33 31 31 31 32 33 33 29 29 32 35 36 38 39 39 40 43 48 52 54 55 54 51 50 47 45 43 42 40 38 36 34 34 33 34 33 33 34 33 33 32 32 31 31
39 35 29 30 32 33 32 33 33 34 34 31 30 29 33 35 35 37 38 39 40 41 44 46 46 46 47 47 46 45 44 42 39 37 35 34 32 27 27 27 27 27 28 28 28 27 28 28 29
39 36 32 32 34 30 34 25 26 29 28 28 28 30 33 34 35 36 38 40 42 44 44 43 43 43 43 43 42 41 39 36 35 34 33 31 30 25 21 21 22 22 22 23 24 22 24 26 26
40 35 33 35 35 36 35 32 27 29 26 28 28 31 34 35 36 37 39 41 43 44 43 41 41 40 40 39 37 36 34 33 32 31 28 26 24 22 19 18 18 18 19 20 20 21 22 25 25
43 35 36 35 33 30 30 30 24 26 26 26 29 32 35 35 37 38 40 42 43 43 42 40 38 37 36 35 34 33 32 30 29 26 23 20 18 18 16 16 15 15 17 17 18 20 21 22 24
44 37 33 31 31 24 27 28 26 23 25 25 29 32 35 36 37 39 40 41 42 42 40 37 35 34 33 32 31 30 29 26 23 20 18 16 14 14 13 14 12 12 14 15 16 17 18 17 20
40 37 27 22 23 23 26 25 24 26 27 27 31 33 35 36 37 38 39 40 42 40 37 36 34 31 30 28 26 25 24 21 19 16 15 13 11 10 10 11 10 10 11 11 12 14 15 15 16
38 35 32 28 26 23 26 26 25 26 27 27 29 33 35 36 37 38 40 41 41 39 37 36 32 30 27 25 23 20 18 17 15 13 12 12 9 6 8 9 8 8 8 9 10 10 11 12 13
39 38 31 28 23 21 22 22 23 24 25 27 28 33 35 36 37 38 39 40 39 37 36 35 31 28 25 22 20 17 14 12 11 11 9 8 8 7 8 7 7 7 7 7 8 10 10 10 11
40 38 35 30 27 22 20 21 25 24 25 27 28 33 36 37 37 38 39 39 38 37 35 33 29 26 23 21 18 16 12 11 9 8 7 6 6 6 6 6 6 6 6 7 8 8 9 8 11
38 38 34 29 26 25 23 21 24 25 28 28 28 32 36 37 37 38 38 38 36 36 33 31 29 25 23 18 15 13 12 11 9 7 6 5 5 5 6 6 7 7 7 8 8 8 7 9 12

GFSSGP_sfc_30mbdewp_018.txt.gz
Dewpoint
57 50 42 40 34 30 27 23 25 34 35 33 32 32 32 33 32 39 52 52 55 60 67 69 70 69 69 69 67 64 63 61 60 57 57 56 57 58 58 58 58 59 59 59 59 59 61 61 60
57 51 41 37 25 22 21 21 30 32 32 33 33 32 32 31 43 49 53 53 54 60 65 66 70 69 68 69 67 65 64 61 60 58 57 57 58 58 58 57 58 58 58 58 58 58 59 60 60
53 44 36 34 29 19 20 29 29 28 31 33 33 33 31 37 45 49 54 53 54 56 62 68 70 69 69 68 66 65 65 62 61 58 59 61 62 62 59 58 59 58 58 58 58 58 57 58 58
45 40 36 29 28 29 20 25 28 27 31 33 33 33 40 46 47 51 53 53 54 56 67 70 70 69 69 68 67 66 65 64 63 61 60 60 62 64 62 59 59 58 59 59 59 58 58 58 58
43 40 33 30 30 30 20 18 26 25 30 32 33 33 40 46 48 51 52 52 54 57 67 70 70 69 69 68 68 66 65 64 63 61 60 61 63 63 64 61 60 59 59 59 56 56 56 58 59
40 38 32 30 29 29 28 23 25 25 29 32 32 32 42 47 51 53 52 52 54 57 62 68 69 69 69 68 67 66 65 63 62 61 60 61 62 63 64 62 61 60 60 60 58 56 59 60 61
41 37 34 32 30 28 31 23 22 26 30 31 33 31 41 43 51 53 52 53 55 57 59 62 66 69 70 69 68 66 65 64 63 62 61 62 62 61 62 64 62 61 62 61 61 60 59 60 61
43 40 35 34 32 32 31 30 25 26 30 35 32 31 36 42 49 53 53 53 55 57 58 60 62 64 68 67 68 66 66 65 63 63 63 61 60 60 61 61 61 62 62 61 60 60 60 59 60
45 40 36 34 33 32 31 31 32 34 34 34 34 32 37 41 47 50 52 53 54 57 58 58 59 63 66 64 66 66 65 65 64 63 62 62 58 56 59 60 61 61 60 60 60 60 61 61 62
44 40 37 34 33 31 32 32 33 35 35 34 35 34 34 35 36 38 47 51 53 55 56 58 58 59 61 61 65 65 64 63 63 61 61 61 58 55 57 58 58 58 60 61 61 61 61 62 61
44 41 39 35 34 33 33 34 34 34 34 36 35 38 39 38 37 34 35 39 49 52 55 56 58 58 60 60 64 63 62 62 61 61 58 58 53 53 55 56 57 58 59 59 59 60 61 60 59
42 42 40 39 37 36 35 36 35 35 36 38 38 39 39 39 38 34 33 33 42 49 51 55 57 59 59 61 60 60 59 59 58 58 57 56 55 55 54 54 55 55 56 56 56 56 56 56 56
43 43 40 38 37 37 36 36 37 36 37 38 38 39 39 39 39 36 34 40 42 48 50 51 54 58 59 60 60 60 59 59 59 59 58 57 57 56 57 57 57 57 57 57 57 57 56 57 57
42 43 43 41 37 36 36 36 37 37 37 37 38 38 37 37 37 37 36 40 44 47 50 52 53 54 59 60 60 60 59 59 58 59 59 58 58 58 59 58 58 58 58 58 58 57 57 57 56
38 40 41 41 39 37 37 35 36 38 38 36 37 36 30 34 37 38 41 41 42 44 44 44 46 52 55 59 60 60 59 59 59 59 59 58 58 59 59 59 59 58 58 58 57 56 54 53 52
42 39 38 40 39 38 37 34 37 37 37 35 35 28 33 37 37 39 41 42 43 44 46 49 47 44 51 57 59 59 59 59 59 58 58 58 58 58 58 56 48 51 51 48 43 43 42 42 41
40 36 36 39 40 38 36 34 36 37 35 33 31 28 33 36 37 40 41 42 44 46 49 50 48 45 52 58 58 57 57 57 54 52 47 44 43 45 45 43 40 41 42 41 40 39 40 39 39
34 37 36 38 39 38 37 34 36 36 33 30 30 29 32 36 37 40 41 43 47 49 52 52 54 55 57 56 57 52 47 45 44 42 40 40 40 39 40 40 39 39 39 39 37 36 37 37 37
35 34 36 35 37 37 35 34 35 35 34 33 33 31 32 36 39 40 42 44 49 52 53 54 54 55 56 57 53 48 45 43 42 40 37 36 35 37 35 36 35 35 35 35 32 32 31 31 31
36 36 36 37 36 35 34 34 35 34 33 33 32 32 32 37 38 39 40 42 47 51 53 55 55 52 51 50 49 47 44 42 40 38 36 32 29 29 29 28 29 28 30 29 28 29 29 30 30
32 37 37 38 37 34 33 31 32 32 32 32 34 34 34 36 37 38 40 41 44 47 47 48 48 48 48 47 45 43 43 42 39 37 35 32 26 24 24 24 24 25 26 25 25 25 25 27 28
30 35 38 39 38 34 33 28 30 31 33 34 34 30 35 36 37 38 40 42 44 45 45 45 46 46 46 46 45 43 38 36 36 34 33 29 26 21 20 21 21 22 23 22 22 23 23 25 26
34 38 39 40 40 37 35 31 31 30 32 33 29 29 35 36 36 38 41 44 45 44 43 42 41 40 40 39 38 37 35 34 32 30 26 24 24 20 19 19 19 19 20 20 20 20 21 24 23
36 37 41 41 38 33 34 32 29 28 29 28 28 32 35 35 37 40 43 44 44 44 42 39 37 37 36 35 35 34 32 30 27 23 21 20 21 20 17 17 16 16 17 18 19 19 19 19 20
36 35 31 31 31 28 29 30 30 24 26 28 28 33 35 36 38 41 42 43 43 41 39 37 35 33 33 32 31 29 27 24 20 19 18 15 15 15 14 15 13 14 14 15 15 16 16 17 16
36 34 31 27 27 25 27 27 27 26 27 29 31 34 36 37 39 40 42 43 42 40 37 35 32 30 29 27 24 23 23 20 18 16 15 13 12 11 12 13 12 11 11 12 12 13 14 13 15
37 31 37 32 23 25 26 26 25 27 27 29 32 35 36 37 39 39 41 43 42 38 36 34 31 28 26 23 20 18 17 16 15 14 13 12 11 8 10 10 9 10 10 10 10 12 12 13 12
42 39 35 33 22 23 26 25 24 25 27 27 32 34 36 37 39 39 41 41 40 38 36 32 29 26 24 21 18 15 13 12 12 11 9 9 8 8 9 8 8 8 9 9 10 11 12 11 12
37 37 40 33 28 24 22 22 27 26 27 27 31 35 36 37 38 40 40 40 38 37 35 31 27 24 22 20 17 14 13 12 10 9 8 7 7 7 7 8 8 9 9 9 10 10 10 9 10
39 38 36 28 27 27 24 22 26 27 27 28 28 35 37 37 38 39 40 38 37 36 33 29 26 24 21 17 15 14 13 11 9 8 8 7 7 8 8 9 10 10 10 11 10 10 10 10 13

GFSSGP_sfc_30mbdewp_021.txt.gz
Dewpoint
58 54 52 39 31 32 28 25 25 32 32 32 33 32 31 33 34 38 53 61 66 68 71 71 71 70 68 69 66 65 63 61 58 57 56 57 58 59 58 58 59 59 59 58 59 59 61 61 61
61 55 42 37 24 20 24 27 27 27 31 33 33 32 32 37 47 51 52 57 66 68 70 70 71 70 69 69 66 65 63 62 59 57 56 57 58 59 58 57 59 58 58 58 58 57 58 60 60
56 52 38 34 31 24 20 27 29 28 30 33 33 34 35 41 49 51 53 56 65 66 67 69 71 70 69 68 66 65 64 62 60 59 59 62 61 61 56 58 59 58 59 58 58 58 57 57 57
48 42 37 31 28 29 29 24 27 26 29 33 33 33 44 47 48 53 53 54 60 64 66 70 71 70 70 68 66 65 65 63 62 60 60 60 62 63 63 60 59 59 59 59 58 58 58 58 58
45 41 34 31 31 31 31 19 25 25 28 32 33 32 42 48 52 53 53 54 63 67 69 70 70 70 70 67 67 66 65 64 63 61 60 61 63 64 64 61 60 60 59 59 56 56 56 57 60
43 40 34 30 31 32 31 25 25 25 26 29 32 33 43 51 51 52 52 54 65 66 68 70 70 70 70 68 67 66 65 63 62 61 60 61 62 63 65 62 61 60 60 60 60 58 58 60 61
45 40 35 34 32 33 33 23 23 26 30 32 33 33 41 48 52 53 52 55 61 64 67 68 69 69 69 69 68 67 65 64 63 61 61 62 61 61 63 64 63 61 62 61 61 61 59 59 60
46 42 38 36 34 33 35 30 25 25 27 35 34 33 38 45 51 53 53 54 57 61 63 66 67 68 69 69 68 67 66 65 64 63 62 61 60 60 62 64 63 62 62 62 61 59 60 60 60
50 43 39 38 36 34 35 31 31 33 33 35 35 34 38 46 51 53 52 54 56 57 60 62 64 66 68 68 68 66 66 65 63 62 62 61 60 56 59 62 61 62 61 60 60 60 60 62 62
47 43 41 39 37 35 35 33 32 34 35 36 36 37 39 46 48 50 51 52 53 56 57 60 62 63 66 65 66 66 65 65 64 62 61 62 60 57 56 59 59 60 60 60 61 61 62 62 61
47 44 42 40 39 37 34 34 35 34 34 35 36 37 39 39 38 36 40 51 52 55 57 58 59 62 64 64 65 65 64 63 62 61 61 61 60 56 57 57 58 57 58 59 59 58 60 60 60
45 46 45 44 43 41 37 36 35 35 35 37 37 38 39 39 39 38 36 35 43 53 55 57 58 59 61 64 64 64 63 62 62 61 60 58 55 54 54 54 55 56 56 56 57 56 56 57 57
43 43 44 44 43 41 39 37 36 36 38 38 38 37 38 39 39 39 36 40 43 51 54 56 58 58 60 61 61 61 61 61 59 58 57 57 57 57 57 58 57 57 57 57 57 57 57 57 57
40 41 42 44 44 42 38 37 37 37 38 38 37 37 38 38 39 38 37 36 43 47 51 54 55 59 59 60 60 60 59 59 59 59 58 58 59 58 58 58 59 58 58 58 57 53 52 49 49
42 40 39 39 43 43 42 37 36 37 38 37 37 37 37 36 37 37 41 41 42 45 47 51 53 57 59 59 60 60 59 59 59 59 59 59 59 59 58 55 51 53 48 42 42 40 42 41 41
39 40 36 38 40 42 41 37 37 38 38 37 37 37 34 37 37 40 41 42 43 44 46 47 46 48 58 59 60 60 59 59 58 56 48 44 48 52 47 41 40 43 41 40 39 39 38 37 38
39 34 36 37 39 40 39 37 38 38 37 36 36 35 34 37 39 40 41 43 44 47 49 49 48 44 55 59 55 51 47 45 44 43 41 40 40 41 40 39 38 39 39 36 36 35 34 33 33
29 33 36 37 37 39 39 39 39 37 37 36 35 32 33 37 39 40 41 43 47 50 51 52 50 54 57 50 47 44 42 42 40 38 37 37 36 35 36 35 33 35 35 31 30 30 29 32 30
33 34 34 36 38 38 37 38 38 39 36 35 33 30 33 37 40 41 43 47 50 52 53 54 56 56 55 50 46 43 41 39 37 34 32 30 31 29 29 30 28 30 30 27 28 28 27 28 29
35 34 33 35 38 38 37 37 37 37 36 36 35 34 35 39 39 41 44 49 52 53 53 54 53 53 51 49 46 44 41 39 37 34 28 25 24 25 24 25 25 26 26 24 24 25 25 28 28
34 34 33 32 36 39 38 37 36 36 36 35 35 35 37 38 39 40 44 47 47 48 49 49 48 47 46 44 43 42 41 39 35 33 29 23 21 22 22 22 22 23 24 22 22 23 23 24 26
29 32 32 31 34 33 39 32 35 35 33 32 32 33 36 38 39 40 43 45 45 45 46 47 47 45 44 44 43 41 38 35 35 33 29 24 20 19 20 19 20 21 21 20 20 21 21 22 20
29 31 32 32 33 34 36 36 34 32 32 32 32 33 36 38 38 40 43 44 45 43 42 41 42 43 42 42 40 37 35 34 32 28 25 23 19 17 18 17 18 17 19 18 18 18 17 19 21
33 32 31 35 34 29 33 36 30 30 30 31 32 34 36 37 39 43 44 44 42 41 39 37 36 36 36 36 35 33 30 26 23 20 19 19 19 17 16 15 15 15 15 16 16 17 15 15 18
34 31 23 23 25 24 33 34 35 29 28 32 30 34 36 38 42 43 43 42 41 38 37 35 34 32 31 29 28 25 22 20 19 17 15 14 13 12 12 13 12 12 13 13 13 13 14 14 14
33 29 22 19 20 23 35 33 33 33 30 31 33 35 37 40 42 43 43 42 40 37 35 33 31 29 27 25 23 22 20 18 17 15 14 12 11 11 11 11 10 10 10 11 11 13 13 13 13
31 29 28 31 32 29 33 29 26 28 30 32 34 35 37 40 42 43 43 42 39 36 33 31 28 26 23 21 19 17 16 15 13 12 12 11 10 9 9 9 9 9 10 10 10 11 11 12 12
33 33 28 30 25 27 28 24 24 26 29 33 34 35 37 39 41 42 43 41 39 36 33 29 27 24 21 18 15 13 13 13 11 10 8 7 8 8 8 8 9 9 10 10 11 11 12 11 12
34 32 32 33 30 27 24 24 26 26 29 32 34 35 37 39 40 42 42 40 38 35 31 28 25 22 19 16 14 12 12 10 9 8 7 7 7 8 8 9 10 11 11 11 11 11 10 11 13
34 34 32 27 31 30 23 22 27 27 28 32 34 36 38 39 40 41 41 39 37 34 30 26 24 21 19 16 14 13 11 9 8 8 8 8 8 9 9 11 12 12 12 13 12 11 11 12 15

GFSSGP_sfc_30mbdewp_024.txt.gz
Dewpoint
63 58 52 39 29 31 27 27 26 28 32 32 33 32 32 36 33 34 54 61 67 70 71 71 71 71 69 68 66 64 62 60 58 57 58 60 60 60 59 59 59 59 58 58 59 60 61 62 61
65 56 43 37 27 19 23 26 27 28 29 32 33 32 33 42 49 51 57 66 68 70 71 71 71 70 69 69 66 65 63 61 58 57 56 57 59 60 58 59 58 57 58 58 58 57 59 60 60
55 53 39 33 31 25 20 26 28 29 29 33 33 37 40 43 51 52 54 66 68 69 70 70 71 70 69 68 66 64 63 62 59 59 59 59 58 60 59 59 58 58 59 58 58 58 57 57 57
50 43 37 32 28 30 29 30 28 26 27 33 34 37 44 47 49 53 59 65 67 68 69 71 71 71 70 68 66 65 64 62 60 59 60 61 62 62 57 60 59 60 60 59 58 58 58 59 59
46 41 35 32 31 31 32 31 26 25 27 31 32 35 43 49 53 53 58 63 63 65 67 70 71 71 70 67 66 66 64 63 62 60 60 61 64 64 64 61 60 60 60 59 57 56 57 57 59
45 40 35 30 29 31 32 33 25 25 27 31 32 38 43 50 52 53 54 61 65 66 68 70 71 71 69 67 67 66 65 64 63 60 60 62 62 63 64 62 61 61 60 61 60 60 59 59 61
45 40 35 34 31 32 33 35 30 26 29 31 34 37 42 47 52 53 53 62 66 68 69 69 70 70 69 69 68 67 65 63 63 61 61 62 62 62 65 64 63 61 61 62 61 61 60 60 59
46 43 38 37 35 33 36 34 25 25 25 35 34 37 39 43 51 53 55 62 65 66 67 68 68 69 69 69 68 67 66 65 64 63 62 63 62 60 62 66 65 63 62 62 62 60 59 60 61
50 43 39 38 36 35 36 35 34 32 32 35 35 35 36 44 52 53 53 57 61 64 65 67 67 68 68 68 68 67 67 65 64 63 62 61 59 58 60 63 62 63 62 62 60 60 61 62 62
49 45 42 41 40 36 37 35 34 34 35 36 36 38 44 48 52 52 52 53 56 59 61 64 65 66 67 67 67 66 66 65 63 62 62 62 61 58 55 59 60 62 62 61 61 62 62 63 62
48 45 44 42 41 40 38 37 36 34 33 35 35 37 38 45 49 50 51 52 54 57 59 61 62 63 66 66 66 66 65 65 64 63 61 61 61 59 58 57 59 60 58 58 58 57 58 59 59
42 46 46 46 45 44 42 39 38 36 34 36 38 38 38 39 39 40 40 45 51 54 57 59 61 62 65 65 64 65 64 63 62 62 61 60 60 55 55 55 56 57 57 57 57 57 57 57 57
41 43 44 46 46 45 44 42 40 38 37 38 38 38 37 38 38 39 40 36 37 49 55 57 59 61 62 64 64 63 63 63 62 61 60 59 56 56 57 57 58 58 58 58 56 53 49 45 45
39 40 41 43 43 44 44 43 40 39 38 38 38 37 38 38 38 39 39 37 43 48 53 56 58 59 61 63 63 62 62 62 60 59 58 58 58 59 59 57 55 52 49 44 42 43 41 40 40
41 38 40 40 39 40 43 42 42 41 38 37 37 37 38 38 38 37 38 38 43 46 51 55 56 59 60 61 61 60 60 59 59 59 58 59 59 58 47 43 44 43 41 40 39 38 37 35 36
39 38 35 36 38 40 42 39 41 40 38 37 37 37 38 38 37 38 41 42 44 45 48 51 53 58 59 60 60 60 59 58 50 45 44 44 44 43 41 40 41 40 37 36 35 33 30 32 30
37 33 33 36 37 39 40 37 40 40 39 38 37 37 37 36 37 40 41 43 43 45 48 47 46 55 59 56 51 47 46 44 42 41 39 39 39 38 36 35 36 35 32 30 31 29 29 29 26
29 31 33 33 37 38 37 38 40 41 38 37 38 37 36 35 37 40 42 43 47 49 50 49 47 56 50 47 44 42 40 38 37 37 35 34 33 33 31 29 31 31 27 27 26 26 26 30 27
32 31 31 35 36 37 37 37 37 39 40 39 38 36 35 34 39 40 43 47 51 52 53 53 54 51 48 46 43 42 38 35 32 30 29 28 27 27 27 27 27 28 25 25 25 25 24 26 28
35 33 32 33 33 34 36 37 39 39 38 38 39 37 34 36 39 42 46 50 52 53 54 55 55 51 49 46 43 40 37 35 31 27 24 24 24 23 24 24 25 25 22 21 22 23 21 25 27
34 34 32 31 33 32 31 30 34 37 39 38 38 37 35 37 39 42 48 50 51 52 52 53 51 48 46 43 40 38 36 34 30 26 22 21 21 22 21 21 22 22 22 19 21 21 20 20 24
30 34 34 33 31 27 35 26 30 35 36 37 37 37 36 38 40 42 48 48 49 49 49 49 47 45 43 42 39 36 34 32 32 28 23 20 19 19 19 19 19 19 20 18 19 20 19 19 17
30 31 30 31 31 30 28 28 30 35 34 36 36 36 35 39 40 44 46 47 46 46 46 46 45 44 43 42 39 37 35 34 31 25 20 17 17 17 17 16 16 16 18 17 16 16 15 17 19
33 32 31 30 30 24 24 28 26 32 35 35 36 34 35 39 40 44 45 44 43 42 42 42 42 41 41 39 37 34 31 28 25 23 21 18 17 16 14 14 13 13 14 14 15 14 14 14 15
30 29 21 21 22 17 21 25 25 33 35 34 34 34 36 39 41 44 43 41 39 39 38 38 38 37 36 34 31 28 25 21 18 18 17 14 12 12 12 12 10 11 12 12 13 13 13 14 12
30 28 21 13 18 14 27 25 28 34 32 32 34 34 37 40 42 43 42 40 38 36 35 33 33 31 29 27 24 21 20 19 17 15 13 12 11 11 11 10 9 10 11 11 11 13 13 13 12
31 28 27 22 23 25 28 32 33 33 32 31 33 36 38 41 42 42 41 39 37 35 33 31 28 26 24 22 19 18 17 16 14 12 12 10 11 9 9 9 9 10 11 11 11 12 11 12 13
30 30 26 27 17 16 26 31 27 29 30 33 34 36 39 42 42 42 40 38 36 33 31 28 26 23 20 18 16 15 14 12 11 9 7 8 8 8 8 9 10 11 11 12 12 12 13 12 13
31 29 30 25 25 23 18 26 31 28 30 33 35 37 40 41 42 42 40 38 35 32 29 26 23 20 17 15 13 12 11 10 9 7 7 7 8 8 9 10 11 12 12 12 13 13 12 12 13
35 31 30 23 20 30 29 25 27 28 31 34 35 37 40 41 42 42 40 37 34 31 28 25 22 18 16 14 13 12 10 9 8 8 8 9 8 9 11 12 12 13 13 14 13 13 12 12 13

GFSSGP_sfc_30mbdewp_027.txt.gz
Dewpoint
65 61 48 37 30 30 24 26 28 27 31 32 32 32 33 36 33 33 55 62 66 67 71 71 71 71 69 67 66 64 62 60 59 59 62 62 58 59 60 60 59 59 58 58 59 61 62 62 61
61 54 42 36 29 21 21 27 27 28 29 32 33 32 34 41 49 52 57 63 68 70 71 71 71 71 69 68 66 64 62 60 58 57 59 61 60 59 59 59 58 57 58 58 58 58 59 60 60
55 48 37 32 30 26 20 25 28 30 29 32 33 40 41 45 51 52 54 66 69 70 71 71 72 71 69 68 66 65 63 60 58 57 57 58 59 60 59 60 57 59 58 58 58 58 57 56 57
49 43 37 31 28 31 26 27 31 29 26 33 34 37 45 47 49 52 63 67 68 69 70 71 72 71 70 68 67 65 63 62 59 59 60 60 58 61 60 60 59 60 60 59 58 58 58 58 59
45 41 34 32 31 31 31 31 31 28 26 30 31 35 43 48 53 57 64 66 66 68 69 71 71 71 70 68 67 65 64 63 60 59 60 61 62 64 61 61 61 61 60 59 58 57 57 58 59
45 40 34 29 29 31 32 33 31 26 26 32 32 40 43 49 53 56 63 64 65 66 68 70 71 71 71 68 67 66 65 64 63 60 61 61 63 63 64 62 61 61 60 60 60 60 60 59 60
45 39 35 33 30 31 31 34 33 31 27 31 33 36 42 47 52 54 60 63 64 65 67 70 71 71 70 68 68 67 66 65 64 60 61 62 62 62 64 63 63 62 61 62 62 61 60 60 60
47 43 38 36 33 32 34 35 31 26 25 34 35 36 37 42 50 53 55 64 65 67 68 69 69 70 69 69 68 67 67 65 65 63 63 63 62 60 62 65 64 63 62 62 62 62 60 60 61
48 43 39 37 36 35 36 35 36 34 31 35 35 37 37 45 52 53 56 62 64 66 67 68 68 69 68 68 68 68 67 65 64 64 62 62 61 60 60 63 65 65 63 63 62 61 61 62 63
48 44 40 41 39 37 37 36 35 35 35 35 36 39 46 51 52 52 54 57 61 63 65 67 67 67 68 68 68 67 67 65 64 63 62 61 60 58 56 59 62 62 62 63 62 62 63 63 61
48 43 43 43 43 41 40 38 39 37 35 35 35 37 42 48 52 52 52 54 58 60 62 64 66 66 67 67 67 66 65 65 63 62 61 61 61 59 58 57 57 59 59 58 58 57 57 57 57
41 44 46 46 46 45 44 41 39 38 36 38 37 38 38 40 46 50 51 51 53 55 58 61 63 64 65 66 66 66 65 64 63 63 62 60 60 58 56 56 56 57 57 56 56 57 56 48 45
42 43 43 44 46 46 46 45 44 42 42 40 39 38 38 38 38 39 40 42 43 50 56 59 61 62 64 65 64 65 64 63 63 62 61 60 59 55 55 57 58 58 57 52 45 43 42 40 40
40 39 40 40 41 43 43 43 44 42 41 40 38 38 38 38 38 38 39 39 39 37 49 57 59 61 63 64 64 63 63 63 62 61 60 58 57 58 57 51 46 43 42 41 40 39 37 35 34
41 38 38 39 39 39 41 39 41 43 44 43 41 38 38 38 38 38 38 38 38 41 47 55 58 60 62 63 64 63 62 62 59 58 59 59 58 47 44 43 41 40 39 37 34 31 31 29 27
39 38 34 35 37 39 39 33 40 42 42 41 40 38 38 38 38 38 38 39 40 43 47 54 57 59 61 62 61 60 60 55 49 48 47 46 43 42 41 40 38 34 32 31 29 27 27 25 24
36 32 33 34 37 38 39 35 37 40 41 40 40 39 38 38 38 38 39 41 43 45 48 52 56 58 60 58 54 50 46 45 43 41 41 40 38 36 36 35 33 29 27 26 27 25 28 25 22
29 33 33 33 36 37 36 36 37 38 40 40 39 39 38 38 38 38 40 42 44 46 48 48 53 57 53 47 44 42 40 38 38 36 35 34 32 30 29 30 28 26 24 23 22 23 24 30 24
34 33 31 34 35 34 34 35 37 39 38 38 39 40 40 38 37 39 41 43 48 49 50 48 54 50 49 46 43 42 39 34 31 30 28 27 27 26 26 27 25 23 21 22 22 22 21 23 26
34 33 31 33 33 32 32 31 32 33 33 39 38 39 39 38 37 39 42 47 51 51 53 53 51 49 48 46 42 39 35 31 28 26 24 23 23 23 23 23 23 22 19 19 20 20 18 20 25
32 31 29 29 30 32 31 27 24 26 31 37 40 39 39 38 37 38 43 48 51 52 54 53 50 48 45 41 38 34 30 27 24 22 21 21 21 21 21 21 20 20 20 18 20 19 17 16 19
28 32 33 32 31 25 31 21 23 26 28 32 36 39 39 37 37 39 45 49 51 52 53 50 48 45 41 40 37 35 32 28 27 22 20 19 18 18 19 18 18 19 19 16 17 17 17 18 16
29 31 32 32 30 29 27 26 24 25 25 31 36 38 38 38 38 40 46 49 50 50 50 48 45 43 41 39 37 35 33 30 25 20 17 16 17 16 16 16 15 16 16 16 15 14 13 16 16
33 31 31 31 30 23 23 24 18 17 22 32 35 37 38 37 39 43 47 48 47 47 47 45 44 42 41 39 37 35 30 26 22 19 17 16 16 15 14 13 13 13 14 13 14 13 13 13 13
31 31 22 20 21 17 20 21 20 21 28 34 34 35 37 37 40 44 46 46 44 45 44 43 43 40 38 36 34 31 28 24 21 20 17 14 12 12 11 11 10 11 12 12 12 13 12 13 12
31 30 23 14 15 16 19 17 19 24 24 24 25 31 34 38 42 44 45 44 43 42 41 41 39 36 34 31 28 25 23 22 19 17 15 12 11 11 10 9 9 10 11 12 12 13 13 13 13
31 28 29 25 21 21 23 23 26 21 29 32 33 33 34 39 42 44 43 41 40 38 37 37 34 31 28 25 22 20 19 17 15 12 12 11 11 9 9 9 10 11 12 12 12 13 12 13 13
32 30 26 27 17 14 12 17 26 25 23 22 24 32 36 40 43 43 41 38 36 34 32 31 29 27 23 20 18 17 15 13 12 11 9 8 8 9 9 10 11 12 12 13 13 13 14 13 13
31 29 29 26 22 14 12 10 12 21 26 26 29 35 39 41 42 41 39 36 34 31 29 26 24 21 18 17 15 13 11 10 8 7 8 8 8 9 10 12 12 12 13 13 13 13 13 12 13
29 28 29 22 20 21 19 19 28 29 29 31 35 39 42 42 41 40 37 35 32 30 27 23 20 18 16 14 13 11 10 8 8 8 8 9 8 10 11 12 13 13 13 14 13 12 13 13 14

GFSSGP_sfc_30mbdewp_030.txt.gz
Dewpoint
62 57 44 36 29 28 22 23 29 27 30 32 32 32 32 34 35 33 56 62 64 65 70 69 70 70 69 67 65 64 62 62 61 60 61 64 62 59 60 60 59 58 57 57 59 62 62 62 61
60 53 40 35 28 24 22 27 27 29 30 30 33 36 35 39 49 51 57 62 66 67 70 69 70 71 69 67 66 64 62 60 59 59 63 60 59 60 59 59 58 57 58 57 58 58 60 60 60
54 43 36 31 29 25 24 24 28 31 30 30 33 39 40 44 51 52 56 64 68 70 71 70 71 71 69 68 66 65 62 60 58 57 59 61 59 59 60 58 57 59 58 58 58 57 56 56 57
48 43 36 31 27 30 26 23 31 31 28 31 35 37 44 47 50 53 61 68 69 70 70 71 72 71 70 68 67 65 63 61 59 57 58 58 59 60 60 60 59 60 59 58 58 58 58 58 59
44 41 33 32 30 31 31 31 32 31 27 28 31 34 41 48 53 59 65 67 67 69 70 71 72 71 70 68 67 65 64 63 60 60 60 62 59 62 61 61 61 61 60 59 58 57 57 58 59
44 40 33 30 30 32 32 33 32 29 28 27 32 39 42 48 53 61 65 65 67 68 69 70 71 71 71 69 67 65 64 63 61 59 60 62 63 63 64 62 62 62 61 60 60 60 61 60 59
44 39 35 33 31 31 31 33 31 32 29 28 34 35 41 46 52 60 63 64 65 67 68 70 71 71 71 69 68 67 66 64 63 61 61 62 63 62 64 63 62 63 62 61 62 62 61 60 60
47 41 38 36 33 32 34 35 34 26 26 32 36 34 36 42 52 55 60 63 64 65 67 69 70 70 70 69 68 68 67 66 65 63 63 63 63 60 62 64 64 64 63 62 62 62 61 61 61
47 43 38 37 35 34 36 35 36 36 32 34 35 38 37 46 53 54 57 62 64 65 66 68 69 69 69 68 68 68 67 66 65 64 62 63 62 60 60 63 65 65 64 63 63 62 62 64 63
48 43 40 41 38 36 37 37 37 37 37 36 36 38 46 51 52 52 54 56 61 63 65 67 68 68 68 68 68 67 67 66 64 64 62 61 59 58 56 58 61 63 62 63 62 61 60 58 58
47 42 43 43 43 43 41 40 39 38 37 36 35 37 42 50 52 52 53 56 59 62 64 66 67 67 68 68 67 67 66 65 64 62 61 61 61 59 58 57 56 58 59 57 57 57 57 55 52
40 44 45 46 46 46 45 44 43 39 38 37 40 39 38 39 49 51 52 52 54 58 61 64 66 66 66 67 66 66 65 64 63 62 61 60 60 59 56 56 55 56 57 56 57 52 43 42 39
42 43 43 43 42 44 46 45 45 45 44 44 44 41 40 38 38 41 47 48 49 52 55 60 64 65 65 66 66 65 65 64 63 63 62 60 60 56 55 57 58 57 51 44 42 40 38 34 33
39 39 40 40 39 40 40 41 43 43 44 43 42 41 42 39 38 38 38 38 39 40 43 56 61 63 64 65 65 65 64 64 63 62 62 60 58 57 57 49 43 41 40 39 37 33 31 27 26
41 39 39 39 39 38 39 38 39 40 43 43 44 43 43 42 39 38 38 38 39 39 39 46 58 61 62 64 64 64 63 63 62 60 59 58 59 51 45 43 39 37 36 31 27 27 28 22 22
38 38 35 35 37 38 38 32 35 38 40 42 43 43 42 41 40 39 39 39 39 39 41 49 57 60 62 63 63 63 62 60 56 56 57 51 46 44 42 38 33 29 28 28 25 25 26 22 20
35 31 32 33 36 37 39 34 39 39 39 40 41 41 40 40 39 39 39 39 39 41 44 48 56 59 61 62 60 56 51 48 46 45 43 41 40 39 36 32 28 26 23 22 24 22 27 21 18
28 28 29 30 34 35 34 34 36 37 37 37 38 40 40 40 40 40 39 39 42 44 48 50 57 59 57 51 46 43 42 41 40 38 36 33 32 31 29 26 24 23 20 19 19 19 22 26 22
33 33 33 33 34 33 32 32 32 33 35 37 38 39 39 40 40 39 39 41 44 46 48 51 57 53 51 48 46 44 41 36 33 31 29 28 27 27 26 24 21 21 19 19 18 20 16 21 25
33 31 29 31 32 32 31 30 31 32 32 34 37 38 40 40 39 38 39 43 47 47 49 52 53 51 50 48 44 41 36 31 29 26 25 24 24 24 23 21 20 19 18 18 18 15 14 17 24
30 29 29 28 28 30 29 26 22 23 26 29 30 32 36 40 40 39 39 43 48 49 51 51 50 49 46 42 37 31 28 26 24 22 22 22 22 21 20 20 19 19 19 17 17 16 15 12 17
28 31 31 30 29 24 31 19 21 23 23 25 27 31 37 39 39 39 39 44 48 51 53 51 49 46 42 39 37 36 34 28 24 22 20 19 19 19 19 18 18 18 17 15 16 16 17 15 14
29 31 31 31 31 30 28 26 22 23 22 23 26 32 35 37 39 38 39 42 49 51 52 49 46 44 41 39 38 36 32 26 22 19 17 16 16 16 16 15 15 15 16 15 13 13 13 16 14
33 31 31 33 31 23 23 24 18 17 17 17 22 29 34 38 39 39 41 47 49 50 49 46 44 42 40 38 36 34 28 21 18 17 15 15 16 15 13 13 12 13 14 13 13 13 12 13 12
34 31 23 21 21 18 21 23 20 19 20 22 23 29 35 37 38 41 44 47 48 49 47 45 43 41 39 37 35 30 24 21 18 17 15 13 12 12 10 10 10 12 13 13 13 13 12 13 12
30 30 23 15 15 15 20 17 17 21 22 23 24 27 30 36 39 42 45 47 48 48 46 44 42 39 37 34 31 26 23 22 20 17 14 13 11 11 10 10 10 11 12 12 12 14 13 13 13
31 28 29 26 26 22 21 21 24 24 22 24 28 27 25 29 38 43 46 47 46 45 44 43 39 35 33 29 25 23 21 20 17 13 13 11 11 10 9 10 11 12 12 13 13 13 13 13 13
32 33 26 27 17 15 16 16 15 18 15 15 21 22 26 35 40 44 46 44 43 41 39 37 34 31 26 23 21 19 16 14 12 11 10 9 9 9 10 11 12 12 13 13 13 13 14 13 13
31 29 30 28 26 16 11 9 12 11 13 26 31 28 26 36 41 44 42 40 37 35 34 31 27 25 21 19 16 14 12 10 9 8 8 8 9 10 11 12 12 13 13 14 13 13 13 13 14
30 29 28 22 20 22 18 15 18 22 28 30 33 35 36 40 43 41 37 35 34 32 29 27 23 20 18 15 13 11 9 8 8 8 8 9 10 12 12 13 12 13 14 14 12 12 14 15 15

GFSSGP_sfc_30mbdewp_033.txt.gz
Dewpoint
60 56 43 37 31 29 22 21 30 28 30 32 31 32 33 34 37 35 57 62 63 66 71 70 71 70 68 66 65 64 63 63 60 60 61 66 62 60 60 60 59 58 57 58 60 63 63 62 62
58 50 40 35 28 25 24 26 27 30 31 31 33 37 35 38 48 51 57 61 65 68 70 68 71 70 68 67 65 64 63 62 60 60 62 64 59 60 59 58 57 58 58 57 58 59 60 60 60
51 42 36 31 29 25 24 25 29 31 32 29 33 39 38 42 50 51 57 63 66 68 70 68 71 71 69 67 66 64 62 60 59 59 64 61 59 59 59 57 58 60 58 58 58 57 56 57 57
48 43 37 31 27 30 27 24 30 31 30 31 34 37 44 47 50 53 61 66 66 69 70 70 71 71 69 68 66 65 62 61 58 58 59 60 59 59 60 60 59 61 59 58 58 58 58 58 59
45 41 33 31 30 30 31 32 32 31 30 27 31 33 41 49 54 58 64 67 66 69 70 69 72 71 70 68 67 65 63 61 59 59 60 59 59 61 61 61 60 61 60 59 58 58 58 58 59
43 39 33 30 31 32 33 33 33 31 30 28 32 37 41 49 54 63 66 67 68 69 70 70 71 71 70 69 68 66 64 63 61 60 61 62 63 64 63 63 62 62 61 60 60 61 61 61 60
42 39 34 33 31 31 31 33 31 31 32 29 35 35 40 45 53 63 65 66 67 68 69 69 70 70 71 69 68 67 65 65 62 61 61 62 63 61 65 64 63 63 62 62 62 62 62 60 61
45 40 37 35 32 32 33 34 35 28 29 31 36 34 35 43 54 62 63 63 65 67 68 69 70 70 69 69 68 67 67 65 65 63 62 63 62 60 64 64 64 64 63 63 63 62 62 62 63
46 42 38 36 35 33 36 35 37 37 34 37 35 36 41 49 54 59 61 62 63 65 66 69 69 70 69 69 68 68 67 66 66 63 63 63 63 61 59 63 65 65 65 64 63 63 63 61 60
47 43 40 41 38 36 37 37 38 37 37 37 37 38 44 51 53 54 56 58 62 63 65 67 69 69 69 68 68 67 67 65 64 63 62 61 60 58 57 57 60 62 62 62 60 60 59 58 57
47 42 43 43 43 44 44 42 40 39 38 38 36 37 39 48 52 52 54 55 58 62 64 66 67 69 69 68 67 67 66 66 64 63 61 61 60 59 58 57 57 58 59 58 57 58 52 45 44
41 44 45 45 45 45 45 45 45 43 41 39 39 42 41 41 41 52 52 53 56 59 62 65 66 67 68 68 67 67 66 65 64 62 61 60 60 60 57 57 57 57 57 57 54 45 40 38 36
43 42 43 43 41 41 44 43 44 44 46 45 46 45 44 42 41 40 47 52 53 54 58 63 66 66 67 67 67 66 66 64 64 62 61 60 60 58 56 58 57 54 47 44 41 39 35 29 26
40 40 40 40 39 40 40 39 42 41 45 45 45 45 43 42 42 41 39 39 42 44 47 56 62 65 66 66 66 66 65 64 64 63 62 61 60 57 56 46 43 41 40 36 35 31 27 23 22
41 38 38 39 39 38 39 37 38 40 41 40 42 44 44 45 44 42 41 40 40 40 41 45 56 63 65 65 65 65 65 64 63 63 62 61 58 54 47 42 38 37 34 28 27 28 25 22 19
37 37 33 35 37 38 37 29 35 37 39 40 40 40 41 42 42 43 42 41 40 40 40 42 51 60 63 64 64 64 64 64 62 61 60 58 52 47 43 38 33 30 29 28 24 26 26 21 20
35 30 32 32 35 37 38 34 37 39 38 38 39 42 43 43 43 43 42 41 40 40 41 42 53 59 61 63 63 63 62 60 56 54 50 46 44 41 37 32 28 25 24 24 22 23 26 19 19
28 31 30 29 31 34 33 33 34 35 35 35 36 38 39 40 41 42 42 41 40 41 43 46 52 59 61 62 57 52 51 49 46 43 40 39 38 34 31 27 24 23 22 20 21 18 23 21 21
32 32 30 32 33 33 31 31 32 33 33 33 33 34 35 39 40 41 41 41 40 42 46 49 56 59 57 54 52 50 47 44 38 35 32 31 30 28 25 23 22 22 20 18 17 20 18 19 21
33 32 28 29 30 31 30 29 29 30 30 30 30 32 34 34 39 41 40 40 41 43 47 52 57 55 55 54 51 48 45 39 34 30 27 27 27 25 23 22 21 21 20 18 17 18 17 18 22
31 30 30 29 29 29 28 24 20 21 25 27 29 31 32 33 36 39 40 40 42 46 48 51 54 52 51 45 42 38 36 33 29 25 24 24 23 22 22 22 20 21 21 18 19 19 17 15 20
28 30 30 29 28 23 29 17 17 19 20 21 24 27 29 31 33 36 39 40 42 46 51 51 51 49 46 43 42 42 42 37 30 24 22 21 21 21 20 20 19 19 19 18 17 17 18 17 14
28 30 29 30 30 28 26 24 20 23 22 22 23 23 27 30 33 37 39 40 43 49 51 51 49 46 43 43 43 44 43 32 23 20 18 18 19 19 18 18 18 17 17 16 16 16 16 16 13
32 31 31 32 30 23 23 25 20 20 19 19 21 22 25 31 34 38 40 41 45 50 51 49 47 44 42 42 40 38 34 23 19 18 16 16 17 16 16 16 17 16 16 16 17 16 16 15 14
31 31 22 21 21 18 20 24 21 21 22 23 21 21 23 28 35 38 40 43 47 50 50 47 45 43 40 39 37 32 26 22 19 17 16 15 13 13 13 14 14 15 17 17 17 16 16 15 14
30 30 22 16 15 15 20 20 19 23 23 22 22 23 26 29 34 38 41 45 47 50 48 46 44 41 39 37 32 27 23 22 19 17 16 14 13 12 12 13 14 14 15 15 15 16 16 15 15
31 28 29 25 24 23 21 20 21 22 23 23 23 25 27 27 29 34 42 46 48 49 47 45 42 39 37 32 27 25 23 22 19 16 15 13 12 11 12 13 14 14 15 15 15 14 14 15 15
33 32 26 27 17 15 18 20 17 17 15 14 19 31 32 30 30 36 43 46 48 48 45 43 39 36 32 28 25 22 20 17 15 14 12 12 11 11 13 14 14 14 14 14 14 14 15 14 15
31 29 30 28 26 17 13 12 15 13 13 15 30 32 35 35 33 38 45 46 45 42 41 37 33 30 26 23 19 17 15 13 12 10 10 10 11 13 13 13 13 14 14 14 13 12 14 15 16
28 28 28 24 20 25 22 18 18 19 23 29 24 34 39 40 40 43 42 39 39 37 35 33 29 25 21 18 16 13 12 10 9 9 10 11 12 13 13 13 13 13 14 13 11 12 15 17 18

GFSSGP_sfc_30mbdewp_036.txt.gz
Dewpoint
56 51 45 39 30 28 24 18 28 28 29 33 31 32 33 34 38 35 57 60 61 63 67 70 71 70 68 66 64 63 63 62 61 61 63 66 64 62 61 60 58 57 57 59 62 64 63 63 62
53 45 42 35 26 23 20 24 24 30 31 32 32 33 34 35 44 51 54 60 61 64 67 68 71 70 68 66 65 64 63 62 60 61 62 64 60 60 60 58 58 59 58 57 58 60 60 59 59
51 42 36 31 27 23 22 26 25 31 30 30 33 38 37 40 48 50 56 60 62 65 65 66 71 70 68 67 65 64 63 61 60 62 65 62 60 59 57 58 60 59 58 58 57 57 57 58 58
47 41 36 29 24 27 27 25 31 31 30 31 33 35 41 47 49 52 57 61 62 64 65 70 71 71 69 68 66 64 62 60 59 62 62 60 59 59 60 59 61 59 58 58 58 58 58 58 59
45 39 29 28 25 27 29 30 30 30 30 29 29 33 38 48 52 55 59 61 61 63 64 67 71 71 69 68 66 65 62 61 59 59 60 60 60 60 61 61 61 60 59 59 59 59 60 60 59
40 37 27 24 24 28 30 30 31 30 30 30 28 30 36 49 53 58 61 61 62 63 65 66 70 70 70 68 67 66 63 61 60 60 61 60 60 62 64 62 62 62 60 60 61 62 61 61 60
35 32 24 24 24 26 29 31 30 29 29 30 32 31 37 45 54 60 61 61 63 63 65 65 66 68 70 69 68 67 65 64 62 61 62 62 63 61 65 64 63 63 61 62 63 62 62 61 62
40 34 26 30 24 26 29 31 31 31 28 30 34 29 33 44 56 60 60 61 62 63 63 64 65 66 67 68 68 67 66 65 64 62 62 63 62 59 65 64 64 63 63 63 63 62 63 64 64
47 32 27 27 28 28 34 31 31 36 34 36 34 35 41 46 55 58 59 60 61 62 62 63 64 65 64 65 67 67 67 66 65 62 62 62 59 58 60 64 65 65 64 64 63 63 62 59 60
41 34 29 32 33 32 33 34 36 35 33 33 36 38 42 48 52 55 56 56 58 60 61 63 64 64 65 64 66 65 64 63 61 58 57 58 58 58 56 59 61 63 61 61 60 60 58 58 55
41 36 35 40 39 41 39 39 39 35 34 35 34 36 40 42 48 51 52 52 55 58 60 62 64 65 65 64 65 64 63 62 60 58 56 55 55 55 54 56 55 57 58 57 58 58 51 48 47
39 39 40 40 43 43 42 41 41 39 35 36 40 40 42 42 42 46 49 50 52 56 60 62 64 66 66 64 64 63 62 62 60 58 57 56 54 55 55 55 56 56 56 57 54 49 45 42 39
38 36 38 39 41 39 38 38 38 38 40 42 43 43 43 43 43 42 43 50 51 53 56 60 63 65 66 65 63 62 62 62 61 58 58 57 57 57 56 56 56 57 53 49 47 44 40 37 32
38 39 39 39 39 38 37 36 36 36 36 36 37 38 40 41 42 42 42 41 42 48 51 55 60 63 64 65 63 62 62 62 62 59 59 59 59 58 57 54 50 45 44 43 41 38 34 28 23
40 37 36 35 35 36 37 33 33 35 35 34 34 35 36 37 39 41 42 42 41 40 41 43 52 60 62 64 63 63 62 63 62 60 60 60 60 58 52 45 43 40 37 35 34 31 26 24 21
35 34 30 33 35 35 35 26 28 33 34 35 35 34 34 36 37 38 42 42 43 42 41 42 43 51 58 61 63 62 62 62 62 62 62 61 59 52 48 45 42 38 35 31 26 26 26 23 22
33 28 30 31 33 34 34 31 34 37 35 35 35 36 37 38 37 36 37 40 42 42 42 42 43 45 51 57 61 62 62 62 63 62 61 59 53 47 43 40 36 32 28 26 22 26 23 20 19
24 27 28 27 29 31 30 30 32 34 33 34 35 35 35 37 38 39 40 40 40 41 41 42 43 47 52 56 60 61 62 63 62 59 54 50 45 42 37 34 29 26 25 24 22 21 21 19 18
30 29 28 29 30 29 28 28 29 30 30 29 30 30 31 33 35 37 39 40 42 42 42 42 44 48 54 57 59 60 60 58 55 51 48 42 38 33 33 27 26 25 23 21 19 19 20 19 19
31 29 28 28 28 28 26 24 24 24 24 25 25 25 24 25 28 30 35 38 41 41 42 44 47 51 55 57 57 57 56 52 47 42 39 38 35 28 28 26 24 24 21 20 19 19 18 18 20
30 29 27 27 27 26 25 22 20 19 20 21 24 24 25 24 24 25 28 35 39 41 42 45 49 54 56 56 56 53 46 41 38 34 33 31 28 25 26 24 23 22 21 20 20 20 17 17 19
25 27 28 26 26 22 27 18 20 20 20 20 20 21 24 25 27 27 27 30 35 40 44 47 51 54 56 55 51 49 50 46 41 36 33 29 28 26 22 22 21 21 20 19 18 18 18 16 16
27 29 28 27 26 25 25 25 19 22 21 21 21 21 22 24 25 26 29 30 33 40 46 49 52 54 53 51 51 52 50 46 39 33 26 23 22 21 20 19 19 18 18 17 17 18 17 16 13
31 30 29 28 28 23 22 24 18 16 18 19 19 20 20 21 24 27 29 32 34 40 49 51 51 51 51 51 51 52 48 40 33 24 22 22 22 20 18 18 18 17 17 18 18 18 18 15 14
31 31 21 21 22 17 17 17 20 17 20 21 19 19 21 22 23 26 33 35 38 41 50 51 50 50 50 50 50 50 43 39 33 24 21 19 18 17 17 16 15 17 18 19 18 18 17 16 14
30 28 20 14 10 12 19 17 15 18 20 21 21 22 23 24 27 27 32 38 40 43 48 50 49 48 48 48 47 44 38 31 24 22 19 19 17 16 16 15 15 15 16 16 17 17 16 16 15
31 28 28 25 24 21 17 15 17 17 18 20 20 20 24 27 26 29 29 36 42 45 49 49 48 47 46 46 40 32 28 23 23 19 20 16 16 14 14 14 14 15 15 15 15 13 13 13 14
31 29 26 27 16 12 12 13 13 15 16 18 18 21 26 28 29 33 32 35 41 46 49 49 47 45 44 41 36 29 25 23 20 19 17 15 13 12 14 14 14 14 15 14 14 13 13 12 13
30 29 30 25 22 17 13 12 13 14 14 15 15 24 26 32 34 37 35 38 44 47 49 47 45 42 39 36 32 25 20 20 20 18 16 14 12 13 13 13 13 13 13 13 11 11 12 13 15
25 25 26 24 20 24 22 20 20 18 17 22 23 22 28 35 39 41 40 43 46 47 46 44 41 38 34 30 26 21 17 16 16 15 13 12 12 12 12 12 12 12 12 11 9 9 13 15 16

GFSSGP_sfc_30mbdewp_039.txt.gz
Dewpoint
58 48 44 40 31 28 24 23 20 26 25 27 32 32 33 35 36 37 55 58 57 62 65 69 71 70 68 67 65 63 63 63 63 64 67 65 65 63 61 59 57 57 58 61 63 64 64 63 62
53 44 41 35 28 24 22 23 20 23 29 31 31 32 33 34 41 52 54 58 58 62 66 69 71 70 68 66 64 64 63 62 61 61 65 63 62 61 59 58 60 59 58 58 60 60 60 59 58
52 43 36 32 28 23 21 24 21 28 30 31 30 35 36 38 45 49 55 58 59 62 65 69 71 70 68 66 65 64 64 61 61 62 64 61 59 57 58 60 60 58 58 58 57 57 57 58 59
45 40 35 30 26 24 23 25 24 27 29 31 33 33 38 46 47 51 56 57 59 61 64 71 71 70 68 67 65 64 62 60 62 65 63 60 59 59 59 61 60 58 58 58 58 58 58 59 59
45 37 31 26 23 23 26 26 27 27 28 29 31 32 37 47 51 55 57 57 58 60 64 69 71 70 69 67 65 64 62 60 60 63 62 59 59 60 61 61 62 59 59 59 60 61 61 60 60
38 34 27 23 23 23 24 27 28 28 27 28 29 31 36 49 51 55 57 56 58 60 62 67 71 70 69 68 66 65 63 61 60 61 61 60 61 62 62 62 63 61 60 60 61 62 61 61 61
37 32 26 24 21 21 23 28 27 27 26 27 29 29 35 43 54 56 57 56 58 60 61 65 68 69 70 69 68 66 64 63 61 61 62 63 63 61 63 64 63 62 61 62 63 62 62 62 62
39 34 28 25 20 21 23 27 29 27 27 30 31 27 30 46 55 56 56 57 58 59 60 62 64 67 67 67 68 67 66 64 64 63 63 63 61 61 65 65 64 63 62 63 63 63 64 64 63
44 35 28 26 22 24 27 27 30 30 30 31 30 31 41 44 54 55 55 57 58 59 59 60 61 64 65 66 67 67 67 65 64 62 63 62 59 58 62 64 65 64 64 63 63 62 61 59 60
41 33 27 24 24 25 28 30 29 30 31 29 32 34 40 45 50 53 53 54 56 58 58 59 60 61 61 64 67 65 64 63 61 57 58 58 56 57 58 63 65 64 62 62 60 59 59 59 56
38 34 29 28 36 36 33 31 33 33 31 28 28 33 37 41 45 50 51 51 54 56 58 59 60 61 60 60 66 64 64 62 60 57 54 55 56 57 55 58 58 59 58 58 58 58 53 51 49
36 36 34 34 37 40 39 36 34 34 33 32 33 38 40 40 40 44 47 48 49 53 57 59 61 62 61 61 61 63 62 60 59 57 53 53 52 52 52 53 54 55 55 55 55 51 48 46 43
36 35 33 36 38 38 39 37 36 36 37 37 37 38 40 40 40 41 41 46 47 50 54 58 60 62 63 62 61 60 59 60 60 57 55 54 52 53 54 54 54 55 55 52 51 48 45 42 38
36 36 35 36 36 36 36 35 34 33 33 33 35 36 37 39 40 40 41 41 46 47 51 55 59 61 63 63 61 60 59 60 61 58 57 56 56 56 55 55 54 51 50 49 46 43 40 35 27
38 36 36 35 35 34 35 33 33 34 33 32 32 32 32 33 35 38 39 41 42 43 47 49 54 59 61 62 62 60 60 60 61 59 57 57 59 57 57 53 50 46 43 41 41 36 30 27 26
35 34 31 30 32 32 33 28 27 29 31 31 31 31 31 31 32 33 36 40 42 42 40 42 44 52 57 59 61 60 60 60 62 60 58 59 60 58 52 51 49 45 42 39 34 30 29 27 24
32 28 28 27 31 31 33 31 29 35 33 30 32 32 32 32 32 32 34 36 41 42 42 42 42 44 50 56 58 60 59 60 62 61 60 60 60 54 51 50 46 42 38 33 27 29 25 23 23
26 27 27 26 27 30 29 28 29 29 31 32 32 33 33 32 34 36 35 34 35 39 42 42 42 44 44 49 54 58 59 61 62 62 61 61 56 51 48 43 39 37 33 29 27 25 24 22 21
26 27 25 26 28 28 27 26 26 27 27 28 29 30 30 31 33 34 36 38 38 38 40 41 41 43 45 49 53 57 58 63 63 62 61 56 51 45 41 37 35 32 29 27 24 23 24 23 22
29 28 26 26 27 27 25 24 24 24 24 24 24 25 27 27 28 29 32 35 37 38 40 41 41 43 46 51 55 57 60 59 58 57 55 51 46 40 35 32 31 28 26 24 23 24 23 22 22
29 27 26 25 26 25 23 22 20 21 22 22 23 24 24 24 24 24 25 29 35 37 39 41 42 44 48 52 56 58 54 49 46 46 46 44 41 34 32 30 29 27 27 26 25 24 21 21 22
26 26 25 25 25 22 26 20 20 19 19 20 20 21 21 23 23 24 24 24 26 34 41 43 43 46 51 55 56 57 53 49 45 43 42 39 34 32 29 27 26 26 25 25 23 22 22 19 20
26 29 27 27 26 26 24 23 21 17 17 20 21 21 21 22 22 23 25 27 28 30 40 45 45 48 54 56 56 55 50 50 43 40 38 35 32 30 27 25 25 24 23 20 21 21 19 18 15
30 28 28 27 27 24 21 20 16 14 11 13 17 20 19 20 21 22 24 26 29 33 39 46 48 51 54 56 53 52 52 46 39 36 33 32 31 28 24 23 23 22 22 22 21 21 21 18 16
29 29 22 23 22 17 15 15 16 16 17 17 18 18 20 19 21 20 21 26 29 33 36 46 49 51 54 53 52 52 53 44 40 34 33 31 26 26 23 22 21 22 22 22 21 21 21 18 17
28 27 21 14 8 11 17 15 15 16 16 18 19 19 19 21 20 26 27 27 34 36 38 45 49 50 51 52 52 53 48 44 41 36 32 26 26 23 22 21 20 19 19 19 19 20 18 18 17
28 27 27 24 21 19 15 14 16 17 16 16 16 17 19 20 23 26 28 31 29 37 40 46 49 49 50 51 52 50 45 42 37 32 26 23 22 20 19 19 17 17 17 17 17 15 15 15 15
29 28 25 27 18 13 12 12 12 14 15 15 16 16 19 24 25 28 32 35 30 37 42 46 48 48 49 50 49 46 38 31 25 24 23 21 18 18 18 17 17 16 16 16 15 15 15 13 14
29 28 27 24 24 17 15 14 16 18 20 18 15 15 21 23 29 32 36 38 34 38 45 47 48 47 48 45 38 34 29 26 23 21 20 18 17 17 17 16 15 15 14 14 13 12 12 13 15
26 27 26 24 19 23 25 22 23 22 22 22 23 23 22 24 26 37 39 40 39 43 47 48 47 46 44 38 32 28 24 22 21 20 19 20 17 16 15 14 13 13 13 11 10 10 12 14 16

GFSSGP_sfc_30mbdewp_042.txt.gz
Dewpoint
61 54 46 43 36 32 28 28 22 24 24 25 31 31 31 33 42 46 57 58 66 67 70 71 71 70 68 67 66 65 64 65 66 67 66 65 64 63 60 57 57 60 62 64 64 64 64 63 62
59 52 43 40 33 28 27 27 22 20 28 31 31 30 30 36 51 53 57 57 64 66 69 70 71 70 68 66 64 64 63 63 62 64 67 65 63 61 59 61 59 58 58 61 61 61 60 60 59
57 50 40 36 32 28 25 25 23 25 29 29 30 30 32 42 49 53 57 58 63 66 68 70 70 69 67 65 65 64 63 61 61 62 63 62 61 58 61 60 58 58 58 57 58 58 59 59 59
48 44 38 31 29 29 28 26 25 27 27 30 31 31 40 48 47 55 57 58 61 65 69 71 70 69 68 67 65 64 62 61 63 64 62 60 58 60 61 60 58 58 58 58 58 58 59 59 60
46 43 34 28 28 29 28 25 26 27 26 29 32 31 43 49 53 56 56 58 60 68 70 71 70 69 68 66 65 63 61 61 65 64 62 61 60 61 62 62 59 59 60 60 61 61 61 60 60
41 38 31 30 29 27 25 24 27 28 27 27 28 29 45 50 53 55 56 57 60 69 69 70 70 70 69 67 66 64 61 61 64 63 61 60 61 62 63 63 61 60 60 61 62 62 61 61 61
39 36 31 28 27 24 24 24 26 27 27 27 28 28 43 50 55 56 56 56 59 65 68 69 70 70 69 68 67 65 64 62 63 63 62 63 64 63 63 64 63 61 61 62 63 62 62 62 63
39 38 35 31 27 25 25 23 28 27 27 29 31 28 39 53 55 56 55 56 58 61 66 67 68 69 69 68 67 66 65 64 63 64 64 64 61 60 65 65 64 62 62 63 63 63 64 64 63
41 38 34 32 29 27 24 26 29 30 29 29 30 30 42 50 55 55 56 57 58 60 61 65 67 68 67 67 68 67 66 64 64 64 63 62 61 61 64 64 64 64 63 63 63 63 62 61 60
42 39 37 33 29 28 26 27 28 29 29 30 31 36 43 45 53 55 55 56 57 58 59 60 64 67 67 66 67 66 66 65 63 62 62 62 60 61 63 64 65 65 64 63 61 60 59 60 59
38 38 33 31 29 37 36 34 31 31 30 31 29 31 38 44 46 52 53 54 56 58 58 59 60 64 64 66 67 65 64 64 62 59 60 59 58 58 61 63 64 63 60 60 60 59 57 49 48
35 36 36 35 35 38 38 37 37 33 33 34 34 35 39 39 42 45 49 51 54 56 58 59 60 61 60 67 66 65 64 63 61 59 56 56 57 57 56 58 59 60 58 58 57 53 48 46 41
35 35 35 35 36 36 39 38 38 37 37 36 36 36 37 40 40 40 45 46 48 54 57 59 60 61 61 61 65 64 63 63 60 58 54 54 53 53 54 55 56 56 56 52 52 49 45 39 35
35 35 35 34 33 35 34 35 36 34 33 34 35 36 37 38 40 41 40 41 44 48 56 58 59 62 62 62 61 62 62 61 60 58 55 54 54 53 55 55 53 52 52 50 46 41 38 32 27
37 36 36 36 35 35 35 33 34 35 35 34 32 32 33 34 36 38 40 41 42 43 52 55 58 60 63 63 62 61 60 61 61 58 57 56 57 57 57 55 52 48 46 43 40 35 30 30 28
37 37 35 33 35 34 34 30 31 32 33 33 33 32 32 33 33 34 35 38 40 42 44 51 56 59 61 63 63 62 61 61 62 59 58 57 59 58 53 51 48 44 43 39 34 32 30 28 26
34 30 30 30 32 31 32 31 32 33 33 32 32 31 31 31 32 32 32 34 37 41 43 43 51 56 59 60 62 62 60 62 62 61 59 59 60 56 52 52 48 45 39 34 31 27 26 24 24
29 30 30 28 30 31 30 30 31 30 30 30 33 33 33 33 33 33 33 32 35 38 42 43 44 44 48 57 59 61 60 61 62 61 60 60 59 54 52 47 44 39 34 30 30 26 25 24 23
31 27 26 26 27 27 27 27 27 28 27 27 28 29 31 32 34 34 35 36 36 35 37 43 44 44 44 46 54 58 59 62 62 62 61 60 54 52 46 42 38 35 31 29 26 27 26 23 23
28 27 27 28 27 26 25 25 26 26 25 25 26 27 28 30 31 31 32 35 37 38 38 38 42 44 44 45 50 55 61 61 62 62 60 55 52 45 40 38 34 31 27 25 24 25 24 24 23
29 28 28 26 26 26 25 23 23 23 24 24 24 25 25 25 26 28 29 30 34 36 38 39 41 42 45 47 56 56 53 52 53 53 52 49 46 42 36 34 31 28 28 27 26 25 25 24 23
27 28 27 25 25 23 26 22 22 21 21 21 21 23 24 24 25 25 25 26 28 32 37 38 40 43 45 49 56 56 57 56 50 49 47 45 43 38 35 34 32 30 29 26 25 26 23 23 21
26 29 28 27 26 26 25 23 22 19 18 18 20 22 22 23 24 24 25 26 26 28 35 39 40 44 46 51 56 56 54 49 47 43 41 40 38 36 33 31 27 27 27 22 23 22 20 19 19
30 28 28 28 27 23 24 22 20 15 15 16 18 21 22 22 21 23 22 24 28 31 31 35 44 44 50 54 57 55 51 46 43 40 39 37 35 33 31 28 28 26 24 24 24 23 20 18 17
28 27 24 24 22 16 17 22 18 15 16 17 17 18 20 21 20 22 22 24 28 28 33 35 42 46 53 56 56 52 51 45 42 40 39 35 33 31 29 27 25 25 25 24 24 23 21 20 20
27 27 23 19 17 19 20 17 16 18 19 17 17 18 19 20 21 22 26 28 30 32 33 35 45 49 54 56 54 52 45 42 40 38 36 34 31 30 29 26 25 23 23 23 23 22 21 20 20
27 26 28 24 21 19 16 13 14 16 16 16 17 18 19 20 21 25 28 32 34 35 37 37 46 50 54 54 53 49 44 41 38 36 35 33 31 27 27 25 21 20 20 20 20 19 17 16 18
28 28 25 25 17 16 15 14 14 16 21 23 21 19 20 21 25 27 34 37 39 39 37 39 47 50 52 52 50 46 43 39 37 34 31 26 24 22 21 19 19 18 18 17 17 16 15 14 16
28 27 26 25 25 19 17 16 20 22 23 24 25 24 23 23 26 28 37 38 41 41 39 42 48 50 51 51 46 35 30 30 30 27 24 21 22 20 19 18 18 17 16 15 15 13 14 13 15
28 27 26 22 19 22 24 22 24 23 23 26 25 24 24 23 25 28 39 39 41 40 44 45 48 49 42 38 32 30 26 23 23 22 20 21 21 21 18 17 16 15 14 12 11 11 11 14 16

GFSSGP_sfc_30mbdewp_045.txt.gz
Dewpoint
62 58 54 45 35 35 30 31 32 26 24 30 31 30 30 37 40 42 58 65 68 70 71 71 71 70 69 68 68 68 68 68 68 67 65 64 64 61 58 57 61 64 64 65 65 65 64 63 62
61 56 47 40 35 30 29 30 29 25 30 30 30 30 30 46 52 56 62 67 68 70 70 71 71 70 68 67 65 65 65 65 67 67 66 65 63 60 60 59 59 61 63 63 63 62 61 60 60
59 56 42 38 33 30 29 28 26 28 29 29 29 31 33 46 53 56 59 67 68 69 70 71 70 69 67 65 64 64 63 62 63 68 65 64 61 61 59 58 58 58 59 61 61 61 60 59 59
52 46 41 33 32 31 29 28 28 27 28 30 32 31 45 51 53 57 61 66 67 68 70 71 70 69 67 67 65 63 62 62 63 65 64 61 60 61 59 58 58 58 58 58 59 59 59 60 60
49 44 36 32 29 31 31 31 28 27 27 29 32 31 46 54 57 57 60 66 66 69 70 70 70 68 68 67 66 63 62 63 65 63 61 59 61 62 61 59 60 60 60 60 61 61 61 60 61
43 41 35 32 32 30 29 29 27 27 28 28 29 29 46 54 55 56 58 66 69 69 69 70 70 69 68 67 65 63 63 66 67 64 62 60 62 63 63 61 60 60 61 62 62 62 61 61 62
40 37 33 31 31 30 30 29 26 27 27 27 28 28 48 52 56 56 57 69 69 69 69 69 69 69 68 67 66 64 63 66 65 64 63 62 64 64 64 63 61 61 61 63 62 62 62 62 63
40 39 36 33 29 28 29 26 28 28 27 29 31 29 50 54 56 56 56 67 68 68 69 69 69 69 68 67 66 65 64 64 65 65 64 64 63 64 65 65 63 62 62 64 63 63 63 63 63
41 37 35 35 34 32 32 29 29 30 28 30 31 39 49 55 56 55 56 60 66 67 68 68 69 69 68 67 67 66 64 63 64 65 64 63 61 61 64 65 64 63 63 63 63 63 63 62 60
39 38 38 37 35 33 32 35 32 29 29 29 30 43 47 54 55 55 56 57 60 65 66 67 68 68 68 67 67 66 65 64 63 64 63 62 61 63 65 64 64 64 64 64 62 61 61 60 59
38 39 40 40 37 36 37 35 37 33 30 29 29 35 43 51 54 55 56 57 57 59 63 67 67 68 67 67 67 66 65 63 63 62 62 61 60 63 64 64 64 64 63 62 61 61 59 56 54
37 38 38 38 37 37 38 40 39 38 34 37 36 35 38 43 49 53 54 56 57 58 59 62 67 67 66 67 66 65 64 64 62 60 60 59 58 62 62 63 62 62 60 59 59 58 49 45 39
36 36 37 37 36 35 36 37 38 38 39 38 36 37 37 38 40 43 48 51 55 58 58 59 64 64 65 66 65 65 64 63 62 60 58 57 58 57 58 58 59 60 58 57 55 49 43 37 30
34 35 36 37 37 36 34 35 35 36 36 35 34 34 35 36 39 40 41 42 46 55 58 59 60 62 65 66 65 64 63 63 62 59 56 55 56 55 55 56 57 57 55 52 47 41 36 29 27
38 36 37 36 37 36 36 34 34 36 36 36 36 35 33 34 35 38 40 41 41 43 57 59 60 61 62 64 64 64 63 62 61 58 55 54 54 53 55 55 52 50 47 40 36 32 30 29 27
35 36 34 35 35 36 35 31 33 35 35 35 35 35 34 34 34 34 35 37 39 41 51 59 59 62 62 62 62 63 62 62 62 57 56 55 55 55 56 53 50 45 43 39 35 31 30 27 25
35 31 32 34 33 34 34 32 33 34 33 32 33 34 34 34 34 33 34 34 35 38 41 55 59 60 62 63 63 62 61 61 61 58 57 57 58 56 54 51 47 44 38 34 31 28 27 24 23
31 32 31 30 31 32 31 32 32 32 32 31 30 32 33 33 33 33 33 33 34 35 38 42 55 58 61 63 63 63 61 61 61 59 57 59 58 54 52 50 47 41 34 32 28 25 25 24 22
34 33 28 28 29 27 27 29 29 29 30 30 30 30 30 31 34 35 35 34 33 33 36 39 44 57 59 60 62 62 61 61 61 61 59 60 57 53 51 48 42 36 31 30 26 26 24 21 23
34 30 27 28 28 26 26 25 25 26 27 27 27 28 29 29 30 32 33 34 35 36 36 36 43 48 54 57 59 61 61 62 62 62 61 59 54 52 48 43 38 34 31 27 26 25 24 23 22
29 28 28 28 27 26 25 21 22 25 25 26 26 26 27 28 29 30 30 31 31 33 36 37 39 44 44 46 55 56 57 57 59 59 57 53 51 48 45 39 35 31 28 26 25 26 25 23 21
27 28 28 27 25 21 27 20 24 20 20 21 23 25 25 26 26 27 27 28 29 30 33 37 38 40 44 48 52 56 58 59 57 55 49 49 47 45 43 37 34 31 30 27 26 26 25 25 21
28 29 28 28 27 26 25 22 22 24 19 19 20 21 24 25 25 25 25 26 26 26 27 32 37 39 42 47 52 55 58 55 51 49 46 46 44 42 40 37 36 31 30 27 24 22 21 22 21
29 28 28 28 26 21 23 22 16 18 16 18 18 20 22 23 23 24 25 26 27 29 29 32 36 39 42 47 55 55 54 51 49 46 45 43 43 40 37 35 35 35 31 28 24 21 19 18 17
29 26 22 21 22 16 22 23 21 19 19 18 17 18 21 21 21 20 22 25 29 30 30 32 34 37 42 49 56 55 52 51 49 45 44 41 38 36 34 31 33 31 29 28 25 21 20 20 18
28 26 21 15 19 19 21 20 19 20 21 20 19 19 19 20 20 22 24 30 34 36 36 37 34 38 45 55 55 52 49 49 47 45 43 41 37 36 32 31 31 29 30 28 25 22 21 20 20
28 26 28 24 22 19 17 14 15 18 22 23 22 21 22 20 20 23 33 35 36 36 37 39 38 42 52 55 52 47 47 46 44 42 40 40 35 33 29 29 28 28 26 25 22 20 18 18 19
26 28 24 23 12 12 17 16 13 17 20 23 24 25 25 24 25 30 36 36 36 37 39 41 39 44 54 53 47 45 44 42 40 38 36 32 30 28 27 29 28 26 23 21 20 18 16 15 17
28 27 25 25 24 19 17 17 19 20 23 23 26 27 29 27 24 26 37 39 39 38 41 41 41 49 53 49 45 43 40 38 37 36 32 29 25 25 25 23 22 20 18 18 17 17 15 14 15
29 27 25 21 17 23 22 21 23 24 25 26 29 33 31 29 28 36 39 39 39 40 43 44 47 50 45 40 38 36 35 33 31 31 27 23 23 23 21 20 19 17 16 16 16 11 12 14 15

GFSSGP_sfc_30mbdewp_048.txt.gz
Dewpoint
61 58 54 43 34 35 31 30 33 29 26 30 31 30 37 40 40 38 59 66 69 70 71 71 70 70 71 70 70 70 70 69 68 67 65 64 62 60 59 62 64 66 64 64 64 65 65 64 63
60 54 45 40 34 28 26 32 28 28 29 30 30 30 34 46 53 60 63 68 69 70 70 70 70 70 70 69 69 69 69 69 68 66 64 64 62 60 58 61 63 64 64 65 64 63 62 61 60
57 55 41 37 34 28 24 30 28 27 30 29 29 31 40 46 53 59 65 68 69 69 70 71 70 70 68 68 67 66 66 68 67 67 66 64 62 61 59 59 62 63 63 63 63 62 61 60 60
51 47 41 35 34 32 31 30 30 29 28 30 32 33 47 52 56 59 67 68 69 70 70 71 70 69 68 66 65 64 64 64 67 67 65 63 62 59 58 58 59 59 60 61 61 60 60 60 60
49 43 36 34 32 33 32 32 31 30 28 28 32 33 46 54 56 66 67 68 68 70 70 71 70 68 67 66 65 63 63 63 68 65 64 61 62 59 59 59 58 58 59 59 59 60 60 60 61
44 42 36 28 30 31 31 30 29 28 28 28 30 38 47 55 58 66 67 67 68 69 70 70 69 68 68 67 65 64 64 66 66 64 61 61 63 62 60 60 60 61 61 61 61 61 61 61 62
41 38 36 33 31 31 30 31 29 28 27 27 28 35 50 54 56 61 65 67 69 69 69 69 69 68 68 67 66 65 65 66 66 65 63 63 64 64 62 60 60 61 62 62 62 62 62 62 63
39 39 35 33 31 30 31 29 28 28 27 29 30 43 49 53 56 61 67 68 69 68 68 69 68 68 68 67 66 65 67 67 66 65 64 64 65 65 64 63 62 61 63 63 62 62 63 63 63
41 37 35 33 31 30 33 32 32 30 28 30 32 45 51 55 56 61 67 68 68 68 68 69 68 68 67 67 66 65 65 66 66 65 64 64 64 65 65 64 63 63 63 63 63 63 63 63 61
38 37 36 37 36 35 34 35 35 31 29 29 39 46 54 55 56 56 64 66 66 66 68 68 68 68 67 66 66 65 64 64 65 64 63 62 61 60 64 64 64 64 64 64 63 63 62 60 58
39 37 38 39 40 39 37 37 39 35 29 31 36 47 50 54 55 55 60 64 66 67 67 68 68 68 67 66 66 65 64 63 63 63 63 62 61 63 65 64 64 64 64 63 63 61 59 58 58
37 39 39 40 39 38 36 39 39 38 34 39 39 37 37 47 51 55 56 59 61 65 66 67 67 67 67 66 66 65 64 63 62 62 62 61 60 63 64 64 63 63 63 60 60 58 52 44 40
38 37 37 38 38 36 36 36 38 38 39 39 37 36 36 38 43 49 54 57 58 60 64 66 67 67 67 66 66 65 64 63 62 61 60 60 59 62 63 62 62 61 60 58 58 56 44 35 28
37 37 36 37 37 37 36 35 35 36 38 37 36 36 35 35 37 40 42 48 53 57 59 64 67 67 67 66 65 65 64 63 62 61 59 58 59 60 61 60 60 59 59 57 56 47 37 29 27
38 35 37 36 36 36 36 34 34 36 36 36 36 36 36 35 35 35 37 40 42 48 58 59 65 66 66 66 65 65 64 63 62 61 59 57 58 59 58 57 57 57 56 52 43 35 30 29 26
36 36 32 34 35 35 35 30 33 35 35 35 35 35 35 36 35 35 35 36 37 41 45 58 60 64 64 66 66 65 64 63 63 61 59 56 56 56 55 55 54 52 47 41 34 31 29 27 25
34 31 32 33 35 34 34 32 33 34 34 33 33 33 34 35 35 35 35 35 35 36 39 51 59 61 63 65 65 64 64 62 62 60 58 56 55 55 55 54 50 46 41 37 33 31 28 25 23
31 31 32 31 31 32 33 34 34 33 33 33 33 32 32 33 34 35 35 35 35 35 36 44 57 60 62 63 63 63 63 62 62 60 57 56 56 55 54 52 47 42 38 33 30 28 26 24 21
33 33 31 30 29 27 27 27 28 29 30 30 31 31 31 31 33 34 34 34 34 34 34 37 48 58 61 63 63 62 62 61 61 59 57 58 57 55 53 50 45 39 35 32 27 25 23 21 23
36 33 31 29 29 27 26 26 26 26 26 27 27 28 28 30 30 31 33 34 35 35 35 34 40 51 59 62 63 62 62 61 62 61 58 59 56 55 53 49 44 37 34 30 26 26 24 22 22
31 28 28 28 28 26 25 20 20 23 25 25 26 27 28 28 28 29 30 31 32 33 34 36 37 43 55 60 61 59 59 59 60 61 60 59 56 55 52 47 42 36 34 30 27 26 25 22 20
27 28 28 27 25 21 27 15 23 21 22 23 22 24 26 27 27 28 29 29 30 31 32 33 36 39 46 53 58 60 59 59 60 61 59 55 53 54 49 44 40 37 33 29 27 27 27 24 19
28 29 28 27 26 25 24 22 18 22 19 19 20 19 21 25 26 26 27 28 29 29 29 30 33 36 40 46 53 58 58 59 57 55 54 52 51 50 47 44 41 36 33 30 30 30 27 25 22
30 27 27 28 25 19 21 22 16 16 18 18 18 18 20 22 23 25 25 26 26 28 29 29 30 32 38 43 50 55 58 55 54 52 51 49 48 47 45 42 39 37 35 33 32 26 26 22 21
28 24 20 19 18 12 23 23 20 21 21 21 21 20 20 21 22 21 23 25 29 30 33 33 32 32 35 41 47 52 56 55 54 52 51 47 45 43 43 42 39 37 37 33 27 24 23 21 18
27 25 18 10 16 19 22 18 15 22 22 19 21 24 26 25 24 21 24 29 34 36 36 36 36 37 36 37 48 54 54 53 52 51 49 48 45 43 40 38 38 35 31 29 27 25 23 22 20
28 24 27 24 21 19 18 17 14 21 24 24 25 27 28 29 29 27 31 35 35 35 35 36 37 37 39 41 52 53 52 51 50 48 46 44 43 40 36 36 33 31 30 29 28 26 23 21 20
26 28 23 22 8 8 14 17 11 15 21 24 26 28 30 32 32 31 31 36 37 37 37 39 41 40 40 49 51 50 49 49 47 46 45 42 41 36 34 31 29 28 28 26 24 21 20 19 19
28 26 26 23 21 16 15 13 20 19 24 26 27 30 36 37 36 33 28 35 39 39 39 42 43 43 49 50 47 46 45 45 44 44 42 39 36 31 30 28 27 25 24 23 21 18 16 16 17
29 27 25 19 16 23 21 18 23 23 24 26 26 34 37 38 37 35 33 39 39 39 41 46 46 48 50 46 44 43 42 42 41 38 37 32 30 30 27 24 22 21 21 18 18 17 18 16 17

GFSSGP_sfc_30mbdewp_051.txt.gz
Dewpoint
60 57 52 42 34 34 30 29 33 30 28 29 31 31 35 38 37 35 60 67 69 70 71 71 71 71 71 71 71 71 70 69 67 65 65 64 62 62 62 64 63 65 63 62 66 66 65 64 64
60 53 44 40 32 26 25 32 28 29 29 30 30 35 40 43 54 60 63 68 70 70 71 70 71 71 71 71 70 70 69 68 67 66 65 63 61 59 62 64 65 66 64 65 66 64 63 62 61
55 52 41 36 34 26 22 29 29 29 30 30 29 34 40 45 54 61 63 69 69 70 70 70 70 71 71 70 70 69 69 68 67 66 65 63 62 60 59 63 64 65 64 64 63 62 62 61 60
50 47 40 35 30 32 30 29 30 31 31 29 32 40 48 52 56 60 68 69 69 69 70 70 70 70 70 69 69 68 69 69 67 66 65 63 63 60 59 61 63 63 63 63 62 62 61 60 61
48 43 37 35 33 34 33 32 32 31 30 29 31 38 46 54 59 66 68 68 68 69 70 70 70 69 68 67 66 66 66 67 67 67 65 63 60 58 59 59 60 60 61 61 60 60 60 60 61
44 41 35 31 31 31 32 32 30 28 28 28 29 42 47 55 64 66 68 68 69 69 70 70 70 69 67 66 66 65 65 66 68 66 64 62 61 59 59 59 59 59 59 60 60 60 60 61 61
43 40 36 32 29 28 30 32 30 30 28 28 30 41 49 55 64 67 67 68 69 69 69 70 69 68 68 67 66 65 65 66 67 66 63 64 63 61 60 60 61 61 62 62 62 61 61 62 62
41 39 35 34 29 27 31 30 29 29 29 29 36 39 47 54 62 66 66 68 68 69 69 69 68 68 68 67 66 65 65 67 66 64 64 65 64 63 61 62 61 61 63 62 62 62 62 63 63
41 37 34 31 32 31 33 32 33 33 29 30 33 45 48 55 64 66 66 67 67 68 68 69 68 67 67 66 66 65 67 67 67 65 64 64 64 65 64 63 63 63 63 63 63 63 63 63 60
39 36 36 37 34 34 34 36 36 34 32 29 39 49 55 56 64 64 64 64 65 66 67 68 68 67 67 66 65 64 66 66 66 65 64 64 64 64 65 64 63 64 64 64 63 64 63 60 57
39 36 37 39 39 40 37 36 39 36 32 31 34 43 49 55 58 64 65 65 65 65 67 66 67 67 66 66 65 64 64 64 64 63 63 62 62 61 63 64 64 64 64 64 64 62 60 58 57
37 39 39 38 39 38 37 38 37 38 37 38 40 39 37 48 53 57 63 65 65 65 65 66 67 67 66 66 65 64 63 63 63 63 62 62 60 60 63 64 63 63 63 62 61 59 55 49 40
38 38 38 39 38 38 37 35 37 38 38 40 39 37 36 36 38 50 57 61 65 66 66 67 67 67 66 65 65 64 63 62 62 62 62 62 60 60 63 63 63 62 62 60 59 57 46 37 29
38 38 38 37 36 37 36 36 35 36 38 38 37 37 36 36 35 37 45 54 59 63 66 67 67 67 66 65 65 64 64 63 61 61 61 61 60 60 62 62 62 61 60 59 58 54 40 30 27
38 36 36 36 36 36 36 34 35 36 36 35 35 36 36 36 36 35 36 40 48 56 60 65 66 67 66 66 66 65 64 63 62 61 60 60 60 60 61 61 61 60 59 57 54 43 32 29 26
37 36 33 34 36 36 35 29 33 35 35 35 35 35 35 36 36 36 35 35 38 41 48 59 66 66 66 66 66 65 65 64 63 61 60 58 58 59 59 59 59 58 56 53 45 35 30 28 25
34 32 33 33 34 34 34 32 33 34 33 33 33 32 33 34 34 36 36 36 35 38 39 47 60 65 66 66 66 65 65 64 63 62 60 58 57 57 58 57 57 54 50 45 36 32 29 27 24
32 32 32 31 31 32 32 32 34 35 34 34 34 34 34 34 34 34 35 36 36 36 36 39 52 60 65 65 66 65 65 64 63 62 61 59 56 56 56 55 53 49 44 39 33 30 26 25 22
33 32 31 31 30 28 28 27 27 28 28 28 29 32 33 33 33 33 34 34 35 35 35 36 43 57 61 64 64 64 63 63 62 62 61 58 57 56 55 53 49 45 42 37 32 28 25 23 23
36 34 32 31 29 28 27 26 27 27 27 27 27 28 28 29 30 31 32 33 34 34 35 34 37 50 60 62 63 62 63 63 63 62 60 58 58 56 55 53 48 43 39 34 29 28 24 22 24
36 32 29 28 28 26 25 22 23 23 24 25 26 27 28 28 28 28 29 30 31 33 34 35 36 39 55 62 62 61 60 60 61 61 59 58 58 57 55 53 49 41 39 35 30 29 28 23 21
29 29 29 27 26 24 26 18 21 20 21 23 23 23 23 25 27 28 29 29 30 31 32 33 34 37 41 54 61 61 60 59 60 61 61 58 57 57 56 53 48 44 42 40 37 34 30 24 20
28 29 28 27 25 24 24 21 15 20 16 18 19 20 20 21 24 25 27 28 29 30 30 30 31 33 37 45 58 60 60 59 59 60 60 56 55 56 54 51 47 45 44 42 38 36 31 27 23
30 27 27 28 24 17 21 21 11 15 18 18 21 24 25 26 26 25 23 25 26 27 27 28 27 28 33 39 48 58 59 57 57 57 57 55 53 54 52 50 48 46 43 40 38 37 33 28 27
27 24 16 15 17 11 23 22 17 21 23 24 22 26 28 30 32 31 27 23 28 29 30 31 31 30 33 36 42 50 55 57 57 56 56 53 51 50 49 47 45 44 43 40 37 33 29 27 25
27 25 16 7 13 18 22 18 15 22 21 21 26 28 30 33 34 34 31 31 34 36 36 36 36 35 36 36 38 46 52 56 56 55 55 53 52 52 48 45 44 43 40 36 31 27 26 23 21
27 24 26 22 19 19 18 17 13 23 24 26 26 28 30 35 36 36 33 33 34 35 35 36 36 37 37 37 40 45 51 54 54 54 52 51 49 46 45 43 41 37 33 29 27 25 24 24 25
27 28 23 21 6 1 11 15 9 18 21 25 25 26 31 37 38 38 36 34 33 36 38 39 39 40 40 41 43 47 51 52 52 49 48 47 44 43 42 40 37 33 29 27 25 24 23 22 24
27 26 25 23 19 13 11 8 19 19 23 24 26 27 35 38 38 38 38 36 35 39 39 39 43 45 44 45 48 48 48 48 47 47 45 44 41 40 40 36 31 28 26 25 24 23 23 23 21
29 26 25 19 16 22 20 16 23 24 24 25 27 29 37 39 39 38 39 37 37 39 39 43 45 47 48 47 46 45 45 45 44 44 42 41 39 37 33 29 26 25 24 21 20 20 23 23 22

GFSSGP_sfc_30mbdewp_054.txt.gz
Dewpoint
60 56 50 41 33 33 29 27 32 29 29 28 31 31 32 35 38 35 61 67 68 69 71 71 72 72 72 72 72 71 70 68 67 66 65 64 64 62 63 64 63 63 62 65 67 66 65 64 62
58 53 43 40 31 25 24 31 27 30 30 30 30 39 39 41 54 60 63 67 69 70 71 71 72 72 72 71 71 70 69 68 66 65 65 63 62 62 63 66 65 64 61 66 66 64 63 62 58
55 48 40 36 33 25 21 26 29 29 31 30 29 34 38 43 54 61 63 68 70 70 70 71 71 71 71 71 71 70 69 68 67 66 65 63 61 60 62 64 66 65 64 63 64 63 62 61 59
51 46 40 35 30 32 25 28 30 31 31 30 31 36 48 52 55 62 67 69 69 69 69 70 70 71 72 71 71 70 69 68 67 66 64 63 62 59 61 64 64 65 64 64 63 62 61 61 60
46 43 36 35 33 34 33 32 32 31 30 29 29 31 44 54 60 66 68 69 68 69 69 70 69 71 70 70 70 70 70 69 67 66 65 64 61 59 60 62 63 63 63 62 62 61 61 61 62
44 40 34 31 32 32 33 33 31 30 29 29 28 37 47 59 64 67 68 68 68 69 70 69 69 69 69 69 68 68 68 68 68 67 65 64 59 59 59 60 60 61 61 60 60 60 60 61 61
42 40 34 32 31 30 30 32 30 28 29 28 32 36 47 56 65 67 68 68 69 69 69 69 69 69 68 68 67 66 66 67 68 67 65 63 61 60 59 59 59 59 60 61 61 61 61 62 62
43 40 35 34 29 27 29 29 30 28 28 29 35 32 37 54 66 67 67 68 68 69 69 69 68 68 67 67 66 66 66 67 68 67 65 64 63 61 61 62 62 62 62 62 62 62 62 63 62
41 37 33 31 32 30 33 32 34 34 31 30 31 39 48 59 66 66 66 66 66 68 68 68 67 67 67 67 66 66 66 67 66 65 64 64 64 63 62 62 62 63 63 62 63 63 63 63 60
39 36 36 35 33 32 35 36 36 35 34 30 36 46 56 64 65 64 63 63 64 64 66 68 67 67 66 66 65 65 66 67 66 65 64 64 64 64 64 62 62 63 64 64 63 64 64 59 55
39 36 37 38 37 39 37 37 38 36 33 31 33 38 46 60 63 63 63 63 64 64 65 66 67 67 66 66 64 64 65 66 65 65 63 63 63 63 64 63 63 63 64 64 64 63 60 58 52
37 39 38 36 39 38 37 37 37 37 36 37 39 39 37 44 56 62 63 63 64 65 66 65 66 67 66 66 64 63 63 64 64 64 63 62 61 61 62 64 63 63 63 62 62 60 56 54 41
38 38 39 39 39 38 37 36 36 36 39 39 40 38 38 36 36 39 56 64 64 64 64 65 66 65 66 65 65 63 62 63 63 63 62 62 61 60 61 62 63 62 62 61 60 58 48 40 30
39 38 38 38 37 37 36 36 36 36 37 37 38 37 37 37 36 36 38 53 64 65 64 65 66 66 65 65 65 64 63 62 62 62 62 62 61 60 61 62 62 62 61 60 58 55 42 31 27
38 36 36 36 36 36 37 34 35 36 36 36 36 36 36 36 36 36 36 37 51 62 66 65 66 66 65 65 65 64 64 63 61 61 62 62 61 60 60 62 62 61 61 60 57 48 34 29 26
37 35 33 35 36 36 35 28 32 34 35 35 36 36 36 36 36 36 36 36 36 44 59 65 66 66 66 66 65 65 64 63 62 61 60 61 61 60 60 61 61 60 60 58 54 44 33 29 26
35 31 32 34 35 34 35 32 33 35 34 34 34 33 34 34 34 35 36 36 36 36 39 53 64 66 66 66 66 65 65 64 63 62 61 59 59 60 59 59 59 59 58 54 48 37 32 28 25
30 31 33 32 31 33 33 32 31 31 33 34 34 34 34 34 34 35 35 36 36 36 36 38 50 63 66 66 66 65 65 64 64 63 62 60 58 58 59 58 58 57 54 50 41 35 28 28 25
33 33 31 32 31 29 30 28 29 29 29 28 28 29 29 31 34 34 34 34 35 35 35 36 37 51 64 65 64 64 63 63 64 63 63 61 58 57 57 57 56 54 51 48 39 30 28 25 25
34 33 32 32 30 28 28 26 27 27 28 28 28 28 28 29 29 30 31 32 33 33 34 35 36 40 56 63 64 64 63 63 64 63 63 62 59 57 56 56 54 51 49 43 35 31 27 24 25
36 34 31 30 28 26 26 24 23 22 24 24 25 26 26 25 25 27 29 29 30 32 33 34 35 37 48 60 63 61 62 61 62 62 62 61 59 58 57 56 53 49 46 43 38 32 31 27 24
33 33 29 27 26 25 26 21 22 21 19 21 21 22 23 24 26 25 25 27 28 29 31 32 34 36 39 57 61 61 60 60 61 62 61 60 59 58 57 56 53 49 46 44 40 40 38 35 32
30 29 28 27 25 23 23 20 13 19 17 19 24 27 29 30 31 31 26 25 27 28 29 31 32 34 37 40 58 61 60 60 59 60 61 60 58 58 58 56 52 48 46 46 43 41 38 37 35
29 27 27 26 23 17 20 20 9 15 19 20 23 27 30 34 35 35 33 31 31 32 32 30 28 29 32 36 45 57 60 60 58 58 59 57 56 57 57 55 52 48 47 46 44 42 40 36 30
27 26 21 13 16 10 23 21 16 20 20 23 25 28 30 35 37 36 35 33 34 34 36 36 35 33 32 32 37 47 56 59 58 58 58 57 55 55 55 54 52 49 47 46 45 42 40 36 30
26 25 16 3 10 16 22 18 16 22 20 25 27 28 30 35 38 38 37 35 35 33 34 36 35 35 36 37 36 39 45 53 57 57 57 57 55 55 55 54 51 48 46 45 43 41 36 30 27
26 24 24 20 19 18 17 17 12 23 24 26 25 27 28 33 38 39 38 37 36 36 36 37 38 38 39 40 40 40 42 46 52 55 56 55 54 53 51 49 48 47 45 43 37 31 27 25 24
27 27 22 20 10 1 6 12 7 18 21 22 25 29 28 33 38 39 38 39 38 36 37 39 39 42 44 45 44 45 46 48 50 52 52 51 49 48 47 46 44 42 38 34 30 27 24 24 25
27 26 24 22 18 9 4 4 18 19 23 24 26 30 32 37 39 39 39 40 39 39 40 40 43 43 44 47 47 46 47 48 49 48 47 46 44 44 43 42 40 37 34 30 26 24 24 24 24
28 26 24 17 16 20 19 11 22 23 24 25 27 32 38 40 41 41 42 41 41 41 40 41 38 38 40 44 44 45 45 45 46 45 44 42 43 42 40 37 34 31 28 24 22 22 22 22 22

GFSSGP_sfc_30mbdewp_057.txt.gz
Dewpoint
60 53 48 41 33 33 28 26 32 30 30 29 31 31 33 35 41 37 63 66 66 67 70 70 71 72 72 72 72 71 70 69 68 67 66 66 65 63 64 65 64 63 64 66 67 65 64 63 59
57 50 44 40 31 25 25 31 29 30 30 31 31 38 39 40 54 61 63 67 67 69 69 69 72 72 73 72 71 71 70 68 68 67 65 64 63 62 65 66 65 63 66 67 67 65 63 59 58
53 46 40 37 32 25 22 26 29 30 32 30 29 34 36 42 55 61 64 68 68 69 69 71 72 72 72 72 71 71 69 69 66 65 64 63 62 62 66 67 65 66 66 65 64 63 62 59 60
49 44 40 35 31 32 25 28 31 31 31 30 30 31 45 53 55 61 66 68 69 69 69 71 72 72 72 72 71 70 69 68 67 66 63 63 61 62 65 65 66 65 64 64 63 63 62 60 61
45 42 36 35 34 33 33 32 33 31 31 29 29 29 41 54 63 66 68 69 68 69 68 69 70 71 72 72 71 70 69 69 67 66 65 64 62 60 63 64 65 65 64 63 63 62 61 61 62
42 40 34 32 33 34 34 34 33 31 30 28 28 33 43 60 64 66 68 68 68 68 68 68 69 70 70 70 71 71 70 70 68 67 65 64 61 60 62 63 64 64 63 62 61 61 60 62 62
41 38 33 32 32 32 31 33 31 30 29 28 31 32 43 55 65 66 67 68 68 68 68 68 68 69 69 70 69 69 69 69 68 68 66 63 61 60 60 61 61 61 60 60 60 60 61 62 62
43 38 34 34 29 28 30 31 30 29 27 30 34 31 34 54 65 66 67 67 67 68 68 68 68 68 68 67 68 67 67 67 68 68 66 63 62 61 61 61 61 61 62 62 62 62 63 63 62
42 37 32 32 31 29 32 29 34 35 32 31 32 41 50 59 65 64 65 65 65 66 68 68 67 67 67 67 66 66 66 66 68 67 65 63 61 61 61 62 63 63 63 62 63 63 64 62 58
39 36 35 35 34 31 34 34 35 34 34 32 41 41 60 63 63 63 63 63 64 65 66 67 67 67 66 66 65 65 65 64 67 64 64 63 63 62 61 61 63 64 64 64 63 64 63 58 53
39 34 36 38 35 38 37 37 39 36 31 33 34 40 56 61 62 62 62 62 63 64 66 67 67 67 66 65 65 64 65 66 66 64 63 64 63 63 63 62 61 63 64 63 63 64 60 57 52
37 39 37 37 40 39 38 38 37 37 35 36 39 39 38 58 60 62 62 62 63 63 64 66 65 67 66 65 65 64 63 65 65 65 63 63 63 63 64 64 63 63 63 63 63 61 59 58 48
38 38 39 39 39 38 38 37 36 36 38 39 40 39 38 37 40 53 61 63 63 63 65 66 66 65 66 66 65 64 62 64 65 65 64 63 62 62 63 64 64 63 62 62 61 60 54 49 39
39 38 38 38 38 37 36 36 36 36 37 37 37 37 38 38 38 37 39 56 63 64 64 64 66 66 66 65 65 64 63 62 64 65 64 63 62 62 62 62 62 63 63 61 60 58 50 41 33
39 37 37 36 37 36 37 33 35 36 37 36 36 36 36 37 37 37 37 37 52 63 64 65 65 66 66 65 65 65 64 62 61 63 64 63 62 61 61 61 62 63 63 61 59 54 42 34 30
37 36 33 35 36 36 35 28 32 35 36 35 36 36 36 36 37 37 37 37 38 44 60 65 65 65 66 65 65 65 65 64 62 61 61 63 62 61 61 61 61 62 62 61 58 51 41 35 31
36 31 32 32 37 35 33 30 33 35 34 33 34 34 34 34 35 35 35 36 37 37 38 55 65 65 66 65 65 65 65 64 64 62 61 61 61 62 61 60 60 62 61 60 57 48 42 35 31
32 30 32 29 31 35 34 34 35 32 31 31 32 32 34 35 35 36 36 36 36 37 37 39 53 64 66 66 65 65 65 64 64 64 62 61 60 61 60 60 60 60 60 59 54 49 38 36 32
33 31 31 33 30 30 30 30 30 30 30 30 30 30 30 30 31 33 34 35 36 36 36 37 38 49 63 65 64 63 64 64 64 64 64 62 61 60 60 60 59 59 58 58 53 45 38 32 28
32 31 32 32 29 29 28 27 29 29 29 29 29 29 29 27 25 25 28 31 33 34 35 36 36 38 50 62 63 63 63 64 64 63 63 63 61 60 59 59 58 57 57 55 50 43 36 32 29
34 32 31 30 28 27 26 24 24 23 23 23 23 24 26 28 29 28 25 27 30 31 33 34 35 37 41 56 63 63 63 62 63 63 63 62 62 60 59 59 58 56 56 53 48 43 40 35 29
34 35 30 28 27 25 26 22 24 20 23 26 28 30 32 33 33 33 31 29 29 31 31 33 34 36 38 47 59 61 60 60 61 61 62 62 62 61 59 59 57 56 55 54 49 43 42 38 34
35 30 28 26 25 23 23 21 19 19 18 23 27 29 32 35 35 35 34 32 33 36 35 31 31 33 36 40 54 60 60 60 61 62 62 62 61 61 59 59 57 56 53 53 50 45 43 42 40
32 27 26 25 23 18 20 20 11 17 19 21 25 28 31 35 38 38 37 36 36 36 37 38 36 32 31 34 41 57 60 60 60 60 60 61 60 60 59 59 58 56 54 51 49 47 44 43 43
28 27 21 13 17 13 23 22 18 19 21 23 26 28 29 34 38 39 38 37 38 37 37 37 37 37 37 37 35 39 49 58 59 59 59 60 57 57 58 58 57 55 53 51 50 47 46 43 39
26 27 21 5 9 13 22 18 16 22 22 25 27 28 29 33 38 39 39 39 39 39 38 37 38 39 40 41 40 38 40 46 53 58 58 59 59 58 58 57 57 55 52 50 48 47 46 44 40
26 25 23 19 18 17 16 18 16 23 22 26 25 30 32 34 38 40 39 39 40 39 39 39 40 41 44 45 45 44 43 43 44 50 55 57 58 56 56 56 54 53 51 49 48 47 44 40 34
27 26 21 19 9 3 5 8 6 20 23 22 26 28 32 38 40 41 41 41 41 41 41 41 42 42 42 45 46 46 47 47 48 49 51 53 53 52 52 51 50 49 48 46 45 40 35 29 27
26 25 23 21 17 7 3 3 16 17 22 24 26 29 35 40 40 39 39 41 41 40 40 40 38 39 40 42 44 45 46 46 47 48 49 49 48 48 48 47 46 44 41 38 35 31 30 28 25
28 26 22 17 17 19 18 8 20 21 24 25 27 30 40 39 37 35 36 38 36 35 36 36 37 38 40 41 43 44 44 45 46 46 46 45 46 45 45 43 40 36 34 31 28 27 26 25 25

GFSSGP_sfc_30mbdewp_060.txt.gz
Dewpoint
59 52 47 42 32 29 23 23 27 30 29 30 31 31 30 34 36 36 61 64 61 65 66 70 72 72 73 73 72 71 71 70 69 69 68 67 66 65 65 65 65 64 64 67 66 65 63 61 60
56 47 44 38 28 24 20 25 26 28 30 31 31 32 37 36 50 58 61 65 64 66 66 67 71 72 73 72 72 71 70 69 68 67 66 65 63 64 64 65 64 64 67 67 66 64 61 59 60
52 46 38 34 30 24 21 25 24 28 31 30 30 34 34 41 53 58 63 64 65 65 65 67 72 73 73 72 71 71 70 69 68 66 65 63 63 66 67 65 66 68 67 66 64 62 59 60 62
45 42 39 32 28 28 25 27 28 30 30 31 29 30 42 53 54 59 64 63 64 65 65 70 73 73 73 72 71 70 69 68 66 66 64 62 63 65 67 66 66 66 65 64 64 62 60 61 62
46 40 34 32 29 29 30 29 31 30 29 27 28 29 35 55 61 63 64 64 64 64 65 69 72 73 72 72 72 71 69 68 67 65 64 63 61 63 65 66 66 65 65 64 63 62 61 61 63
40 39 32 30 29 30 31 31 30 29 29 26 28 29 38 58 61 65 65 64 65 65 65 66 70 72 72 72 71 71 70 69 67 65 65 64 61 62 64 65 65 64 63 62 62 61 62 62 63
38 36 31 28 29 31 31 31 31 28 27 25 29 29 41 54 64 66 66 65 66 65 64 64 67 68 70 71 71 71 70 69 67 67 66 64 62 61 63 64 64 63 62 61 60 60 61 62 63
40 37 31 29 28 29 31 31 29 27 24 30 31 28 34 52 65 66 66 65 65 65 63 63 64 66 66 67 69 69 69 69 68 67 66 62 61 61 61 62 61 61 61 61 61 61 62 63 62
43 32 28 30 29 27 30 29 30 32 27 29 32 37 50 55 65 65 65 65 65 64 63 63 63 63 64 64 66 67 67 67 68 67 64 61 57 58 59 59 62 63 63 63 62 63 64 62 60
33 29 25 30 32 29 30 27 31 30 30 30 35 42 58 61 63 63 62 63 63 64 64 64 63 63 62 62 62 61 60 60 59 65 64 62 57 56 56 60 64 64 64 63 63 65 62 58 55
33 28 31 36 34 33 31 33 36 30 30 29 31 40 56 60 62 62 62 62 63 64 64 65 64 63 62 60 59 60 60 58 58 63 62 61 59 58 57 57 59 60 63 59 62 63 58 56 52
35 32 33 38 39 38 35 34 34 33 29 35 39 39 43 58 60 61 61 62 62 63 64 65 66 65 64 61 61 60 59 59 58 60 60 60 60 58 58 59 57 57 57 57 58 58 57 56 52
36 36 37 37 39 38 38 36 33 35 37 38 38 40 39 39 54 60 61 62 62 63 64 65 65 65 65 64 62 61 61 59 59 59 60 60 60 58 58 60 61 58 56 57 57 57 57 55 50
38 36 36 36 37 37 36 36 36 34 36 35 36 35 35 37 38 41 52 59 61 62 63 64 65 65 66 65 64 63 62 60 59 59 60 61 60 59 58 59 61 61 60 57 57 56 55 53 49
38 36 35 36 35 33 36 32 34 34 33 32 31 32 33 36 37 38 39 40 44 53 59 63 64 65 65 66 66 65 64 62 60 60 61 61 61 60 58 57 59 60 61 60 57 56 54 50 44
35 34 30 30 34 36 34 20 30 34 32 32 32 31 32 33 34 35 37 38 38 38 45 54 61 64 65 65 66 66 65 64 62 61 60 61 61 61 60 58 58 59 60 61 59 56 53 49 43
33 24 26 31 35 30 32 23 27 33 33 31 31 31 33 33 34 34 35 35 36 37 37 39 51 59 63 65 65 66 66 65 64 63 61 60 61 61 60 58 58 58 60 61 59 57 52 49 44
27 27 28 25 32 35 32 27 31 33 33 31 30 30 31 32 33 34 36 36 37 37 36 36 38 47 56 63 65 66 66 65 65 64 63 61 60 61 60 59 58 57 59 60 60 57 53 50 47
28 28 25 29 30 30 30 31 32 32 31 30 30 29 29 31 31 31 31 32 33 35 36 37 37 39 46 56 64 64 64 64 64 64 64 63 62 61 61 60 59 58 57 58 60 58 52 48 47
29 26 26 32 31 30 29 29 30 30 30 30 29 29 28 28 27 27 26 28 30 31 33 35 37 38 39 46 58 62 62 63 64 64 64 64 63 62 62 61 60 59 58 57 59 58 52 50 43
30 26 30 28 29 28 27 26 26 23 23 24 25 28 31 31 30 31 29 30 31 31 32 33 35 37 38 41 47 56 60 61 62 63 63 63 63 64 63 62 61 60 59 57 58 57 52 49 42
30 33 32 29 29 25 27 15 23 22 26 28 31 33 35 35 34 34 34 34 35 38 38 35 35 35 37 40 42 50 56 57 58 58 61 62 63 63 63 62 62 61 60 58 58 57 54 51 44
34 34 31 28 27 25 23 22 19 21 23 26 29 32 35 38 38 37 37 37 38 40 41 40 36 33 35 37 41 46 53 54 55 57 59 60 62 62 62 62 61 61 60 59 57 55 53 53 49
29 28 27 27 26 23 21 21 13 17 20 24 27 30 33 37 39 40 39 39 40 42 41 40 38 38 37 35 38 42 47 52 55 57 59 60 61 61 61 61 61 61 60 58 58 56 54 52 52
33 28 26 23 24 20 22 19 15 19 20 24 30 32 33 37 40 41 40 40 41 42 42 40 39 39 40 40 39 36 40 47 54 56 57 58 59 60 60 60 60 60 59 58 57 56 54 52 51
29 29 25 14 11 13 22 17 16 22 23 26 27 31 35 38 40 41 41 41 42 42 42 41 41 40 43 43 44 43 41 40 42 46 51 53 55 57 59 59 59 59 59 58 56 55 53 52 50
28 28 24 21 20 17 15 18 20 22 22 25 26 30 34 39 41 41 41 41 42 42 42 42 41 42 41 43 45 45 46 46 45 45 46 49 52 55 57 58 58 58 57 55 53 52 51 50 49
28 27 24 25 14 10 9 8 11 20 22 25 27 31 35 40 40 38 38 41 41 40 40 41 40 40 41 43 44 45 47 48 48 49 49 49 50 52 55 55 56 54 53 52 50 50 49 47 42
26 26 24 21 18 12 1 3 17 23 24 25 27 31 38 39 37 37 39 38 37 38 38 38 39 40 41 42 44 46 46 47 48 48 48 49 50 50 51 52 51 50 49 48 46 43 41 38 36
28 26 23 20 20 20 20 9 17 21 25 25 28 34 39 36 35 37 35 34 35 36 37 37 37 37 38 41 43 44 45 46 46 47 46 47 47 47 48 48 46 44 42 39 36 34 31 30 28

GFSSGP_sfc_30mbdewp_063.txt.gz
Dewpoint
58 54 45 41 32 27 24 23 23 25 25 28 30 28 26 31 32 39 60 60 60 63 68 69 72 73 73 72 72 71 71 70 70 69 69 67 67 66 65 65 64 64 66 66 65 64 62 62 61
54 49 43 38 29 25 22 24 24 23 28 30 30 30 29 30 47 57 59 62 61 63 66 67 72 73 73 73 72 71 70 70 69 68 67 65 63 64 65 65 64 65 67 67 65 63 61 61 61
57 47 39 34 30 23 22 22 22 27 29 29 30 34 33 40 52 56 61 61 62 63 64 68 72 73 73 72 72 71 70 69 68 66 65 64 63 68 66 65 68 68 67 66 63 60 61 62 62
50 43 40 34 29 28 25 23 23 26 29 30 29 31 39 51 53 58 62 61 62 62 63 70 73 73 73 72 71 70 69 68 67 65 63 63 64 68 67 67 67 66 65 64 63 61 62 62 63
47 40 35 32 30 28 27 26 26 25 28 28 28 30 39 56 58 61 60 61 61 61 66 68 73 73 72 71 71 70 69 68 66 65 64 63 63 66 67 66 66 65 65 64 63 62 61 63 63
43 40 34 31 30 30 28 29 28 28 27 27 27 28 44 58 60 62 61 61 61 61 65 68 72 72 71 71 71 70 69 68 66 65 64 63 62 65 65 66 65 65 64 63 63 62 61 63 63
40 37 34 30 28 29 28 29 27 27 27 26 26 28 43 56 63 63 62 61 62 62 62 65 66 69 71 71 71 71 70 68 65 65 66 63 62 63 65 65 64 64 63 62 61 61 62 62 63
40 38 33 31 28 27 29 31 28 28 26 28 27 28 36 54 64 65 64 62 62 62 61 62 64 67 68 69 69 70 70 68 67 66 65 63 61 62 63 64 63 62 61 61 61 61 62 63 63
40 35 32 30 29 27 29 29 30 28 25 26 27 34 49 58 64 65 63 62 62 62 60 60 61 65 65 66 68 68 69 69 68 66 63 61 56 57 60 58 61 62 62 62 62 62 63 63 61
37 34 31 31 30 29 28 29 28 28 26 23 27 40 53 58 63 63 63 62 63 61 60 60 60 60 60 60 66 64 64 64 64 64 63 62 56 54 53 60 63 64 64 63 63 64 64 60 56
34 27 29 27 33 33 29 28 25 28 22 23 25 32 51 56 61 62 62 62 63 62 62 61 61 60 59 59 58 58 57 57 56 57 64 62 57 56 55 59 60 61 63 60 62 63 59 55 52
33 30 27 33 35 34 30 28 31 29 27 29 35 39 45 53 56 59 60 60 61 62 63 62 62 62 61 59 57 56 57 57 54 58 62 59 58 56 54 54 55 57 58 57 58 58 57 55 53
35 31 31 35 38 36 30 28 30 30 33 36 37 38 37 40 52 58 60 59 60 60 63 64 65 64 62 61 59 59 59 58 57 56 58 58 58 57 55 56 56 55 55 55 56 56 55 55 52
36 34 34 34 38 37 35 30 33 32 33 34 33 33 34 36 39 46 57 58 58 60 61 63 64 65 65 64 62 61 61 60 58 57 58 58 57 58 57 56 59 60 56 54 55 55 55 54 52
36 33 34 33 34 34 36 32 33 33 33 32 30 31 30 32 35 39 42 47 54 57 58 60 63 65 65 65 65 64 63 62 60 59 58 59 58 58 57 56 57 60 61 59 55 54 54 53 51
37 33 31 32 33 32 33 25 29 32 31 30 28 27 27 27 28 32 37 41 42 42 45 54 60 63 64 64 66 66 64 63 62 61 60 60 59 59 59 57 57 57 59 61 60 55 54 53 49
33 26 26 26 31 32 33 23 26 30 30 28 27 27 28 28 29 28 30 35 38 39 40 40 46 56 61 63 64 65 66 66 64 62 61 60 60 60 60 59 57 56 57 60 60 58 55 52 50
26 25 22 21 31 30 28 27 25 28 30 28 27 27 28 28 29 29 30 32 34 35 36 37 38 40 48 57 62 66 66 65 66 64 62 61 60 61 61 60 58 57 57 58 60 59 56 53 50
21 24 20 21 31 30 26 26 25 28 30 28 28 26 25 26 28 31 32 33 33 34 36 36 36 37 39 46 52 64 65 65 64 65 64 63 62 60 61 61 59 58 58 57 59 59 57 54 51
26 24 24 28 28 28 24 26 28 29 29 28 27 28 27 28 29 28 28 28 29 30 33 34 36 37 38 40 45 59 62 63 64 65 65 65 64 63 61 61 61 60 59 58 58 58 57 55 52
25 24 23 25 30 29 26 25 25 26 26 25 25 26 28 29 29 30 31 32 33 33 34 33 34 36 38 40 41 46 59 60 62 64 64 64 64 64 64 62 62 61 60 59 58 59 58 55 51
25 26 24 29 27 18 26 8 23 24 25 26 28 30 32 32 33 34 34 35 36 40 42 37 35 35 36 39 40 41 46 54 57 57 59 61 62 62 62 64 63 62 62 60 59 59 59 56 52
31 32 31 30 29 27 25 21 21 23 24 26 29 32 35 36 36 36 37 38 40 43 43 41 39 35 35 36 38 40 41 47 53 55 55 56 58 61 62 62 63 62 62 62 61 59 59 57 53
35 32 30 29 28 26 23 21 18 20 22 25 27 30 33 36 38 39 39 40 41 43 43 42 39 38 39 38 37 38 41 44 50 52 54 56 58 60 62 61 61 61 61 61 61 60 59 57 56
32 31 28 27 26 22 21 20 17 18 22 25 27 30 33 36 38 40 40 41 42 43 43 42 41 39 41 42 41 38 37 41 45 50 53 55 56 58 60 61 61 61 61 61 60 60 59 57 56
34 33 28 20 18 19 21 17 16 20 21 28 29 32 35 38 39 41 41 42 42 43 43 43 42 41 42 42 43 42 43 41 40 40 43 48 51 52 54 59 59 59 60 60 60 59 58 56 56
33 31 27 22 19 16 14 17 21 22 22 25 27 31 35 38 40 39 39 39 42 41 41 42 42 40 41 42 43 43 44 46 47 47 46 45 45 49 51 56 57 57 59 59 59 57 56 55 55
30 29 26 28 18 10 12 10 12 19 22 24 27 31 35 39 39 38 38 40 39 39 39 40 40 40 41 42 43 44 46 47 47 48 49 49 50 50 51 52 54 57 57 56 56 54 53 52 50
27 27 25 23 18 14 1 4 17 19 20 25 28 31 37 39 37 37 39 37 38 39 39 39 38 39 40 42 43 44 45 46 47 47 47 47 48 49 49 50 50 52 52 51 51 49 49 44 40
28 26 24 20 19 20 21 12 19 23 25 26 28 33 38 37 36 37 36 35 36 36 36 37 36 35 36 38 40 41 42 42 42 40 41 42 43 44 45 47 47 47 45 44 42 41 38 38 37

GFSSGP_sfc_30mbdewp_066.txt.gz
Dewpoint
58 53 52 47 37 32 28 27 24 25 25 28 29 27 29 30 48 50 59 60 65 66 71 71 72 73 73 72 72 72 71 70 70 70 69 68 67 66 65 65 64 66 66 66 65 63 63 62 61
56 52 48 42 33 29 25 26 25 24 29 30 30 30 29 46 56 58 60 61 65 67 69 70 73 73 73 73 72 71 71 70 70 69 66 65 64 65 65 65 65 67 67 66 63 62 62 61 62
59 55 45 37 35 29 26 25 25 28 29 29 29 31 28 48 54 58 62 60 64 67 67 71 74 74 73 72 72 71 70 69 68 67 65 63 66 67 66 68 67 68 67 64 62 62 62 62 62
50 49 44 38 31 32 28 24 24 28 29 30 30 32 48 55 56 61 61 61 64 65 69 72 73 74 73 72 71 71 69 68 67 65 64 64 68 67 68 68 67 67 66 63 62 62 63 63 63
49 46 38 34 34 32 30 26 25 25 27 29 28 34 52 57 60 60 60 61 62 66 70 72 73 73 73 72 71 70 69 67 66 64 64 64 68 68 67 67 66 66 65 64 62 62 63 63 63
48 44 37 35 34 33 32 28 26 26 27 27 26 38 54 58 60 59 60 61 62 67 68 70 73 72 72 71 71 70 69 68 66 65 64 63 67 67 67 66 66 65 64 64 63 62 63 63 63
47 43 40 36 34 32 31 30 27 27 27 27 27 31 56 61 62 61 60 61 61 66 68 69 71 71 70 71 71 70 70 67 66 65 65 63 64 66 66 66 65 64 63 63 62 62 62 63 63
46 45 40 38 34 31 31 30 28 27 27 28 27 38 55 62 64 65 61 61 61 62 65 66 68 70 70 70 70 70 69 67 65 65 65 63 62 64 65 65 65 63 62 61 61 62 62 63 63
41 40 39 41 37 32 31 29 31 29 28 27 27 48 58 63 64 64 62 61 61 61 62 63 64 68 68 68 68 68 68 67 67 66 63 61 60 61 63 63 63 63 62 62 61 62 63 63 62
37 37 37 39 35 32 32 30 30 28 27 26 30 49 58 62 63 63 62 62 61 61 60 62 64 66 66 66 68 67 68 68 66 65 62 61 58 56 57 61 62 63 63 63 63 63 64 62 59
37 35 36 34 34 34 31 29 30 28 27 27 25 41 53 59 61 62 62 62 62 62 60 60 61 64 62 65 66 65 65 65 65 65 63 62 59 57 60 62 63 64 63 63 64 65 63 60 58
35 35 33 31 35 34 30 30 28 27 28 33 38 42 52 54 59 61 61 62 63 62 63 61 61 60 59 59 58 59 59 59 58 59 63 62 61 56 57 60 60 61 62 60 62 63 61 59 55
38 34 32 32 37 36 32 30 29 30 34 37 37 38 38 45 54 58 59 60 62 62 63 63 64 64 61 59 58 57 58 58 57 58 63 62 60 57 55 56 57 58 60 59 59 59 59 57 54
37 36 33 33 38 35 31 30 29 31 32 34 35 35 36 37 40 54 58 59 59 60 63 64 64 65 65 62 61 60 60 59 58 57 59 59 59 59 57 56 57 56 57 56 57 57 56 56 54
37 34 35 32 37 36 36 32 31 32 32 32 33 33 32 32 35 38 45 57 57 59 61 63 64 65 65 65 65 65 62 62 60 59 58 58 59 59 59 57 58 59 59 59 55 55 56 55 54
37 35 33 33 34 36 35 30 32 33 33 32 31 29 30 30 31 33 37 41 43 44 45 60 63 64 64 64 65 65 66 64 62 61 59 59 59 59 59 58 57 60 60 59 60 57 55 54 52
36 32 32 31 33 32 33 30 30 32 32 32 30 30 28 27 28 29 30 32 38 40 41 42 45 61 64 65 65 66 65 65 65 64 61 60 60 60 59 59 58 57 60 60 60 59 56 54 52
32 31 27 28 31 32 33 32 29 30 29 28 28 27 27 28 29 30 30 33 34 36 38 40 42 42 44 62 64 66 66 65 66 65 65 62 61 61 60 60 59 58 57 59 60 59 59 55 52
29 28 26 26 30 31 31 31 30 28 30 30 29 27 27 28 28 31 32 32 32 33 35 36 37 38 40 41 50 65 65 65 65 65 65 66 62 61 61 61 60 59 57 58 60 59 58 56 53
30 26 25 25 31 30 29 28 27 27 30 30 29 28 27 27 29 29 29 28 29 30 33 35 36 38 38 40 41 55 65 65 64 64 64 65 65 64 62 61 61 61 59 58 59 59 58 57 54
27 25 23 25 29 29 26 24 26 28 28 27 27 27 27 29 29 30 32 34 37 41 41 38 36 36 37 40 42 43 62 63 63 63 63 63 64 64 64 63 62 61 61 59 59 59 59 57 55
29 25 25 27 28 23 27 13 23 26 25 25 25 26 30 31 33 34 36 37 40 43 44 43 37 36 36 37 39 41 42 50 60 62 64 64 64 64 63 63 64 62 62 61 60 60 59 58 55
27 28 28 30 27 26 25 23 21 25 23 25 27 32 34 34 35 36 38 40 43 44 44 43 41 38 37 36 38 39 40 42 44 53 57 58 59 63 63 62 62 62 63 63 62 61 60 59 58
35 32 31 30 29 26 26 22 21 22 24 27 31 33 35 37 38 39 40 40 43 44 45 43 42 40 41 41 39 38 40 40 42 47 53 54 56 58 61 62 62 61 61 61 62 62 61 60 59
36 29 26 25 26 24 22 23 22 22 25 27 28 31 34 37 39 40 41 42 43 44 44 43 43 42 42 42 43 43 41 39 40 42 46 50 55 57 58 61 61 61 61 61 61 61 61 60 59
33 31 27 18 21 21 21 20 18 22 26 27 30 33 35 38 40 41 41 41 42 42 42 42 43 42 42 42 43 44 46 47 47 48 47 46 45 47 50 56 60 60 59 60 61 61 60 60 59
35 32 28 23 18 18 19 19 21 21 27 28 28 32 36 39 40 39 39 41 40 39 40 40 40 41 42 43 43 45 46 47 48 48 49 49 50 50 51 52 54 57 58 58 59 59 59 58 58
37 35 26 26 13 12 14 16 15 20 24 25 28 31 36 39 39 38 39 38 38 39 40 39 40 40 41 43 44 45 46 47 47 48 47 47 48 49 49 49 50 51 53 54 56 56 56 55 51
33 32 29 24 21 17 10 10 19 21 23 24 28 32 37 39 37 38 38 37 38 38 38 37 37 37 38 40 42 42 41 42 41 39 40 40 42 43 44 46 48 48 48 49 50 50 50 48 43
29 27 27 22 20 20 20 15 20 21 24 27 29 33 39 38 36 37 36 35 36 36 36 36 35 35 36 38 38 38 37 38 37 36 35 34 33 33 33 34 35 36 37 38 40 41 40 41 39

GFSSGP_sfc_30mbdewp_069.txt.gz
Dewpoint
55 55 53 50 38 37 31 30 27 26 25 29 30 29 35 44 51 44 59 66 69 71 72 73 74 74 74 73 73 72 72 71 70 69 69 68 67 65 64 64 66 66 66 64 63 63 62 62 61
59 56 52 45 36 31 28 28 26 28 29 29 28 29 42 53 57 58 63 67 68 70 71 72 73 73 73 73 72 72 71 70 70 68 66 65 65 65 65 65 66 67 66 63 63 62 62 62 60
56 55 49 40 37 31 28 28 27 28 29 29 29 31 43 51 58 59 63 66 69 69 70 72 74 73 73 72 72 71 70 69 68 66 64 65 66 66 66 67 68 67 65 63 63 62 62 62 60
50 50 46 40 35 34 33 32 28 28 29 30 30 46 53 58 59 61 64 68 68 68 71 74 74 73 73 72 71 70 68 67 66 65 64 68 68 68 68 68 68 67 64 63 63 63 63 63 61
51 48 41 37 36 37 35 32 27 27 28 29 29 46 55 59 61 61 63 66 67 69 72 73 74 73 72 72 71 69 69 67 65 65 64 69 68 67 68 67 67 66 64 63 63 63 63 63 63
47 48 40 34 35 36 35 29 25 27 28 26 41 52 56 60 59 60 62 67 68 69 71 73 73 73 72 72 71 70 68 67 66 64 64 68 67 67 67 67 66 66 65 63 62 63 63 63 63
46 43 40 37 34 36 36 32 25 27 27 27 30 52 59 61 63 61 64 67 68 69 70 72 72 72 71 71 70 70 69 68 67 66 64 67 67 67 66 66 65 65 64 63 63 63 63 64 63
50 46 40 40 39 36 36 31 28 27 26 28 35 50 56 61 64 64 63 66 68 68 70 71 71 70 70 70 70 70 69 67 66 66 64 63 66 67 67 66 65 64 63 63 63 62 63 64 63
48 43 39 40 41 39 39 37 29 29 28 36 48 56 62 63 64 63 61 63 66 66 68 69 69 69 69 69 69 69 68 66 66 66 63 62 63 65 65 65 65 64 63 62 62 62 63 64 62
41 41 37 37 40 41 39 34 36 28 27 41 55 62 63 63 63 62 61 61 61 63 65 67 68 68 68 68 68 68 68 66 66 65 63 60 60 61 63 63 63 64 63 63 62 63 65 63 60
40 37 40 39 40 44 39 35 34 28 27 28 49 59 61 62 62 62 62 62 62 60 63 64 66 66 67 66 67 67 67 67 66 64 62 61 59 58 59 62 63 63 63 63 64 65 64 61 59
36 37 36 37 38 41 39 31 29 28 34 37 38 56 60 61 61 61 61 61 62 62 62 63 65 65 65 66 66 66 66 66 66 65 63 62 60 58 60 61 62 62 63 62 63 64 62 60 58
39 37 35 36 37 37 34 30 30 29 37 37 37 45 56 58 60 62 62 62 61 62 62 63 63 62 62 65 64 63 63 63 62 63 64 63 60 57 59 60 61 61 62 61 61 62 61 59 58
40 39 38 35 37 36 31 31 30 30 35 36 35 35 36 45 57 59 59 60 62 62 62 64 64 64 65 61 58 57 58 60 58 61 63 62 61 57 56 58 58 59 60 60 59 59 60 59 57
42 37 37 36 37 36 34 29 30 32 33 33 34 33 33 33 37 55 58 58 59 62 63 63 63 64 65 65 64 63 61 60 58 58 62 62 61 58 57 56 57 57 58 58 57 58 58 57 56
39 35 33 34 36 37 31 27 31 33 33 33 33 32 32 31 32 36 40 49 55 59 62 64 64 64 64 64 64 65 65 65 62 59 59 58 59 59 59 57 57 58 58 59 58 56 55 55 55
37 34 33 32 36 36 32 30 31 33 32 32 33 32 31 29 29 31 32 33 37 41 43 60 64 64 64 64 64 64 65 65 65 65 61 59 58 59 59 59 58 58 59 59 59 59 56 55 54
34 33 33 31 33 33 33 32 31 30 31 32 32 31 29 29 28 30 31 33 33 34 36 38 45 63 64 65 64 65 64 64 65 65 65 65 61 59 59 59 59 58 59 60 59 58 59 56 54
34 33 30 31 32 32 32 32 32 32 29 30 30 30 28 27 29 30 30 29 30 30 32 34 36 37 44 58 64 64 64 64 64 65 65 65 65 64 61 60 60 59 57 58 60 59 58 57 54
32 31 30 28 28 32 31 31 33 32 30 29 30 29 29 28 28 29 29 31 36 39 39 37 36 36 38 41 43 63 65 65 65 65 65 64 64 65 65 62 61 60 59 57 59 59 58 58 55
34 31 29 26 30 30 28 29 30 30 29 30 30 29 28 29 30 32 36 39 40 41 42 41 37 35 36 37 40 42 62 63 64 63 63 64 64 64 64 64 62 61 60 59 58 59 59 57 57
30 31 29 28 28 27 27 21 23 27 27 27 26 26 27 31 33 36 37 39 41 43 43 42 41 36 36 37 37 39 41 44 56 61 63 63 63 63 63 63 63 63 62 61 61 60 60 59 57
33 32 28 29 27 26 25 22 20 25 26 25 25 26 31 32 35 37 38 41 44 44 44 43 42 40 40 38 37 38 39 41 43 45 51 60 63 64 63 63 62 62 62 62 61 61 60 60 59
41 33 30 30 29 24 26 24 20 24 25 25 27 34 35 37 37 39 40 43 44 45 44 44 43 42 43 43 43 42 39 39 40 42 44 49 54 57 60 62 62 62 61 60 60 61 61 60 60
38 34 27 24 25 21 25 25 22 24 25 26 32 34 36 38 40 41 42 43 43 43 42 43 43 42 42 43 44 46 47 47 46 47 46 46 47 50 51 58 60 60 61 60 60 60 60 60 60
34 31 22 17 20 22 22 23 23 22 26 30 33 34 36 40 41 41 41 42 40 40 40 41 41 41 42 43 44 46 47 47 48 48 49 49 49 50 50 52 54 57 59 59 59 59 59 59 59
35 32 30 23 21 20 20 20 20 27 28 29 32 35 38 40 40 39 40 39 39 39 40 40 40 41 42 43 45 46 47 47 47 47 47 47 48 48 49 49 50 52 52 53 55 56 57 58 58
37 36 27 26 18 16 18 17 17 25 27 29 31 33 38 40 38 39 39 38 39 39 39 38 38 38 39 42 42 41 42 41 40 39 38 39 40 41 43 47 48 48 48 49 50 51 53 54 50
34 33 31 26 23 17 12 13 19 23 27 27 29 33 38 39 37 38 37 38 38 38 37 36 35 36 37 39 38 38 38 38 37 36 35 34 34 34 35 37 38 38 40 41 44 44 44 45 43
34 33 32 23 21 19 20 16 21 22 26 26 29 35 39 37 37 37 36 37 36 36 36 35 35 35 37 37 37 36 36 36 35 35 35 34 33 33 33 33 33 33 34 35 37 39 40 40 39

GFSSGP_sfc_30mbdewp_072.txt.gz
Dewpoint
53 55 53 47 37 36 32 30 30 25 26 29 30 41 48 45 49 39 61 68 72 72 73 74 74 74 73 73 73 73 72 71 70 68 68 67 66 64 65 67 67 66 64 63 63 63 62 61 59
55 55 49 44 36 32 29 30 28 26 29 29 30 36 50 53 57 62 65 69 71 72 73 73 74 74 73 73 72 72 72 71 70 68 66 65 65 64 64 66 67 66 64 63 62 62 61 60 59
56 55 46 40 37 31 28 29 27 29 29 29 29 40 50 55 59 61 66 69 70 71 72 73 74 73 73 73 72 72 70 69 67 66 65 65 66 65 65 67 68 65 64 63 62 62 61 60 60
50 49 45 41 36 35 32 34 34 28 29 30 43 50 56 59 59 63 68 69 69 70 71 73 73 73 73 72 71 70 68 67 66 65 66 68 67 67 67 69 67 65 65 64 63 62 62 61 61
51 47 41 39 38 38 37 37 35 28 28 29 35 51 56 60 62 66 68 68 68 70 72 73 73 73 72 72 71 70 68 67 66 65 68 68 68 69 68 68 67 64 64 64 63 63 63 63 62
45 45 39 37 37 36 36 36 33 27 28 38 53 54 57 61 62 66 67 67 69 70 72 73 73 72 72 72 71 69 68 67 65 65 69 67 66 68 68 67 66 65 64 64 63 63 63 63 62
43 40 38 38 37 35 36 37 32 27 27 27 51 53 58 61 63 65 67 68 69 70 72 73 73 72 72 71 70 69 68 67 66 65 68 68 67 67 67 67 66 66 65 63 63 63 63 63 63
49 42 38 39 38 37 42 40 36 27 27 30 51 53 57 61 64 66 67 68 69 70 71 71 72 71 71 70 69 69 68 67 66 65 67 68 68 67 67 66 66 65 64 63 63 63 63 64 63
53 42 38 39 41 40 44 43 38 32 34 45 54 58 60 63 63 66 66 67 67 69 70 71 70 70 69 69 69 68 68 67 67 64 63 66 66 67 66 65 65 65 64 63 63 63 63 64 63
46 43 40 41 42 43 45 45 41 33 39 53 59 62 63 63 62 63 65 65 66 67 68 69 69 69 68 69 69 68 68 67 66 64 62 62 63 65 65 64 65 65 64 63 62 63 64 64 61
42 39 40 40 40 46 46 44 45 37 32 48 55 60 61 62 62 61 62 64 64 65 66 68 68 68 68 67 68 67 67 66 65 64 62 60 60 62 63 63 63 63 63 63 63 64 64 62 59
40 39 41 41 47 45 46 47 42 31 33 36 56 59 60 61 61 62 61 62 62 63 64 66 67 67 67 67 67 67 67 66 65 64 62 61 59 58 60 61 62 62 63 62 63 63 63 62 59
40 38 38 37 44 44 46 45 43 31 37 41 57 59 58 59 60 61 62 62 62 62 62 63 65 65 66 66 66 66 66 66 65 65 64 62 61 58 59 60 61 61 62 61 61 62 62 61 59
42 40 38 37 36 37 43 42 41 33 35 41 44 53 58 58 58 60 61 61 61 62 62 63 63 63 63 65 65 64 64 65 64 64 65 63 62 58 59 59 60 60 61 61 60 60 61 61 59
42 37 40 38 37 35 33 37 38 32 33 34 34 34 36 51 59 60 61 61 62 62 63 63 64 64 63 63 62 60 61 62 61 61 64 64 62 58 57 58 59 59 59 60 59 59 59 60 59
40 38 35 36 37 36 32 29 31 33 32 33 33 33 32 32 44 56 58 59 60 62 62 62 63 64 64 64 63 64 65 63 59 59 61 62 62 60 57 56 57 57 58 59 58 58 58 57 57
38 33 33 33 37 36 31 28 30 32 33 31 33 33 31 30 30 32 39 42 44 58 60 63 63 63 63 64 64 64 65 65 65 62 60 60 61 60 59 57 57 58 57 57 58 57 56 56 56
34 33 33 32 35 35 33 32 32 33 31 31 32 33 32 30 30 29 31 33 34 35 37 45 61 64 64 64 64 64 64 64 65 65 65 63 60 59 59 59 59 58 59 58 58 58 58 56 55
35 33 32 33 33 33 34 33 33 32 32 30 31 31 30 28 29 31 31 30 31 36 35 35 36 38 56 63 63 63 63 63 63 64 65 65 65 63 61 60 59 59 58 58 59 59 58 57 56
35 33 31 30 31 32 32 32 33 33 33 30 30 31 30 28 29 29 32 37 38 39 40 37 36 36 38 43 49 63 64 64 64 64 64 64 64 64 64 63 61 60 59 58 58 59 58 58 56
35 32 30 29 30 30 30 30 31 33 32 31 31 30 30 29 29 33 36 38 40 41 42 41 40 36 36 37 40 43 60 63 63 63 63 64 64 64 63 63 63 62 60 59 58 58 58 57 57
33 33 32 28 28 26 28 24 24 31 31 31 30 29 28 29 32 35 37 39 40 42 43 41 40 38 37 37 37 38 40 48 57 56 59 61 63 63 63 63 63 63 62 61 60 58 59 59 57
32 37 31 30 28 27 26 25 24 22 27 29 29 27 28 32 35 37 39 42 44 44 44 43 42 42 43 43 39 39 39 41 43 43 45 51 56 61 63 62 62 61 61 61 60 60 59 59 59
39 31 31 31 30 25 25 24 22 20 23 26 26 26 30 33 37 39 42 44 44 44 44 43 43 43 43 44 45 45 41 40 41 43 43 45 50 52 54 57 61 61 61 60 61 61 60 59 59
37 30 27 26 26 24 25 24 22 24 25 26 27 30 35 36 38 40 42 43 43 42 42 42 41 42 43 44 46 46 47 47 47 48 48 48 49 50 50 54 57 59 60 60 60 59 59 59 59
35 33 25 19 21 20 23 22 23 24 24 27 30 35 37 39 40 41 42 42 40 40 40 40 41 42 43 44 46 47 47 47 48 47 47 47 48 49 49 50 52 52 53 55 56 57 56 56 57
34 32 33 22 21 20 20 21 21 26 27 31 34 36 38 40 41 40 41 39 39 40 40 40 41 41 43 45 44 43 44 43 42 41 42 43 42 44 47 48 49 49 49 49 50 51 51 52 53
36 37 28 26 17 16 19 19 19 25 27 31 33 35 39 40 39 40 39 39 39 39 38 38 38 38 40 40 39 39 38 37 36 35 35 35 34 36 39 41 40 41 42 45 46 47 48 48 46
34 32 32 27 22 17 14 15 19 23 28 31 33 37 39 39 38 39 38 39 39 37 36 35 36 37 38 38 37 36 36 36 36 35 34 34 33 33 34 34 34 35 36 38 41 42 43 43 42
35 34 30 24 24 20 19 14 21 22 28 31 32 36 39 38 38 38 37 38 37 36 35 35 35 36 37 37 36 36 36 36 35 34 34 34 34 34 33 34 34 34 35 36 37 37 38 39 38

GFSSGP_sfc_30mbdewp_075.txt.gz
Dewpoint
58 55 52 44 35 36 32 30 32 27 26 29 30 36 39 52 44 39 62 67 71 72 73 73 73 73 73 73 72 72 72 71 69 68 68 67 65 66 66 67 65 64 63 64 63 63 61 59 61
57 54 47 42 34 30 29 31 29 27 28 33 45 45 51 51 58 63 64 70 71 72 73 73 74 74 73 72 72 72 71 70 69 68 67 65 64 64 66 68 66 64 63 63 62 62 60 59 60
58 54 42 38 36 30 27 30 33 29 29 29 35 49 53 55 61 63 67 70 71 72 73 73 74 73 73 73 72 72 71 70 68 66 65 65 64 64 66 68 66 65 64 63 61 61 60 60 62
52 49 44 40 35 35 32 32 36 35 30 30 46 51 57 60 60 62 70 71 71 72 72 73 74 73 73 73 72 71 69 67 66 65 66 67 65 65 67 68 66 65 64 63 62 61 60 62 62
51 45 39 38 37 39 38 37 36 34 29 29 45 53 56 60 64 68 69 69 69 71 73 73 73 73 72 72 72 70 69 67 66 65 68 67 67 67 69 67 65 65 64 64 62 62 61 62 62
44 44 37 35 35 37 37 37 37 33 29 47 52 55 57 61 66 68 68 68 70 70 72 73 73 72 72 72 71 69 68 67 66 67 69 68 68 68 68 67 65 65 65 64 63 62 62 63 62
43 38 35 36 34 37 35 42 33 34 28 34 54 54 58 61 65 67 67 68 69 71 72 72 72 72 71 71 70 69 67 67 66 69 68 66 67 68 67 66 66 65 65 64 64 63 63 63 62
48 39 36 38 34 37 43 43 42 34 28 38 54 52 57 62 64 67 68 68 69 71 71 70 71 71 71 70 69 68 67 66 66 68 68 67 67 67 68 67 67 66 65 64 63 63 63 63 63
52 40 35 36 38 40 45 43 45 44 35 49 58 58 60 63 66 67 67 68 68 69 68 69 71 70 70 69 68 67 66 66 65 65 67 67 67 67 67 66 66 65 65 64 63 63 63 64 64
47 39 39 40 41 40 44 44 45 43 38 47 59 62 63 65 65 65 65 66 66 66 67 68 70 69 69 69 68 67 67 67 66 64 65 66 66 66 66 65 65 65 64 64 63 63 64 64 62
45 40 41 41 46 47 45 44 47 43 33 36 56 60 62 62 64 65 64 65 65 67 68 69 69 68 68 68 68 67 67 66 66 64 62 62 63 64 65 64 64 64 64 63 63 63 64 63 60
40 42 42 45 49 47 45 46 43 44 40 43 39 61 61 61 62 63 64 64 64 65 66 68 68 68 68 67 67 67 66 65 65 64 62 60 59 60 62 62 62 62 62 62 62 62 63 62 60
39 39 40 47 46 44 44 42 42 43 44 42 47 60 60 61 61 62 63 63 64 64 65 66 67 67 67 66 67 66 66 66 65 64 63 61 59 57 58 59 60 61 61 61 61 61 62 62 60
42 39 43 44 45 42 42 42 45 43 43 37 57 57 58 60 61 61 62 62 62 63 63 64 66 66 66 66 66 66 66 66 65 65 64 62 61 59 58 58 59 60 61 61 60 60 60 61 60
42 39 40 39 40 42 45 43 42 43 42 37 41 55 56 57 59 60 61 61 62 62 63 63 64 65 65 66 65 64 65 65 65 64 65 64 63 60 59 58 58 59 60 60 60 59 59 59 60
39 38 35 37 37 39 41 35 44 44 43 35 33 33 41 49 57 59 60 61 62 62 62 63 63 64 63 64 64 63 62 62 62 62 63 64 63 61 58 58 58 58 59 59 59 59 58 58 58
38 32 35 34 37 35 34 31 40 44 42 34 32 33 31 32 35 47 56 59 59 61 62 63 63 64 64 63 64 63 63 63 61 60 60 61 62 62 60 57 57 58 58 58 58 58 57 57 57
33 33 33 32 35 36 33 30 33 34 33 32 31 33 32 31 31 30 32 36 40 50 51 58 63 64 64 64 64 64 64 64 65 64 62 59 60 61 60 59 58 57 57 57 57 57 57 56 56
35 33 32 33 35 35 34 32 33 34 33 31 31 31 33 31 29 31 32 32 35 36 36 38 48 49 59 63 63 63 63 63 63 64 65 65 64 60 59 59 59 59 57 58 58 58 57 57 56
34 33 31 32 31 33 33 33 33 33 33 33 31 31 32 30 28 29 33 35 37 39 38 36 36 36 39 50 59 63 63 63 63 63 63 64 64 64 63 62 60 60 59 58 58 58 57 57 57
34 33 31 29 30 30 30 30 32 33 33 33 33 31 31 30 28 31 35 38 40 40 41 40 38 35 36 37 40 45 58 62 63 63 63 63 64 64 64 64 63 62 61 60 59 58 58 57 57
32 34 32 29 28 26 29 25 26 29 31 32 32 32 31 30 29 34 37 39 40 42 42 42 40 39 38 38 37 38 41 54 58 56 55 51 59 62 63 63 62 62 61 61 60 59 58 58 57
33 37 32 31 29 28 26 26 26 24 26 30 32 32 30 29 31 35 38 41 44 44 43 42 43 43 44 43 39 38 39 41 42 42 43 46 53 55 57 61 62 61 61 61 60 60 59 58 58
38 32 32 33 30 25 26 26 25 24 23 24 28 30 30 31 34 37 42 44 44 43 43 43 42 43 45 46 46 44 41 42 43 46 45 46 50 51 51 56 59 60 60 60 60 60 59 59 59
35 33 27 25 25 23 26 25 25 24 24 25 25 27 28 33 36 40 43 43 42 42 42 41 42 42 44 46 46 47 47 47 47 48 48 48 48 49 49 51 53 55 57 58 59 59 59 59 58
34 29 25 18 21 21 25 23 24 26 27 26 27 27 32 35 38 41 43 42 41 40 40 41 42 42 44 45 46 46 47 46 46 45 46 45 47 47 48 49 49 49 50 51 54 54 55 54 54
34 32 30 23 21 20 21 22 21 23 24 26 28 32 35 38 40 42 42 40 40 40 40 41 41 42 44 43 42 40 40 39 38 37 38 37 37 40 43 43 43 44 45 47 49 49 49 50 49
35 36 29 27 21 17 18 20 17 20 23 29 32 34 38 40 41 41 40 39 39 39 38 38 39 40 40 39 39 38 37 36 36 35 34 34 34 35 36 37 37 37 39 42 44 44 46 46 45
34 33 33 31 24 17 15 15 20 19 21 28 34 37 39 40 39 40 39 39 39 37 36 36 37 38 38 37 36 36 36 36 35 35 34 34 34 34 34 34 35 35 36 38 40 40 43 42 41
34 32 33 26 24 20 18 17 21 21 23 31 34 38 40 39 39 39 38 38 37 36 35 35 36 37 37 36 36 36 36 36 35 35 35 34 34 34 35 35 35 35 36 36 37 37 38 38 38

GFSSGP_sfc_30mbdewp_078.txt.gz
Dewpoint
59 56 53 42 32 35 28 28 33 29 25 28 29 31 34 49 45 37 62 67 70 71 73 73 73 72 73 73 72 72 71 70 68 67 67 66 67 66 67 65 64 63 63 64 63 62 61 63 64
59 55 46 41 31 26 25 33 30 30 29 40 43 48 50 51 59 62 65 70 71 72 73 73 73 73 73 72 72 72 70 69 69 68 67 65 65 66 68 66 65 64 63 63 62 61 60 62 61
59 54 40 36 34 27 22 30 35 36 35 30 39 52 54 55 62 63 65 71 72 72 73 73 73 73 73 72 72 71 70 70 69 67 65 65 64 66 69 66 65 64 63 62 61 60 60 61 63
52 49 44 35 33 34 31 32 37 35 34 30 43 50 57 60 62 64 68 70 71 72 72 73 73 73 73 73 72 71 70 68 67 66 66 65 65 66 69 66 65 64 63 62 60 60 62 63 63
51 45 37 36 36 38 38 37 37 35 33 29 45 51 56 60 64 68 69 70 69 71 72 73 73 73 73 72 72 70 68 67 66 66 68 66 66 67 69 67 66 65 64 62 61 61 63 63 63
46 44 35 33 35 37 37 40 36 35 33 33 52 55 57 63 66 67 69 70 70 70 72 72 73 73 72 72 71 70 69 67 66 66 68 68 67 68 68 66 65 65 65 63 62 62 63 63 62
43 39 35 33 34 35 36 44 39 37 35 28 53 53 58 63 66 68 68 70 70 71 72 72 72 72 72 72 70 69 68 67 67 69 69 67 68 67 67 66 66 65 65 64 63 63 63 63 62
46 39 36 35 33 34 43 43 43 43 37 41 53 52 54 61 67 67 68 69 70 71 71 71 71 71 70 70 69 67 66 66 67 69 67 65 68 67 67 67 67 66 65 64 64 63 63 64 63
51 38 34 36 35 36 45 41 45 45 40 39 59 59 60 64 67 66 67 67 68 69 68 68 70 70 70 69 68 67 66 65 66 68 67 66 66 67 67 66 66 66 65 64 63 64 63 64 63
45 39 37 39 42 42 45 44 45 42 41 42 46 57 63 65 65 64 64 64 65 65 66 66 69 69 69 69 67 66 66 65 64 65 66 66 66 66 66 65 65 65 65 64 63 64 63 64 62
45 39 41 45 47 46 44 45 46 43 36 39 43 43 56 64 65 63 64 63 64 65 65 66 67 69 68 68 67 66 66 65 65 63 64 65 65 65 65 64 64 64 64 62 63 63 63 63 61
42 43 42 47 48 45 44 44 42 44 43 44 43 43 50 61 63 63 63 63 65 65 65 66 68 68 68 68 67 66 66 65 65 64 62 61 61 62 63 63 62 62 62 61 61 61 62 62 61
39 42 45 47 45 43 44 43 42 41 43 44 42 51 58 60 62 63 64 64 64 65 66 67 68 68 67 67 67 66 66 65 65 64 63 61 59 59 59 60 60 61 61 61 60 60 61 61 61
41 40 45 46 44 44 42 44 44 41 43 43 43 40 57 60 61 62 63 63 64 64 65 66 67 67 67 66 66 66 66 66 65 64 63 62 60 59 57 57 58 59 60 60 60 59 59 60 60
42 41 42 44 43 43 45 41 43 43 43 43 42 39 49 58 60 61 62 63 63 63 64 64 66 66 66 66 65 65 65 66 65 65 64 63 62 61 59 58 58 58 59 60 60 59 59 58 59
39 40 37 41 44 45 42 36 42 44 45 44 42 40 35 53 58 60 61 62 62 62 63 63 64 65 65 65 65 65 64 65 65 65 64 64 64 62 60 59 59 59 59 59 59 58 58 57 57
38 34 34 37 43 44 41 36 40 45 45 44 43 39 33 33 36 56 59 61 61 62 62 63 63 64 64 64 64 64 63 63 63 63 62 63 64 63 61 60 59 59 58 58 58 58 57 57 57
32 32 34 33 37 41 40 33 42 45 44 44 43 39 33 32 32 32 37 47 49 54 61 62 63 63 64 64 63 63 63 63 63 62 61 60 61 62 62 60 59 58 57 57 57 57 57 57 57
34 33 33 34 35 35 38 34 40 41 44 44 42 39 32 33 32 30 32 34 37 38 42 50 61 62 63 63 63 63 62 63 63 64 64 64 61 60 60 60 60 58 57 57 57 57 56 56 56
34 33 32 32 33 35 34 33 34 35 38 40 39 34 31 32 31 29 31 33 36 37 37 36 40 42 48 59 62 62 62 62 63 63 63 63 64 64 62 60 59 59 59 58 58 57 57 57 56
33 32 31 30 30 32 32 31 33 34 34 34 34 33 32 32 31 29 33 35 39 39 39 38 36 35 36 37 42 46 57 61 62 63 62 62 63 63 63 64 63 62 60 60 59 58 57 57 56
30 34 32 31 29 28 29 26 28 31 32 33 33 34 33 32 30 30 35 38 39 41 41 39 39 39 39 38 37 38 41 51 56 55 51 49 54 58 61 62 63 62 62 61 60 59 58 57 57
32 36 32 30 28 28 27 26 26 26 26 30 31 32 33 32 30 31 36 39 42 42 42 42 43 44 44 42 38 37 37 40 42 42 42 45 51 52 53 56 59 61 61 61 60 60 59 58 58
37 32 32 32 28 25 26 26 26 25 25 25 27 31 32 31 30 34 39 43 43 43 43 42 43 44 46 46 46 42 40 42 43 45 45 47 49 49 49 52 55 58 59 59 59 59 59 58 58
34 32 27 25 25 22 25 25 25 26 25 24 24 25 29 31 32 36 42 43 42 42 42 42 43 43 45 46 46 46 46 46 46 47 47 47 47 47 47 49 50 51 53 56 58 59 58 58 57
33 31 25 18 20 21 24 23 23 27 27 27 26 27 27 30 35 40 43 42 42 41 41 42 42 43 45 45 45 46 45 45 44 44 44 42 43 44 45 46 46 46 47 50 53 54 53 53 53
34 30 27 26 21 20 21 23 22 23 24 24 25 27 29 32 37 41 43 41 40 40 40 41 42 43 43 42 40 39 38 37 37 36 36 36 36 37 39 39 40 40 43 45 47 49 50 49 49
35 34 28 28 21 18 18 19 18 18 19 23 26 29 32 36 40 42 41 40 40 39 40 40 41 41 40 39 38 37 36 36 35 35 35 34 34 35 35 36 37 37 39 42 43 45 46 45 45
34 33 32 28 24 18 15 15 20 20 20 20 25 33 36 38 40 41 40 39 39 38 37 38 39 38 38 37 37 36 36 35 35 35 34 34 34 34 34 35 35 36 37 38 40 42 43 42 41
34 31 33 27 23 22 18 18 20 21 22 23 29 36 39 39 40 40 39 39 37 36 36 36 37 37 37 36 36 36 36 36 35 35 35 35 35 35 35 35 35 35 36 36 37 38 38 38 38

GFSSGP_sfc_30mbdewp_081.txt.gz
Dewpoint
60 57 53 43 31 33 24 26 33 30 26 29 33 32 36 47 45 39 63 67 68 70 71 72 73 73 73 72 72 71 71 70 68 67 67 67 66 67 65 64 63 64 64 64 63 62 64 64 62
60 55 46 40 30 24 24 32 30 32 33 34 44 50 50 48 60 62 64 69 69 70 71 71 73 73 73 72 72 71 70 69 68 66 66 66 66 68 66 65 64 63 63 63 61 62 64 62 61
58 52 40 35 32 24 20 31 36 36 36 34 38 53 54 54 62 63 65 69 70 70 71 72 72 73 73 73 72 71 70 69 68 67 65 64 66 69 67 66 64 63 62 61 61 61 62 64 64
52 49 44 32 30 32 31 34 37 35 35 30 46 52 58 61 62 64 68 69 70 71 71 72 73 73 73 73 72 71 71 68 67 66 66 64 66 69 67 66 65 64 62 60 61 62 64 64 64
50 44 37 34 34 36 37 37 38 35 34 31 46 50 57 61 64 67 68 69 68 70 71 71 73 73 73 72 72 71 69 68 66 67 66 65 66 69 68 66 65 65 62 61 61 63 64 64 63
46 43 34 32 34 37 37 41 37 37 35 30 50 54 57 64 66 67 69 69 68 70 71 71 72 73 72 72 71 70 69 68 67 68 67 67 67 69 68 66 66 65 64 62 62 63 63 63 63
45 40 35 35 35 34 37 43 40 39 32 35 53 52 58 62 66 68 68 67 68 69 71 71 71 71 72 72 70 70 69 68 67 69 68 68 68 69 67 66 66 66 65 64 63 63 63 63 62
46 43 37 35 34 34 42 43 44 43 37 40 55 51 54 61 67 68 68 68 68 69 70 71 70 70 70 70 69 68 67 67 70 69 67 67 67 68 67 66 66 66 65 64 64 63 63 64 63
49 40 37 36 34 37 44 41 45 45 41 46 53 55 60 64 67 67 67 67 66 68 68 70 70 69 70 69 68 67 66 66 69 67 65 67 67 67 67 66 67 66 65 64 64 64 64 65 63
45 39 37 38 40 41 44 43 45 42 37 40 42 43 46 65 65 64 64 64 65 66 66 67 69 69 69 68 67 66 65 64 66 67 66 66 66 66 66 65 65 65 65 64 64 64 64 64 62
46 40 42 45 46 45 44 44 45 42 35 42 43 42 46 58 63 62 63 63 64 65 66 67 68 69 68 67 67 66 65 64 63 65 66 66 66 66 66 65 64 65 64 63 62 63 63 62 61
43 43 44 47 47 45 44 44 42 43 42 44 44 43 49 50 61 62 63 63 64 64 65 66 67 69 69 68 67 66 65 65 64 62 63 64 64 64 64 64 64 64 63 63 62 61 61 61 61
40 43 46 47 43 43 44 44 42 42 43 44 44 44 44 56 59 62 64 64 64 64 64 66 67 68 68 68 67 66 65 65 64 64 62 61 61 61 61 62 62 62 62 62 61 60 59 60 60
40 44 45 44 43 44 41 44 44 43 43 43 43 43 43 49 60 61 63 63 63 65 65 66 66 68 68 67 67 66 66 65 65 65 64 62 61 60 59 59 59 59 60 61 60 59 58 58 59
42 41 43 44 43 43 40 38 39 44 44 43 43 44 43 39 58 60 62 63 64 64 65 66 67 68 67 67 67 66 66 66 66 65 65 64 63 62 60 59 58 58 59 60 60 59 59 58 58
39 39 37 42 43 44 38 35 38 44 43 43 44 44 43 40 41 59 61 63 63 64 64 65 66 67 67 67 66 66 66 66 66 65 65 65 64 63 62 61 60 60 59 59 59 59 58 58 57
37 34 34 39 42 43 39 35 37 44 44 42 43 44 44 42 36 37 59 62 63 63 63 63 64 65 66 66 66 66 65 65 65 65 65 65 65 64 63 62 62 61 60 59 59 58 58 57 57
33 33 34 35 41 42 40 39 40 43 44 43 42 43 43 43 39 34 39 54 60 61 62 63 63 64 65 65 65 65 64 64 64 64 63 63 63 64 64 63 62 60 60 59 58 58 58 58 57
33 32 31 33 37 40 40 38 38 43 42 42 43 43 43 42 37 32 32 38 44 46 56 61 62 63 64 63 63 63 63 64 64 64 64 63 62 61 62 62 61 60 59 59 59 58 58 57 57
33 32 32 33 35 38 37 38 37 42 42 42 42 41 42 39 34 32 31 33 37 39 42 47 58 59 62 63 63 63 63 63 63 64 64 64 64 64 62 61 61 61 60 59 59 58 58 58 58
33 32 31 31 32 34 34 34 34 36 41 42 42 42 41 38 34 32 31 33 38 38 38 38 40 42 43 49 51 52 59 61 63 63 63 62 63 63 64 64 63 61 60 60 60 59 58 58 58
31 34 32 30 30 30 30 28 31 34 37 37 39 37 37 35 33 32 31 35 37 40 41 38 38 38 38 39 39 42 47 53 57 55 51 50 54 56 58 61 63 63 63 62 62 61 60 59 58
31 35 32 30 29 28 27 28 27 29 33 33 34 35 35 35 34 33 32 36 40 42 41 43 44 44 45 40 39 38 38 41 43 43 44 46 51 51 52 55 57 60 61 61 61 61 60 59 58
34 32 32 31 28 25 27 27 26 26 26 27 32 34 34 34 34 33 34 40 42 43 43 43 44 45 47 47 45 42 41 42 43 46 46 48 49 49 49 51 53 56 58 59 60 60 60 59 58
34 30 26 24 24 22 26 26 25 27 27 26 26 27 31 33 33 33 36 41 42 42 42 43 44 44 46 46 46 47 47 47 47 47 46 46 47 46 47 48 49 50 51 54 58 59 59 59 58
33 31 23 16 19 20 24 23 23 27 27 28 27 26 28 29 32 35 40 42 42 42 42 42 43 44 45 45 45 45 45 44 43 43 43 40 41 42 42 43 44 44 46 49 53 54 54 55 54
33 30 28 26 21 20 21 23 23 23 24 24 25 26 27 28 32 37 42 42 42 41 42 42 43 44 44 42 41 39 38 38 38 37 37 36 36 37 38 39 40 41 43 45 48 51 50 50 50
34 32 27 29 21 18 19 19 17 17 19 21 21 23 29 32 35 41 42 41 41 40 41 42 43 42 41 40 39 38 37 36 36 36 35 35 35 35 36 37 38 38 40 42 45 47 46 46 46
34 32 32 27 25 19 16 14 20 21 20 19 21 23 31 35 39 41 41 40 40 39 39 40 40 40 39 38 37 37 36 36 35 35 35 35 35 35 36 36 37 37 38 39 42 43 43 42 42
34 32 31 25 23 23 20 20 21 19 22 23 24 30 37 38 40 41 40 39 38 38 38 38 39 38 37 37 37 36 36 36 36 35 35 35 35 35 35 36 36 36 36 37 39 39 39 39 39

GFSSGP_sfc_30mbdewp_084.txt.gz
Dewpoint
61 55 52 45 29 27 19 22 31 28 25 29 33 29 36 45 41 40 62 64 63 65 68 70 72 72 71 71 71 71 70 70 68 68 67 67 67 65 64 64 64 64 64 64 65 65 64 62 62
59 52 47 39 25 21 19 27 26 31 32 36 42 43 40 41 56 61 62 65 64 66 68 69 73 72 72 72 71 70 69 68 67 66 67 67 68 66 65 64 63 64 63 63 64 64 63 62 61
57 50 38 30 24 21 18 28 33 35 34 39 39 49 49 51 60 60 62 65 64 66 67 69 73 72 72 72 71 70 69 68 67 67 66 67 69 67 66 64 63 62 62 62 62 63 64 64 65
51 46 39 28 24 25 26 33 36 34 33 34 39 47 57 61 61 61 65 65 64 65 67 71 73 73 72 72 71 70 70 68 67 65 65 66 69 67 66 65 63 62 61 62 63 64 64 64 66
49 43 31 27 25 29 33 37 36 34 33 34 43 48 54 61 63 64 65 66 64 65 66 69 73 73 73 72 72 71 69 67 67 66 65 66 69 68 66 66 64 62 61 62 63 64 64 64 66
44 40 30 26 27 34 35 38 36 35 33 38 44 49 56 64 65 66 67 66 67 64 66 69 72 73 73 72 72 69 69 68 67 67 66 67 69 68 66 66 66 63 62 62 63 64 64 63 65
43 37 30 28 29 31 34 39 36 34 31 39 51 47 58 62 66 68 67 67 67 65 66 67 69 71 72 72 70 69 69 68 69 69 68 68 69 68 67 66 66 65 63 63 63 64 63 63 62
46 41 31 31 31 28 38 40 42 39 37 47 57 51 55 61 67 68 67 67 66 65 66 66 67 68 67 68 69 69 68 67 68 68 68 69 69 68 67 67 66 66 65 64 63 63 63 64 62
48 40 35 34 34 32 41 38 44 43 43 45 46 49 52 61 67 67 67 66 66 66 67 65 66 66 66 66 67 67 66 69 69 67 67 66 64 65 65 66 66 66 65 64 64 63 65 64 62
45 41 37 36 36 35 40 38 42 39 41 41 42 45 50 65 66 65 65 64 65 65 66 66 66 66 66 66 65 64 63 63 63 64 63 61 62 62 63 65 66 66 65 64 64 64 64 62 57
43 41 40 39 38 39 41 42 44 37 39 42 41 43 50 59 64 65 65 65 64 65 65 67 68 66 66 65 65 64 62 60 60 62 62 61 62 62 61 61 61 61 63 59 60 60 57 56 55
42 42 42 44 46 43 41 42 41 42 41 43 44 43 51 51 62 62 63 63 63 64 65 66 67 67 66 65 65 63 63 62 61 60 59 60 60 60 59 58 58 58 57 57 57 54 54 55 55
40 42 44 46 44 43 44 42 38 41 43 43 43 43 44 50 58 62 63 64 64 63 64 65 67 66 67 66 64 64 63 63 62 62 61 61 61 60 60 59 57 56 57 57 57 55 52 52 53
40 41 43 43 43 42 41 43 43 41 43 42 43 42 43 42 50 60 62 63 64 64 64 65 66 66 67 66 65 64 64 64 64 63 63 62 61 61 61 60 58 57 58 58 58 57 55 53 53
39 39 43 43 42 42 40 38 41 40 43 41 41 42 43 43 42 55 60 62 64 64 65 65 65 66 66 65 65 65 65 65 64 64 63 64 63 62 61 61 59 59 59 58 58 58 58 57 57
36 35 34 40 42 42 40 34 35 40 40 38 39 40 42 43 42 40 58 61 63 64 65 65 66 66 65 66 66 65 65 64 64 64 64 64 63 63 63 62 61 60 60 60 60 59 58 58 58
36 29 30 38 42 41 39 34 35 40 40 37 37 38 40 42 43 41 39 60 62 63 64 65 65 64 66 66 66 65 65 64 64 64 64 64 64 64 63 62 62 61 61 60 60 60 59 58 58
31 28 30 30 38 39 36 35 36 40 40 37 36 37 39 41 42 42 37 49 61 63 65 64 64 64 65 66 66 66 66 64 64 64 64 64 64 63 63 63 63 62 61 61 60 60 60 59 59
31 31 30 32 37 36 34 34 34 36 39 38 38 37 37 40 41 42 36 35 52 60 63 64 64 64 64 64 64 64 64 65 65 65 65 64 64 63 62 62 62 62 61 60 60 60 59 59 59
31 28 28 32 35 37 34 34 35 35 37 37 37 38 37 39 41 41 35 33 41 53 55 61 63 64 64 64 64 64 64 64 64 65 65 65 65 64 64 64 63 62 62 61 61 60 60 59 60
30 26 28 28 32 36 34 30 33 35 37 38 38 41 40 39 40 40 37 33 36 41 46 50 56 62 63 63 63 62 63 64 64 64 64 64 64 64 65 65 64 64 63 62 62 61 60 59 61
29 33 32 31 30 26 33 23 28 30 33 36 36 37 39 41 41 40 36 33 36 39 43 42 43 46 48 48 55 59 60 60 61 61 59 56 56 57 59 61 62 63 64 63 63 64 62 62 60
29 34 32 31 30 29 29 27 24 28 29 32 34 35 37 40 40 37 35 35 37 41 43 42 41 42 41 40 40 41 42 43 45 45 46 48 52 52 53 55 57 59 60 62 62 62 62 61 60
35 33 32 30 28 23 22 26 21 23 24 27 32 34 36 37 38 36 36 37 39 44 44 45 44 45 45 44 42 41 41 41 41 44 45 46 48 50 50 51 54 56 57 58 59 61 61 61 60
33 29 25 23 25 18 25 24 19 22 27 26 27 28 32 36 37 36 35 37 40 43 44 45 45 45 46 46 46 46 46 46 46 46 46 46 47 47 47 49 50 52 53 54 56 59 60 60 59
29 26 20 15 15 15 25 20 17 24 27 28 29 28 28 29 33 35 35 37 40 42 43 43 44 45 45 46 46 46 47 46 45 46 44 43 43 44 44 44 45 46 48 51 54 56 56 57 57
32 31 29 26 22 21 19 23 24 23 24 25 26 28 28 29 30 32 34 38 41 42 43 43 44 45 45 44 43 42 42 42 41 40 40 39 39 38 40 41 42 43 44 46 50 53 53 52 52
34 31 27 30 21 17 18 19 14 17 20 20 20 22 23 29 30 32 37 41 42 42 43 43 44 44 43 42 41 41 40 39 39 39 38 38 37 37 38 39 40 40 42 44 46 49 49 49 47
33 30 31 26 24 19 13 13 20 21 20 21 22 25 29 31 33 35 39 41 41 42 42 43 43 42 41 41 40 40 39 38 38 38 37 37 37 37 37 38 38 39 39 41 44 45 44 44 44
33 29 29 24 22 24 22 18 21 20 21 23 26 31 36 37 37 39 40 41 40 40 41 41 41 40 40 40 39 38 38 38 37 37 37 37 37 37 37 37 37 38 38 40 42 41 42 41 41

GFSSGP_sfc_30mbdewp_087.txt.gz
Dewpoint
61 56 49 46 33 26 21 23 25 25 25 29 29 30 38 46 42 48 57 57 63 65 66 70 72 72 70 71 70 70 70 69 69 67 67 66 65 64 64 64 64 63 65 66 64 63 63 62 63
56 51 47 37 30 20 19 22 26 27 27 32 33 37 37 47 56 58 59 59 62 64 67 67 72 72 71 71 71 70 69 68 68 67 68 67 66 64 64 64 64 64 64 65 64 63 62 62 62
59 49 38 32 25 21 17 21 23 31 33 32 33 41 41 52 57 58 59 61 62 64 65 67 71 72 72 72 71 70 69 67 67 67 67 69 67 65 64 62 63 63 63 63 64 64 65 65 64
52 45 40 30 25 23 21 25 32 31 30 33 33 36 54 59 58 59 61 60 62 63 64 71 73 72 72 72 71 70 68 68 66 65 67 69 67 66 65 62 62 62 63 64 64 65 65 66 65
51 41 31 29 26 25 27 32 34 29 30 31 38 45 54 61 61 61 61 60 61 61 68 70 73 72 72 72 71 71 68 67 66 65 66 69 68 66 65 63 62 62 63 64 64 64 65 66 65
46 42 31 27 26 27 30 34 33 31 31 36 41 45 57 63 62 61 62 60 61 62 66 69 72 72 72 71 71 70 69 67 67 66 66 68 68 67 66 65 63 62 62 64 64 64 64 65 65
47 38 32 28 26 29 32 35 31 32 30 40 48 42 59 63 66 66 66 64 61 64 65 68 69 71 72 72 70 69 69 68 69 68 68 69 68 67 66 66 65 63 63 63 64 64 64 63 64
46 41 31 28 27 30 33 35 38 35 37 49 54 47 56 62 67 68 66 66 62 64 66 67 68 68 67 69 69 69 68 68 69 69 69 69 68 68 67 67 66 65 64 63 63 64 64 63 62
49 42 35 28 29 31 36 36 41 42 43 44 46 48 53 60 67 67 66 66 63 61 65 65 67 66 65 66 67 67 67 67 68 67 67 67 65 66 64 66 66 65 64 64 63 63 65 64 62
45 41 35 31 31 33 37 33 37 37 40 42 42 49 60 64 66 65 65 64 64 62 65 64 65 65 66 66 65 63 63 63 64 64 65 63 61 62 62 65 66 66 65 64 63 64 64 62 57
43 40 36 38 42 38 40 36 39 33 37 41 42 46 58 64 64 65 64 64 64 63 64 66 65 64 65 65 63 61 61 60 61 61 60 58 59 61 60 62 62 62 62 61 60 62 59 55 53
42 41 42 39 45 40 39 38 37 34 39 42 43 46 56 60 63 64 63 64 63 64 64 67 66 66 65 64 64 60 60 59 58 59 59 57 57 58 57 56 56 57 56 55 55 53 52 53 53
41 43 41 44 43 40 39 38 35 39 42 43 43 44 48 57 60 62 63 63 63 63 63 65 65 65 66 64 63 60 60 60 60 59 57 58 58 58 58 58 55 54 54 56 55 54 51 50 50
39 46 42 45 42 41 40 38 42 37 42 42 42 41 44 46 55 60 61 63 64 63 64 64 65 66 64 64 64 61 60 61 61 61 60 60 59 59 59 58 57 56 57 57 58 56 55 53 52
35 38 41 39 43 40 40 37 40 36 41 39 41 41 42 45 46 57 60 60 63 64 64 64 64 65 65 65 64 63 63 63 61 61 61 61 61 60 60 59 59 58 58 57 57 58 58 57 57
32 35 36 40 39 39 39 30 35 37 38 38 37 38 40 43 44 44 53 58 60 63 64 65 65 65 65 65 64 63 63 62 61 61 61 61 61 62 61 60 60 60 59 60 59 59 58 58 58
32 28 30 34 37 37 38 32 32 35 39 38 36 35 38 40 43 43 43 52 59 61 63 63 65 65 65 64 65 64 63 61 61 61 61 61 62 62 62 62 61 61 60 60 60 60 59 58 58
28 24 23 26 36 37 36 34 31 36 39 38 36 35 35 37 42 42 41 41 58 61 62 63 64 63 63 65 65 66 65 63 63 61 61 62 63 62 62 62 62 62 61 61 61 60 60 60 60
23 24 21 23 32 35 34 32 32 33 36 37 36 34 33 35 40 42 39 36 50 61 62 63 63 64 64 64 64 65 64 65 64 63 63 63 63 63 63 63 62 62 62 61 61 61 60 60 61
30 24 25 29 32 32 29 29 29 31 32 34 35 34 34 34 37 42 39 35 36 54 60 62 63 64 64 64 64 65 65 65 65 65 66 65 65 65 64 63 62 63 63 62 61 61 61 60 61
28 25 29 27 30 32 30 29 29 30 31 33 35 35 36 37 35 39 40 38 35 44 53 58 62 63 64 65 65 65 65 65 64 64 64 64 64 64 65 65 64 64 64 63 62 62 61 60 61
26 28 25 27 28 24 29 18 18 23 28 31 33 34 34 39 39 38 40 39 36 38 47 48 55 61 63 61 63 62 62 62 62 62 63 62 58 60 60 61 62 63 64 64 63 63 63 62 60
26 32 30 29 28 27 28 26 21 24 26 28 30 32 33 36 40 39 41 39 38 41 46 44 45 48 49 52 55 58 59 56 53 50 51 51 53 53 53 55 56 58 60 61 62 62 62 62 61
34 31 29 30 28 28 24 24 20 20 24 25 26 29 31 34 37 41 40 39 38 43 45 44 43 43 43 42 42 44 43 42 42 44 44 45 47 50 50 51 53 55 56 57 57 59 60 61 61
31 26 24 23 25 20 21 18 20 19 22 23 24 26 30 32 35 38 39 38 38 43 45 45 44 45 45 45 43 43 44 44 43 45 45 45 46 48 48 49 50 51 53 54 55 56 56 59 59
27 26 20 15 13 14 23 17 17 20 22 21 26 28 28 29 34 37 39 38 38 43 45 44 44 44 45 46 46 46 47 46 46 46 45 44 44 45 45 45 46 46 47 49 53 56 57 57 57
28 27 26 25 22 18 16 19 19 20 23 25 26 27 28 29 29 33 38 37 38 42 43 43 43 44 45 45 45 44 44 44 43 43 42 41 41 39 40 42 42 43 44 46 48 52 53 53 52
36 31 27 28 18 13 9 15 13 15 18 20 20 21 24 25 29 30 33 39 39 41 43 43 43 44 44 43 42 42 41 41 41 41 40 40 39 39 39 40 40 41 41 43 45 49 50 50 49
31 30 30 27 19 15 9 12 18 18 19 22 23 27 30 30 30 30 33 39 41 42 43 43 43 43 43 42 41 41 40 40 39 39 39 38 38 38 38 38 39 39 39 40 43 45 46 46 46
32 28 27 23 21 22 20 19 19 20 21 23 28 32 34 36 35 35 36 40 41 42 43 43 43 42 42 41 40 40 40 39 39 38 38 38 38 37 37 38 38 38 39 40 41 42 42 42 42

GFSSGP_sfc_30mbdewp_090.txt.gz
Dewpoint
62 60 58 49 41 33 26 25 28 28 27 30 30 36 49 54 53 50 59 63 66 68 70 72 72 71 70 70 69 69 69 69 68 68 65 64 64 65 65 64 64 67 65 64 63 63 63 63 62
59 55 48 45 34 25 23 24 26 27 30 32 35 39 46 54 57 55 58 64 65 67 69 71 72 71 71 71 70 70 69 69 68 69 67 65 64 63 64 63 64 65 63 64 63 62 62 63 64
61 57 44 40 31 27 20 24 26 30 33 32 34 44 50 55 57 57 61 63 65 66 67 70 72 72 72 71 71 70 68 68 68 69 68 66 65 63 62 64 64 64 63 64 64 65 65 65 65
55 49 45 31 30 27 25 23 25 31 31 31 35 52 58 60 57 59 61 62 65 65 67 71 73 72 72 71 71 70 68 67 67 68 69 67 65 63 61 63 63 64 65 64 65 65 66 65 66
53 45 39 33 29 27 29 33 33 30 29 33 34 54 58 60 61 60 60 62 63 65 69 72 72 72 72 71 71 69 67 66 66 67 69 68 66 65 62 62 63 64 64 64 65 65 66 66 66
50 46 34 31 30 28 33 34 33 32 30 37 38 57 60 65 62 60 60 61 64 69 69 71 72 72 72 71 71 69 68 67 67 67 69 68 67 66 64 62 62 64 64 64 64 64 66 65 65
48 43 37 31 29 28 32 34 31 31 30 43 51 53 61 63 66 65 61 60 67 67 69 71 71 71 71 71 70 69 69 68 68 68 69 68 68 67 66 64 63 63 64 65 64 64 63 64 64
50 46 39 33 28 30 33 35 38 38 39 49 50 54 58 63 67 67 66 64 64 66 68 69 70 70 70 70 69 68 68 69 69 69 70 68 68 67 67 67 65 63 63 64 64 64 64 63 62
50 43 38 37 32 33 35 38 40 41 43 44 47 53 58 66 67 66 65 65 64 65 67 68 68 68 67 68 68 67 67 68 68 68 68 67 67 67 66 66 66 65 64 63 63 64 65 63 61
45 42 39 38 39 35 35 36 37 41 42 42 49 60 62 65 66 64 63 63 63 64 65 68 67 66 66 66 66 64 65 66 66 67 67 67 65 65 65 66 66 65 64 64 64 64 64 62 60
45 41 41 38 44 44 38 34 36 38 40 42 43 58 63 64 65 64 63 64 64 64 65 66 66 65 66 65 65 63 63 64 64 65 65 64 63 64 65 65 65 64 63 62 63 63 62 59 57
44 44 42 43 45 44 42 39 37 36 41 43 45 58 62 63 64 64 63 63 63 64 66 66 66 66 66 66 64 62 62 61 62 62 62 59 60 60 59 64 62 63 61 61 60 61 59 55 54
42 42 44 46 45 45 45 41 37 41 42 42 44 54 59 61 63 63 64 64 63 63 64 66 66 66 66 64 64 63 60 59 59 59 59 58 58 58 58 58 56 56 56 56 56 55 52 52 51
42 41 45 46 44 42 40 41 40 41 42 42 42 45 52 59 60 62 63 63 64 63 64 65 66 66 66 65 64 63 61 60 60 60 59 58 60 60 59 59 57 56 57 58 58 56 55 54 51
42 39 43 46 44 41 41 38 39 40 41 41 41 42 45 47 57 59 61 62 64 64 64 64 64 64 65 65 65 63 62 61 62 62 61 60 60 60 60 60 59 58 57 57 58 58 58 58 57
37 41 37 41 41 42 41 34 39 40 40 39 40 41 42 45 46 51 60 61 64 64 64 64 66 64 65 65 65 64 63 62 63 61 62 62 61 61 61 61 61 60 60 60 59 59 59 59 59
32 33 36 38 44 40 40 34 33 38 37 38 38 37 40 43 45 44 49 58 62 64 64 65 65 65 65 65 66 64 63 63 62 62 61 61 61 62 62 62 61 61 60 60 60 60 60 59 59
29 27 29 33 40 39 40 36 35 33 37 37 38 37 36 39 43 43 42 46 58 60 64 64 65 65 65 66 66 65 65 63 63 62 62 61 62 62 63 63 62 62 62 61 61 60 61 60 60
27 26 24 29 38 38 34 34 35 34 38 38 37 37 35 35 42 43 39 39 52 60 62 63 63 64 64 64 64 64 63 64 64 63 62 62 63 63 63 63 63 63 62 62 62 61 60 60 61
30 24 23 32 36 38 32 32 32 32 33 37 37 36 35 35 38 41 38 36 50 60 62 63 63 64 64 64 65 65 64 64 64 64 65 65 65 65 64 64 63 63 63 63 62 61 61 61 61
30 28 27 29 31 31 30 29 28 29 30 31 34 35 35 35 36 41 36 35 37 53 59 61 63 64 64 65 65 65 65 64 64 64 64 65 64 65 65 64 64 64 64 63 63 63 61 60 60
28 28 32 32 29 26 29 24 26 28 28 29 31 33 35 35 36 40 40 37 36 40 55 57 60 63 64 65 64 62 61 60 63 63 64 60 59 59 59 61 62 62 63 63 63 63 62 62 60
28 29 32 32 28 27 28 27 24 24 27 28 30 32 34 35 36 39 40 39 38 45 49 49 53 59 60 60 62 62 62 61 59 58 57 55 54 54 53 54 55 58 60 61 62 62 61 61 61
33 32 29 29 28 27 28 26 24 21 22 26 29 31 32 34 36 39 41 40 40 45 46 47 48 49 48 52 54 56 58 47 46 46 47 48 51 51 51 51 52 54 56 56 57 57 57 58 59
33 29 25 24 25 23 21 24 24 23 22 24 25 27 30 32 35 38 41 39 41 44 46 46 45 45 44 43 43 43 44 42 43 45 45 46 47 49 48 48 49 50 50 53 54 55 56 56 56
31 29 22 17 18 17 20 19 19 19 22 24 26 27 28 28 32 38 40 39 41 45 46 45 45 45 46 45 46 47 47 47 47 46 46 44 45 45 44 44 45 45 46 47 49 53 55 55 55
29 26 28 29 24 18 21 21 21 20 22 24 26 27 29 28 29 37 39 40 43 45 45 45 45 45 46 46 46 46 45 45 44 43 43 41 41 39 40 41 42 43 43 44 46 48 53 53 52
35 34 27 29 20 14 11 11 15 16 18 24 23 25 27 27 28 31 34 39 41 44 45 44 45 45 46 45 44 43 43 42 41 41 40 39 39 39 39 39 40 40 41 42 44 47 50 50 50
34 33 34 28 23 14 14 15 18 19 22 23 27 31 32 32 29 31 33 37 40 43 44 44 44 45 44 43 42 41 41 40 40 40 39 39 39 39 39 38 39 39 39 40 41 45 45 46 47
32 32 34 28 24 23 21 21 20 21 22 24 31 34 35 35 36 34 36 40 42 44 45 45 45 44 43 42 41 40 40 40 39 38 38 38 38 38 37 38 38 38 39 40 41 42 42 42 43

GFSSGP_sfc_30mbdewp_093.txt.gz
Dewpoint
61 62 61 51 36 38 29 27 29 28 29 33 36 48 55 56 53 47 64 68 70 71 72 72 72 71 70 70 68 67 68 69 67 65 65 65 66 66 66 67 65 64 64 63 63 63 62 61 60
60 59 54 47 38 24 24 27 24 29 31 37 39 55 54 54 56 62 65 69 70 71 71 72 72 71 71 70 69 69 69 69 68 66 64 64 64 63 64 65 63 64 63 63 63 63 64 64 64
61 60 46 42 32 27 21 25 26 32 32 32 40 50 57 55 57 59 66 68 69 69 71 72 72 72 71 71 70 70 69 69 69 68 65 63 63 64 64 65 63 64 64 64 64 65 65 66 66
57 55 47 36 30 29 28 30 28 31 30 31 52 55 60 62 59 64 66 68 68 69 71 72 72 72 71 71 70 69 68 69 69 68 66 63 61 63 64 64 64 65 65 65 66 66 65 67 67
57 51 42 38 32 31 29 33 32 30 30 32 47 52 58 63 63 64 65 66 66 69 71 72 72 72 71 71 70 69 67 68 69 69 67 65 62 62 64 64 65 64 65 65 66 66 66 67 66
49 49 36 34 32 31 31 31 33 32 32 41 55 56 59 65 63 62 65 65 68 69 71 72 72 72 72 71 70 68 67 68 69 70 68 66 64 62 62 64 64 64 65 65 65 66 66 65 64
47 43 37 34 32 31 32 32 31 33 41 49 53 56 60 63 66 65 65 68 69 70 71 71 71 71 71 71 70 69 68 68 69 70 69 68 67 64 63 63 64 64 65 65 64 64 65 65 64
49 45 40 37 31 32 33 38 39 40 43 47 54 56 56 62 67 66 68 68 69 69 70 71 71 71 71 70 69 69 68 68 69 70 69 68 67 67 66 64 64 64 65 65 65 64 63 63 62
52 42 39 38 35 36 37 36 39 43 46 50 52 56 62 66 66 65 65 66 67 69 69 70 69 69 69 68 68 68 69 68 68 69 67 67 67 67 66 65 65 64 64 64 64 64 64 62 60
47 41 40 42 41 35 38 36 40 42 43 54 59 60 64 65 64 63 63 64 65 67 68 69 68 68 67 66 66 66 67 67 67 68 67 67 66 65 66 65 65 65 65 64 64 64 63 62 60
46 41 43 46 46 41 38 36 39 41 41 45 58 61 63 64 63 63 63 64 65 66 67 68 67 67 66 65 65 63 64 65 66 67 67 66 65 65 65 65 65 64 64 63 64 63 62 59 58
43 45 45 46 48 42 42 43 36 40 42 47 59 62 63 63 62 63 63 63 64 65 66 66 66 66 66 65 64 63 63 64 65 65 65 64 63 64 64 64 64 62 62 61 61 60 60 59 58
43 42 46 48 49 46 46 44 43 41 43 49 59 61 63 63 63 63 64 63 63 64 65 66 66 66 66 65 64 63 63 63 64 64 63 61 62 61 61 63 62 62 61 60 60 59 58 57 53
43 43 42 45 46 48 43 44 47 41 42 43 56 59 61 62 63 63 63 63 62 64 65 66 66 66 66 64 63 63 61 60 61 61 60 59 59 58 59 59 58 57 57 57 57 56 55 52 51
42 40 41 40 46 46 45 44 42 42 42 41 44 54 58 60 62 63 63 63 63 63 64 66 66 66 65 64 64 64 62 61 60 59 59 59 61 60 59 59 58 57 57 58 58 58 57 57 57
41 38 35 41 45 44 46 39 45 43 41 41 41 45 47 53 59 61 62 63 64 64 64 65 65 65 65 65 65 64 63 62 62 61 60 60 60 61 60 60 60 59 58 58 59 58 58 58 58
35 35 35 38 44 44 42 38 40 40 40 40 40 41 44 46 49 54 60 61 64 64 64 63 65 65 64 65 66 65 64 63 62 62 62 61 61 61 61 61 61 61 60 60 60 60 59 59 59
31 32 36 34 39 42 42 40 39 37 37 39 39 38 40 45 45 45 54 59 63 64 64 64 65 64 65 65 65 66 64 64 63 62 62 62 61 62 62 63 62 62 61 60 61 60 60 60 59
30 29 29 34 40 37 38 39 37 35 37 37 37 38 38 39 44 44 45 51 57 62 64 65 65 65 65 64 64 65 64 64 63 63 62 62 62 62 63 63 62 62 62 61 61 61 60 60 61
29 27 27 36 40 38 38 37 37 35 36 38 38 38 37 37 40 43 41 42 52 59 63 64 65 65 65 65 65 65 64 64 64 65 65 65 65 65 63 63 63 63 63 63 62 62 61 60 61
29 29 27 31 36 38 35 33 32 34 33 37 38 37 37 37 37 42 39 38 48 59 61 62 63 64 64 65 65 64 64 64 63 63 64 64 65 65 65 65 64 64 64 63 63 63 62 60 60
29 32 32 33 33 29 30 23 26 29 29 30 34 37 37 36 37 41 38 36 40 57 60 62 63 63 64 64 64 63 61 60 62 62 63 63 62 61 61 61 61 62 63 63 63 63 63 62 59
29 33 32 33 29 28 28 27 28 26 25 28 29 32 35 35 35 41 38 36 36 46 55 58 60 63 63 64 64 62 61 61 61 62 61 58 56 56 55 55 56 57 58 60 59 60 61 61 60
33 31 31 29 28 25 27 28 26 24 22 27 29 30 32 35 35 37 41 39 37 46 51 50 54 58 59 60 62 62 61 58 58 57 56 54 52 51 51 51 52 54 55 56 56 57 56 56 57
32 30 26 24 24 20 25 26 25 26 25 24 27 30 31 34 35 37 40 39 40 44 46 47 48 50 49 53 55 56 57 52 53 51 49 49 50 49 48 49 49 50 49 51 53 54 55 56 55
32 30 23 16 19 18 22 21 21 23 24 25 27 27 28 29 33 38 40 39 40 42 44 45 45 45 45 44 45 47 46 46 47 47 46 46 47 46 45 45 46 45 46 46 48 51 54 54 54
30 28 29 27 27 21 20 22 22 22 22 24 26 28 28 28 31 38 41 39 41 42 44 44 45 45 45 45 47 47 47 46 46 44 43 43 42 41 42 42 42 43 43 44 45 47 51 53 52
34 34 26 30 21 17 14 19 15 17 19 24 25 27 28 27 30 36 39 40 42 44 45 45 45 46 46 46 45 45 44 43 43 42 41 40 39 40 40 40 40 40 41 41 43 45 50 50 50
34 32 32 29 25 14 12 13 19 19 23 26 30 32 33 32 31 31 34 40 43 45 45 44 45 46 45 44 42 42 42 41 41 40 39 39 39 39 39 39 39 39 39 40 40 43 45 47 48
34 33 32 24 24 23 20 18 22 23 27 30 32 33 33 34 35 34 35 39 41 44 44 44 45 45 44 43 43 43 41 40 39 39 38 39 38 38 38 38 38 38 39 40 40 41 42 43 44

GFSSGP_sfc_30mbdewp_096.txt.gz
Dewpoint
61 62 61 54 39 38 28 30 30 32 32 33 44 50 52 55 52 46 66 68 70 70 71 71 71 70 70 69 67 68 67 66 67 67 68 68 68 69 68 66 65 64 63 62 61 61 61 61 62
61 59 56 48 35 26 27 28 27 42 32 52 53 54 52 53 60 65 67 69 70 70 70 71 71 70 70 68 68 69 68 66 66 67 66 66 66 66 64 64 64 63 63 63 64 63 63 64 65
60 59 48 43 37 23 20 25 26 36 36 35 49 56 55 55 64 64 68 69 70 70 71 71 71 71 70 69 69 70 69 67 65 65 65 65 64 64 62 64 63 63 63 64 65 65 66 66 67
56 54 51 39 28 30 23 30 27 36 41 42 56 55 60 63 60 66 69 69 69 70 71 72 71 71 70 70 70 69 69 67 66 64 63 64 64 65 62 64 64 64 66 65 66 66 67 67 66
56 51 41 39 31 31 30 33 29 30 34 42 50 55 58 63 65 67 68 68 69 70 71 72 71 71 70 70 69 69 70 68 66 64 62 63 64 64 64 65 65 65 65 66 66 66 67 66 64
49 48 37 34 34 32 29 33 32 30 42 49 53 55 59 65 65 67 67 67 70 70 71 71 71 71 71 69 69 69 70 70 68 66 63 62 64 64 64 65 65 65 65 65 66 66 66 64 63
49 43 33 36 32 31 31 32 32 36 48 51 56 48 61 63 66 66 66 68 69 71 71 71 71 71 70 70 69 68 69 70 69 68 66 64 63 64 64 65 65 65 65 65 66 65 65 64 62
50 43 38 34 30 31 33 38 41 44 45 49 57 53 58 63 66 66 67 68 69 70 70 70 70 71 70 69 69 68 68 69 70 69 68 66 64 64 65 65 65 65 65 65 64 64 64 63 61
53 42 36 36 32 33 38 35 41 46 49 55 54 59 61 66 67 66 67 68 68 69 70 70 70 70 69 68 68 68 68 69 69 68 67 67 67 65 64 64 65 66 65 65 65 64 63 61 60
48 41 39 43 42 35 37 37 42 45 51 56 60 64 65 65 64 64 65 66 66 66 68 69 69 69 67 67 67 67 68 68 68 67 66 66 66 65 65 64 64 65 65 65 64 64 63 61 59
46 41 45 47 49 46 37 39 41 43 44 55 57 61 64 63 64 64 65 65 65 66 68 68 68 68 66 65 65 66 67 66 67 67 66 66 65 65 65 64 64 64 64 63 64 63 63 60 58
44 46 46 48 50 46 43 41 40 41 42 53 59 61 63 62 63 63 64 65 66 67 68 68 67 67 65 64 63 63 65 65 66 67 66 65 65 64 64 64 63 62 62 60 61 61 60 59 59
44 46 46 48 48 48 47 45 43 42 48 59 62 62 62 62 62 63 64 65 66 66 67 67 67 66 65 64 63 62 63 64 65 65 66 65 64 64 64 63 63 62 61 60 60 60 59 59 58
44 45 43 46 48 48 45 45 42 42 49 58 60 61 62 62 62 63 63 63 65 66 66 66 66 66 65 64 64 63 62 64 64 64 64 63 63 63 63 62 62 61 61 60 59 59 57 53 53
44 41 42 43 47 47 48 41 41 44 42 53 56 60 61 62 63 62 62 62 64 65 66 66 66 66 65 64 64 63 62 62 63 62 62 60 61 60 59 59 59 59 58 57 57 58 56 55 56
40 39 35 43 45 46 45 39 43 47 43 43 50 55 58 60 61 62 63 63 63 64 65 66 66 66 65 64 64 64 63 61 61 61 60 59 60 60 59 59 58 57 57 57 58 58 58 58 58
37 33 35 38 44 44 42 40 41 45 44 41 42 47 52 56 59 61 62 63 63 63 64 65 66 65 65 65 65 64 63 62 62 61 60 59 60 61 60 60 60 60 59 58 58 59 59 58 58
31 34 35 34 41 43 42 40 42 42 43 40 40 41 44 46 53 58 60 62 63 64 64 65 65 65 65 65 65 66 65 63 63 62 61 61 61 61 61 61 61 61 60 60 60 60 60 60 59
31 34 33 34 39 39 38 39 42 43 42 38 39 40 40 43 46 47 53 60 62 64 64 64 64 64 64 65 64 64 64 65 63 63 62 62 62 61 61 62 62 62 61 60 60 61 60 60 61
31 29 28 35 37 36 36 33 38 43 41 37 37 39 38 38 41 45 45 53 59 62 64 64 63 64 64 63 63 64 64 65 64 65 64 63 63 63 63 63 63 63 63 63 62 62 61 61 61
29 27 29 33 39 39 36 34 36 38 38 37 38 38 38 38 37 41 44 43 51 60 63 63 64 64 64 64 64 64 64 64 64 64 64 65 65 65 64 64 64 64 64 63 63 63 62 60 61
28 32 30 34 35 31 37 26 27 31 33 34 34 37 38 38 37 38 43 41 42 55 61 63 64 64 65 65 64 63 63 62 63 62 63 63 64 64 64 64 62 62 63 62 61 63 63 62 60
29 33 33 34 31 28 31 28 27 28 27 29 31 33 37 37 37 38 41 41 39 44 58 61 63 63 64 64 64 63 62 62 61 62 62 61 59 60 59 59 60 61 60 61 60 59 60 61 60
32 32 32 35 32 27 27 28 26 27 26 26 27 30 32 36 37 38 40 40 38 38 49 57 60 62 62 63 63 62 61 60 59 60 59 57 55 54 54 54 54 56 56 56 56 56 56 56 56
33 34 27 26 25 24 26 28 26 26 27 24 25 27 30 32 36 36 40 40 39 40 44 51 55 58 59 61 61 61 61 59 59 59 57 55 52 50 49 50 51 51 52 53 53 54 54 55 55
31 33 25 17 19 20 26 23 22 25 27 27 26 29 30 31 33 35 38 40 40 41 46 49 50 53 51 53 55 53 57 55 56 54 54 53 51 49 48 47 47 47 47 47 48 50 53 54 54
31 29 29 27 26 21 20 21 22 23 21 25 26 28 28 29 32 33 38 40 40 42 45 46 46 47 46 45 47 49 50 51 50 50 50 49 48 46 44 44 44 44 43 44 44 46 47 52 52
32 32 29 30 22 18 17 20 17 18 21 24 26 27 28 28 32 39 40 40 41 42 44 45 45 45 45 46 46 46 46 46 45 44 44 42 41 41 41 41 41 41 41 41 42 43 45 51 50
33 31 30 27 24 18 13 14 17 19 19 24 27 29 30 30 30 33 39 40 41 44 44 44 45 45 46 45 44 44 43 42 41 41 40 39 39 39 39 39 39 39 39 40 40 41 44 46 47
34 31 30 24 23 22 18 16 23 25 26 29 32 33 33 34 32 33 36 39 42 44 44 44 45 46 45 44 43 42 41 41 40 39 39 39 39 39 38 38 38 38 39 39 40 40 42 42 43

GFSSGP_sfc_30mbdewp_099.txt.gz
Dewpoint
61 62 61 55 43 38 33 33 32 36 38 37 45 50 48 51 46 43 66 67 70 70 71 71 71 71 69 66 66 65 67 68 70 70 70 70 69 68 66 65 64 62 61 62 63 64 64 64 65
62 60 56 50 37 30 30 29 31 38 38 53 53 55 52 52 63 64 66 69 70 70 71 70 71 70 69 68 66 65 66 67 68 69 69 69 67 66 65 64 64 63 62 62 62 63 65 66 67
60 58 51 45 39 26 22 27 29 38 44 41 50 57 55 59 64 65 68 69 70 70 70 70 70 70 69 68 68 66 66 66 67 67 68 67 66 65 64 64 63 63 64 64 65 66 66 67 65
57 56 52 41 33 30 22 24 28 42 44 45 51 54 60 63 63 67 69 69 69 70 70 71 70 70 69 69 69 67 65 65 65 66 66 66 65 64 64 64 64 64 66 66 66 67 68 66 65
57 51 42 39 33 31 28 32 35 43 45 45 54 54 59 64 66 68 69 69 69 70 71 70 71 70 69 69 70 69 66 64 63 64 64 65 63 64 64 64 65 66 66 66 66 67 67 65 64
50 51 39 34 33 31 28 31 31 41 44 45 51 55 60 66 67 68 69 69 69 70 70 70 71 70 70 69 69 70 68 66 63 63 64 64 64 64 64 64 65 66 66 66 66 67 66 64 63
46 45 38 33 33 29 30 32 31 41 42 44 53 54 61 64 67 67 68 69 69 70 70 70 70 70 69 69 70 70 69 68 66 64 64 65 65 65 64 65 65 65 66 66 66 66 64 63 62
49 47 37 35 32 30 31 38 42 46 47 52 56 53 58 63 66 67 68 69 69 69 70 69 70 70 69 69 69 69 70 69 68 66 64 65 65 65 65 65 66 65 65 66 66 65 64 63 61
50 42 34 34 31 30 35 38 43 49 50 56 57 59 61 66 66 66 66 67 67 68 69 69 69 69 68 68 68 68 69 69 68 67 64 64 64 65 65 65 66 66 65 65 64 64 63 61 59
47 41 37 46 44 35 37 39 44 47 52 56 60 63 64 65 63 64 63 64 65 66 68 68 67 68 68 67 67 67 68 69 68 66 66 65 64 64 63 64 65 66 65 65 65 64 63 61 58
47 40 46 48 49 46 38 40 43 47 47 54 58 61 62 63 61 63 64 65 65 66 67 68 67 68 66 66 66 67 67 68 67 66 66 65 65 64 63 63 63 63 64 63 64 63 62 59 58
40 48 48 48 48 46 43 41 42 41 43 52 61 62 63 62 61 61 59 62 65 66 67 68 68 67 65 65 65 66 66 66 67 66 66 65 64 64 64 63 63 62 62 60 61 60 60 59 58
39 43 46 48 48 47 45 44 41 46 57 60 62 62 62 62 62 57 58 59 64 66 67 67 67 66 65 64 63 65 65 65 66 66 66 65 64 63 64 63 62 61 61 59 58 59 59 59 58
41 46 44 47 46 47 45 43 42 42 57 59 60 60 62 62 62 61 60 59 64 65 67 67 67 66 64 63 62 62 63 64 65 66 66 65 64 64 63 63 62 61 60 60 59 59 59 57 54
44 39 40 43 45 45 47 40 43 46 50 57 58 58 60 61 62 61 63 62 62 64 66 67 66 66 65 63 63 62 62 63 64 64 64 65 64 63 63 63 62 61 60 60 59 57 58 55 55
40 38 34 42 44 44 44 39 43 46 43 46 52 57 58 60 62 62 63 63 65 66 66 66 66 66 65 63 64 63 62 62 63 63 63 62 62 62 61 61 59 59 58 57 57 58 58 57 58
37 32 33 36 44 42 43 40 41 44 43 41 41 48 55 57 59 62 63 63 64 65 66 66 66 66 65 65 64 64 63 62 62 62 61 61 60 61 60 59 59 58 57 57 57 58 58 58 58
33 33 36 34 41 42 39 40 43 44 43 42 40 40 44 51 56 59 62 63 63 64 65 65 66 66 65 65 65 64 64 62 61 61 61 60 60 60 60 60 60 60 59 59 59 59 60 59 59
34 34 33 36 40 39 38 39 41 43 42 40 40 39 40 43 46 51 56 61 62 63 64 64 64 65 65 65 64 64 64 64 63 62 61 61 60 61 61 60 60 61 60 60 60 60 59 60 60
31 32 31 35 40 37 38 37 40 42 42 41 40 39 38 40 41 45 47 53 60 63 63 64 64 64 65 65 65 65 64 65 64 64 63 62 62 62 62 61 61 62 62 62 62 61 61 61 61
29 29 29 31 38 38 36 35 36 39 41 42 41 39 38 39 39 40 44 45 53 59 62 63 63 64 64 64 64 63 64 64 64 64 64 64 63 63 63 63 63 64 64 63 62 62 61 60 61
28 31 29 36 35 31 35 23 28 36 37 39 40 38 37 38 39 38 40 44 44 54 60 63 63 64 64 64 63 62 62 62 63 63 63 64 64 64 64 64 64 64 63 62 62 63 62 62 58
29 33 32 36 32 29 34 27 27 29 33 34 37 36 36 37 39 38 38 41 43 44 56 61 63 64 64 64 63 63 62 63 62 62 63 63 63 63 63 63 63 62 62 61 61 61 62 62 61
32 33 35 35 31 27 28 29 26 27 27 29 32 32 33 34 36 38 38 40 42 41 50 58 61 62 63 63 63 63 63 61 61 61 61 59 58 58 58 58 58 58 58 58 58 57 57 56 56
34 31 27 26 26 23 26 30 27 28 27 26 27 28 28 30 34 36 37 39 40 39 42 50 58 60 61 62 62 62 62 61 60 59 59 57 55 54 54 53 53 52 53 53 53 54 54 55 54
33 32 25 18 20 24 27 26 27 25 26 28 27 26 28 29 32 35 36 38 39 40 41 45 50 56 59 59 60 58 59 59 58 58 57 56 54 52 49 49 49 48 47 47 48 49 50 53 54
32 30 33 29 25 20 25 22 21 22 23 24 25 28 28 30 31 33 35 37 39 40 42 43 48 53 53 53 54 53 54 54 55 54 54 54 53 51 50 48 46 45 44 43 44 44 45 47 51
32 33 29 30 21 18 18 18 16 18 20 23 26 27 28 28 34 38 36 38 39 41 44 46 47 48 47 46 47 48 50 51 50 50 50 49 46 45 43 42 42 41 41 41 41 41 43 46 50
33 30 30 29 27 20 15 14 20 21 19 22 26 28 28 29 31 36 40 40 41 43 44 44 45 45 45 46 45 45 46 46 45 45 43 42 41 41 40 40 40 39 39 39 40 40 41 44 46
35 31 30 25 24 21 17 16 23 25 25 23 27 31 32 32 31 33 38 41 41 42 43 43 44 45 45 45 44 43 43 42 41 41 40 39 39 39 39 39 39 39 39 39 39 39 41 41 42

GFSSGP_sfc_30mbdewp_102.txt.gz
Dewpoint
60 62 62 55 46 41 39 36 39 39 41 44 42 47 46 47 44 37 65 66 69 70 70 71 70 69 67 65 66 68 70 70 71 70 70 69 69 68 66 65 64 63 63 64 64 65 65 65 65
58 59 57 51 41 36 35 33 37 39 41 46 53 54 52 49 63 64 65 69 69 70 70 70 71 69 67 65 66 68 70 70 70 70 70 69 68 66 65 63 62 62 63 64 65 66 66 67 67
56 58 51 47 39 34 28 31 33 39 50 47 53 56 55 57 63 65 68 69 70 70 70 71 70 68 67 65 66 68 69 69 69 69 69 68 67 65 65 64 63 63 64 65 66 67 66 66 67
55 55 52 42 37 35 28 27 29 45 45 49 55 53 61 63 63 67 69 69 69 70 70 71 70 69 69 67 66 67 68 68 68 68 68 67 66 65 64 64 64 65 66 66 67 67 66 67 68
55 53 43 39 37 35 27 28 31 39 44 46 53 54 59 63 67 68 68 69 68 69 70 70 70 70 70 68 67 66 66 66 66 67 66 65 65 64 64 64 66 66 66 67 67 66 65 65 66
48 48 36 35 36 34 28 30 39 39 42 41 46 53 59 66 67 68 67 67 68 69 70 69 70 70 70 69 68 66 64 65 65 66 66 65 64 64 64 65 65 65 66 67 67 66 64 64 64
44 44 34 38 35 31 28 32 42 43 42 41 50 53 61 65 67 68 68 68 69 70 69 70 70 70 69 70 69 68 65 64 65 66 66 65 65 64 64 65 65 65 66 67 67 65 63 63 63
44 46 38 38 32 29 31 34 40 44 43 50 51 49 57 63 67 68 68 68 69 69 69 69 69 69 69 69 69 69 67 65 65 65 66 65 65 65 66 66 65 66 66 66 66 65 63 62 60
46 38 38 37 36 29 36 38 46 48 48 55 53 55 60 66 67 67 66 66 67 68 68 69 68 68 68 68 69 69 68 67 65 65 65 65 65 65 65 65 66 66 65 65 64 64 62 60 59
40 39 38 39 42 35 35 38 46 49 53 54 58 61 64 65 65 64 64 63 65 66 67 67 67 67 67 67 68 68 69 68 66 64 63 63 64 64 64 65 66 66 65 65 64 64 63 59 57
40 39 42 42 48 47 37 42 43 49 49 52 52 61 63 63 62 61 62 63 63 64 67 66 66 67 66 66 66 67 68 68 66 64 64 64 63 63 63 63 64 64 64 63 63 62 61 58 57
37 39 40 47 49 46 39 41 44 43 47 56 61 62 62 61 56 50 61 63 64 66 67 67 66 67 66 65 65 66 67 67 66 65 65 64 63 63 62 61 62 61 62 60 60 59 59 57 57
37 38 43 48 49 47 45 42 43 47 55 60 61 61 61 60 60 60 64 64 64 65 67 67 66 66 65 65 65 65 66 67 67 65 65 64 63 63 62 62 61 61 60 59 58 58 58 58 58
39 40 40 45 47 46 43 43 43 47 49 59 59 60 59 59 60 60 60 59 61 65 66 67 67 66 65 64 63 64 65 65 66 66 65 64 63 63 63 62 62 61 60 59 58 58 58 58 55
40 36 37 44 45 44 45 42 43 45 51 56 58 60 60 59 59 57 58 55 56 58 65 66 66 67 65 63 62 63 64 64 65 66 66 65 64 63 63 63 62 61 60 60 59 58 58 57 55
38 35 32 38 43 43 42 40 42 45 45 45 49 56 59 60 59 58 58 57 61 59 58 57 66 66 65 63 63 61 62 63 64 64 65 65 64 64 63 62 62 61 60 60 58 57 57 57 57
37 31 32 34 42 42 41 40 42 44 43 41 41 45 53 58 61 61 61 59 60 58 55 57 65 66 65 64 63 63 61 62 63 63 63 63 64 63 62 62 61 59 59 57 57 57 58 57 58
33 32 34 32 39 39 37 38 39 41 44 42 41 40 43 50 57 61 62 62 59 59 62 65 66 66 65 65 64 64 63 62 62 62 62 62 61 61 61 61 59 59 57 57 57 57 59 59 59
35 34 33 36 41 36 36 35 38 40 40 41 41 40 38 41 46 54 61 63 63 63 64 65 65 63 66 65 64 63 63 63 62 61 62 61 61 60 60 60 59 60 59 58 58 59 59 59 60
34 33 33 37 40 37 37 33 37 37 39 40 41 41 39 38 40 42 50 59 62 62 63 64 63 64 64 65 65 64 64 64 63 63 62 62 61 61 61 60 60 60 60 60 60 60 60 60 61
29 30 30 33 39 39 38 34 37 38 38 40 41 42 40 39 39 39 42 48 58 61 62 63 64 64 65 64 65 64 64 64 64 64 63 63 62 62 62 62 62 61 62 62 62 62 61 58 61
27 31 30 36 34 28 35 22 33 36 35 38 39 39 40 39 39 39 40 43 46 55 61 63 63 64 64 64 63 62 61 60 63 63 63 64 64 63 63 63 63 63 63 63 63 63 62 61 56
30 34 32 37 32 32 34 28 27 35 34 36 35 38 40 39 38 38 39 40 43 45 52 60 62 63 63 63 63 63 62 62 62 62 63 63 63 63 63 63 63 63 62 62 61 60 60 61 60
33 34 34 34 31 27 29 29 26 28 31 33 35 35 37 38 37 38 39 40 40 43 46 56 61 62 63 63 63 62 62 61 61 61 61 61 60 60 60 60 60 60 60 59 59 58 57 57 56
34 30 26 25 26 23 26 30 27 29 29 28 28 30 33 34 34 35 37 38 39 39 41 51 57 59 61 62 62 63 62 62 61 60 60 58 57 57 57 58 58 58 58 56 55 54 54 54 54
32 29 23 17 20 23 28 27 28 28 27 27 29 27 27 28 28 29 35 37 38 39 40 43 50 55 59 60 61 61 61 61 60 59 58 58 57 55 54 53 51 51 50 49 48 49 50 51 52
32 31 31 25 23 20 24 26 23 23 23 23 24 27 27 29 32 32 34 37 38 39 39 41 45 51 56 58 59 58 58 58 58 57 56 55 54 52 51 50 48 47 45 44 44 44 44 45 48
33 33 28 30 21 18 19 19 16 17 19 22 24 26 28 29 35 38 37 35 38 40 41 44 46 48 51 53 54 53 53 53 53 53 54 53 51 50 48 47 45 43 42 41 41 41 42 43 46
33 32 31 29 26 19 15 14 19 20 21 20 24 27 28 29 32 38 40 40 40 42 43 44 46 48 48 47 47 48 49 50 50 51 50 49 48 46 44 42 40 40 39 39 39 40 41 42 43
34 33 32 25 24 22 17 18 22 24 28 26 24 29 31 31 31 35 39 41 41 42 43 44 45 45 46 45 45 45 45 45 45 44 43 42 41 40 40 39 39 39 39 39 39 39 40 40 40

GFSSGP_sfc_30mbdewp_105.txt.gz
Dewpoint
55 57 61 56 44 45 38 39 39 40 42 45 44 48 46 47 45 40 65 66 68 69 70 69 70 69 66 67 69 70 70 69 70 70 70 70 69 67 65 65 64 65 63 64 63 65 66 66 66
56 57 58 51 41 36 37 39 38 40 42 47 52 53 51 47 61 63 65 67 68 69 69 68 70 68 65 68 69 70 71 70 70 70 70 70 68 66 65 64 63 64 64 65 65 65 66 67 66
54 56 52 46 41 36 34 35 36 39 46 46 49 55 54 54 62 63 66 68 69 69 69 69 69 68 65 68 69 70 70 70 70 69 69 69 67 65 64 63 64 65 66 66 66 67 67 68 67
52 53 52 43 38 38 36 31 33 43 49 53 55 52 61 63 63 65 67 68 68 69 69 70 69 68 66 69 70 70 70 69 69 69 69 68 66 65 63 64 65 66 67 67 67 67 68 68 67
51 50 40 37 38 39 38 28 36 43 47 51 53 52 58 63 67 67 67 67 68 68 69 68 69 68 67 68 69 69 69 69 69 69 68 67 65 64 65 64 65 67 66 66 66 66 67 66 65
45 47 36 34 37 39 37 34 35 44 48 50 50 51 57 65 67 67 67 67 68 68 69 68 69 69 67 67 68 68 68 68 68 68 67 65 64 64 64 65 65 67 67 66 66 65 65 66 65
43 40 35 34 38 38 37 33 34 42 46 48 51 48 58 64 66 67 66 67 68 69 68 68 68 69 69 67 67 67 67 67 67 67 66 65 65 65 65 64 65 65 67 67 66 64 64 64 64
44 43 38 35 38 36 35 32 37 40 40 50 51 48 51 63 66 66 66 67 67 68 68 68 69 68 68 68 67 66 66 66 67 65 66 66 65 65 66 65 64 65 67 67 65 64 63 62 62
46 38 34 35 37 37 33 33 44 49 49 52 50 53 56 65 66 66 65 65 65 67 68 68 67 67 68 68 67 66 65 65 66 66 65 65 64 65 65 65 65 67 67 66 65 63 62 61 60
40 35 36 41 39 40 43 37 45 47 52 50 50 55 59 62 65 64 63 63 65 66 67 67 67 67 67 68 68 67 65 64 65 65 64 64 65 64 65 65 66 66 66 65 64 63 62 57 57
40 36 40 41 43 43 44 42 46 48 47 50 48 55 58 61 64 64 63 63 63 66 66 66 67 67 66 67 68 68 67 65 64 64 64 64 64 64 65 65 65 64 64 63 63 62 59 57 57
37 39 40 42 42 46 44 43 44 47 48 53 53 56 58 57 58 56 62 63 64 65 66 66 66 66 65 66 67 68 67 66 63 63 63 63 63 63 63 63 63 62 62 60 60 58 58 57 57
38 39 40 40 44 49 46 42 44 48 49 56 58 59 61 57 56 58 57 62 64 64 65 65 65 65 65 64 65 67 67 66 65 64 63 62 61 61 61 61 61 60 61 58 58 58 57 57 58
38 39 39 39 42 43 45 43 44 47 47 57 55 59 60 58 57 57 58 62 65 64 65 66 65 65 65 63 64 65 66 67 66 65 64 63 62 62 62 61 61 60 60 59 58 58 58 58 57
39 35 37 40 40 42 44 41 41 45 49 54 53 57 59 57 56 58 61 62 64 65 66 66 66 65 65 63 63 63 65 66 66 66 65 64 63 63 64 63 62 61 60 59 59 59 59 58 56
36 35 32 37 39 38 43 37 42 44 45 48 52 52 54 59 57 57 61 62 63 65 66 66 66 66 65 63 63 63 63 65 66 66 66 65 64 63 63 63 62 62 61 60 60 59 58 57 57
34 28 30 31 38 39 42 39 40 42 43 44 45 49 53 54 58 59 59 58 59 63 64 64 65 66 66 64 63 62 62 63 64 65 66 66 65 64 64 63 63 62 61 60 59 57 58 58 58
31 31 33 31 35 39 38 37 37 40 41 42 41 43 50 55 55 58 58 59 60 60 58 56 59 64 66 64 64 63 62 61 62 63 63 64 65 64 64 63 62 61 60 59 58 57 58 58 58
33 33 32 35 37 38 36 36 35 37 39 40 40 41 42 48 54 60 61 60 60 59 57 55 56 65 65 64 63 63 63 63 61 62 63 63 63 63 63 62 62 60 58 58 57 58 58 59 60
34 34 34 37 39 37 35 34 34 38 37 39 39 40 41 40 45 54 60 61 60 60 61 63 61 64 65 65 65 63 64 64 63 63 63 63 63 62 62 61 61 60 59 59 59 59 60 61 61
31 32 33 32 38 39 35 32 33 36 38 38 39 40 41 41 39 41 50 59 61 60 61 62 61 64 63 63 63 61 64 64 64 64 63 63 63 62 62 61 61 61 61 60 61 61 61 60 61
27 31 31 36 35 29 36 25 30 33 32 35 35 38 40 40 40 40 41 46 55 60 62 62 62 63 62 63 63 59 60 60 62 62 63 64 64 63 63 62 62 62 62 62 63 63 62 60 57
28 34 34 36 32 32 33 29 29 32 30 31 33 38 39 40 40 39 39 40 44 51 59 62 63 62 63 64 63 62 61 61 62 61 63 63 64 63 63 63 63 63 63 63 62 61 60 60 58
35 34 35 34 31 26 28 29 24 30 32 32 34 37 38 39 39 39 39 40 40 44 47 56 61 62 63 63 63 63 62 62 61 62 62 62 61 62 62 63 63 62 62 61 61 60 59 58 58
33 30 26 25 25 22 26 30 26 29 30 29 30 32 35 37 38 38 38 38 39 41 43 51 56 60 62 62 62 63 62 62 61 60 61 60 59 59 59 60 61 60 61 60 60 59 57 56 55
32 30 22 16 20 23 29 27 25 31 31 31 30 30 28 32 35 35 37 37 37 39 41 46 54 56 60 61 62 62 63 62 61 61 60 59 59 58 58 58 58 57 56 55 54 53 53 53 53
32 31 30 23 22 21 23 25 23 22 25 25 24 25 28 28 31 31 31 33 36 38 39 40 46 53 57 60 60 61 61 60 60 59 59 58 57 56 55 54 52 50 48 47 47 46 46 47 49
34 34 29 30 20 17 19 20 18 18 19 21 24 26 28 30 36 39 35 34 37 39 40 41 44 49 54 58 58 58 57 57 57 57 57 56 54 52 51 49 47 45 43 43 43 43 43 44 46
32 31 32 31 27 19 15 14 19 20 22 24 21 28 28 30 35 39 40 39 39 41 42 43 45 47 50 53 54 53 52 52 53 54 53 52 51 49 48 46 43 41 40 40 40 41 42 42 43
33 32 31 27 25 21 18 16 21 24 29 30 25 29 31 31 33 37 41 41 41 42 43 44 46 47 48 48 48 48 49 49 50 50 49 48 47 45 43 41 40 39 39 39 39 39 40 40 40

GFSSGP_sfc_30mbdewp_108.txt.gz
Dewpoint
51 54 59 58 47 42 35 36 38 38 43 45 43 45 44 46 46 45 62 62 63 65 68 68 69 69 68 70 71 69 71 71 71 71 70 70 69 67 66 68 68 66 63 65 68 67 66 66 66
49 50 57 53 42 37 33 34 36 39 43 45 45 49 46 45 54 62 63 64 64 66 68 67 69 68 68 70 70 70 70 71 71 70 70 69 68 66 65 67 66 65 64 65 66 66 66 66 66
51 50 49 46 41 35 32 33 35 38 41 44 45 49 48 48 59 61 64 65 65 66 66 67 69 68 69 70 71 70 70 71 71 70 69 69 67 65 64 66 66 67 64 66 66 67 67 67 66
48 48 49 41 37 39 32 32 37 37 41 44 45 48 58 62 61 62 65 65 65 66 66 69 69 67 70 71 71 71 71 71 70 70 69 68 66 64 65 66 67 66 67 67 67 68 68 67 66
48 47 36 38 32 39 35 33 36 36 41 42 45 50 53 62 65 64 65 66 65 65 66 68 68 68 70 70 70 70 71 70 70 69 69 67 65 64 65 66 66 67 68 66 68 67 67 65 63
41 41 31 33 37 35 40 37 34 34 37 45 47 50 54 63 64 65 66 66 65 65 66 67 68 68 70 70 70 70 70 70 69 69 68 66 65 65 65 65 66 67 66 66 67 67 66 65 63
38 35 32 30 36 36 40 38 31 32 36 41 47 47 56 62 65 66 66 66 64 65 65 66 64 66 69 69 69 69 69 69 68 68 66 65 65 65 64 66 67 67 66 66 65 65 65 65 64
40 37 32 34 36 36 41 41 38 34 35 43 48 46 50 58 66 66 66 65 64 65 65 65 62 59 65 66 68 68 67 68 68 67 65 65 65 66 65 66 65 68 68 66 65 64 64 64 64
42 32 29 35 36 36 37 40 42 37 43 46 48 45 50 61 66 65 65 65 65 65 65 64 61 60 57 62 66 67 67 67 65 65 64 64 61 63 63 63 65 67 68 66 65 64 63 62 62
37 31 34 40 42 39 42 43 41 36 40 46 47 54 59 63 65 64 63 63 63 64 65 63 60 61 62 60 61 62 64 64 63 62 62 58 59 61 61 64 66 67 67 66 64 63 60 58 56
35 32 37 41 43 45 42 40 43 39 37 43 46 51 56 55 56 63 63 63 63 64 65 63 62 62 66 64 59 57 58 59 60 60 59 58 59 62 62 63 64 64 64 61 61 60 55 54 53
32 39 41 42 45 42 43 40 43 42 40 45 46 50 56 55 54 55 58 62 63 64 64 64 63 62 64 66 63 60 56 57 59 59 59 59 59 59 59 59 60 59 59 58 57 55 54 53 54
36 39 41 41 43 41 42 43 43 42 46 50 48 53 55 56 54 56 58 58 60 63 64 64 64 62 62 66 65 66 61 57 55 58 59 58 58 58 58 58 57 56 55 53 52 51 49 50 54
39 38 39 40 39 41 42 43 44 41 45 47 51 51 53 55 55 56 57 56 55 64 64 64 64 61 60 63 64 65 64 62 60 57 57 56 55 54 55 54 54 54 54 52 52 53 53 54 54
39 36 37 38 38 38 41 40 43 42 44 46 51 52 56 54 56 56 56 57 58 64 64 65 64 61 57 57 63 66 66 65 63 61 60 58 57 57 57 56 56 55 55 55 56 56 57 56 54
34 35 32 37 38 39 40 36 41 43 44 46 47 51 56 56 55 57 57 58 62 64 65 65 64 63 61 58 58 62 65 65 65 65 62 62 61 60 62 62 60 59 58 58 57 57 56 56 56
33 27 31 29 39 39 38 37 41 41 44 47 48 51 53 56 56 57 59 59 60 64 65 65 66 64 63 62 61 59 60 63 65 66 66 63 63 61 62 62 61 61 60 59 58 57 56 57 57
27 28 25 26 35 37 36 37 39 40 43 45 47 51 52 54 54 57 59 61 61 64 65 66 66 65 65 64 64 62 60 59 59 62 64 64 63 63 64 63 62 61 60 60 59 57 57 57 57
32 29 20 33 35 36 36 36 37 37 42 42 45 48 51 53 57 59 60 61 61 62 59 62 63 65 65 65 64 64 61 60 60 60 60 61 62 63 64 63 62 62 60 59 59 57 57 58 60
33 31 31 34 36 37 35 34 36 35 39 41 42 43 48 50 55 58 60 60 60 60 60 58 60 64 65 65 64 64 64 64 63 62 61 62 62 62 64 63 62 62 60 59 59 58 58 59 62
33 30 32 30 36 37 35 32 33 36 38 39 40 42 42 48 52 56 57 59 57 60 58 59 60 63 64 65 64 62 62 63 63 64 64 64 63 64 64 63 63 62 62 60 60 60 60 59 61
26 31 32 34 33 30 33 23 33 32 36 37 39 40 42 42 43 49 55 58 56 60 60 60 60 63 64 64 62 59 57 57 61 60 63 63 64 64 64 63 64 63 63 62 62 63 62 60 58
29 34 31 34 31 29 31 27 28 31 31 34 38 38 40 42 42 42 43 50 59 57 59 60 59 61 60 61 58 61 59 59 60 62 61 59 61 64 64 64 64 63 63 63 63 63 62 60 58
36 34 34 33 31 24 23 27 16 28 31 32 35 37 39 41 42 42 44 45 48 56 60 61 60 60 62 61 61 61 61 59 60 60 60 59 60 62 63 64 64 64 64 63 63 63 61 61 60
34 30 24 23 25 19 26 29 20 26 30 30 30 33 34 39 40 40 40 41 41 46 50 58 61 61 60 61 62 60 62 61 60 59 61 60 61 61 62 63 63 63 63 63 62 61 61 59 58
29 30 21 14 16 19 28 25 21 30 30 31 31 30 31 32 37 38 38 40 41 43 45 48 53 58 61 62 62 62 61 61 61 61 62 61 61 61 61 62 62 62 61 61 60 59 57 57 56
34 30 31 25 22 22 22 24 23 21 24 27 27 26 28 29 35 35 35 38 40 40 43 44 49 52 58 62 61 62 63 62 62 62 62 61 61 60 60 59 58 57 56 56 56 56 54 53 53
33 35 29 30 21 15 17 18 16 20 21 22 24 26 29 32 36 37 37 34 34 37 41 43 45 50 54 59 61 60 60 61 61 61 60 60 59 57 57 55 53 51 50 49 48 47 46 46 47
27 29 32 31 29 17 12 13 18 22 26 27 25 28 29 34 38 40 40 39 37 38 41 42 43 48 53 58 59 58 58 58 58 58 57 56 54 53 51 49 47 45 44 43 43 42 42 42 44
30 30 30 26 24 27 20 15 22 27 30 28 26 30 31 34 37 39 41 41 40 41 42 43 45 47 50 54 56 56 54 54 54 54 54 53 52 51 48 46 43 42 41 40 40 40 41 41 41

GFSSGP_sfc_30mbdewp_111.txt.gz
Dewpoint
52 50 57 55 47 46 37 34 33 33 33 41 42 42 43 42 40 45 60 60 59 65 68 69 70 69 69 70 70 72 72 71 71 71 70 69 68 67 69 68 67 64 67 67 65 65 66 65 66
49 50 52 51 42 36 36 36 32 33 34 38 43 44 43 42 51 59 58 60 61 66 68 68 70 69 70 71 70 71 71 71 71 70 70 69 68 67 69 68 67 66 68 68 67 66 64 65 66
45 47 47 42 38 37 33 31 33 33 34 36 42 45 45 44 51 59 61 60 62 67 67 68 70 69 70 71 70 71 71 71 70 70 70 69 68 66 68 67 66 66 66 67 67 67 66 65 65
42 44 45 40 32 37 37 33 32 33 34 39 44 44 49 59 56 59 62 61 66 67 67 69 69 69 69 71 70 70 70 70 70 70 69 69 67 66 67 67 67 65 65 67 67 67 67 66 63
41 42 32 31 36 34 36 36 33 32 33 37 46 44 47 59 61 62 62 63 66 66 66 68 69 70 70 71 71 70 70 70 70 70 69 68 66 67 67 67 65 67 67 68 68 67 66 63 61
38 35 28 26 26 37 35 37 37 33 35 36 44 45 51 60 62 63 64 64 66 66 67 66 68 70 71 71 71 71 70 70 70 69 68 67 66 67 66 65 66 67 67 68 67 66 65 62 62
37 29 26 25 23 24 37 40 40 41 38 36 40 43 54 60 63 64 64 64 66 66 64 64 63 69 70 70 70 70 70 69 69 69 67 64 66 66 66 64 67 67 67 68 67 66 65 63 63
37 33 26 24 25 23 34 40 42 40 42 41 42 40 51 60 64 65 65 65 65 66 65 63 60 68 68 69 70 69 69 69 68 67 66 66 66 64 65 64 65 67 67 66 66 65 65 65 64
37 32 28 24 25 29 37 43 42 44 45 40 39 45 49 61 65 65 65 65 65 65 64 62 57 62 67 67 68 68 68 68 66 65 65 64 62 63 66 65 67 67 67 66 65 64 64 64 64
36 32 28 26 35 40 39 41 43 43 43 38 43 46 59 65 65 64 64 63 64 64 63 61 54 55 63 66 67 66 67 65 65 64 62 58 60 61 62 64 66 67 67 66 64 63 62 60 58
33 33 28 35 42 43 40 41 43 45 43 39 43 54 56 63 63 64 63 64 63 64 63 61 55 51 58 65 66 66 66 64 64 62 58 55 58 61 62 64 65 65 65 63 62 60 56 54 52
33 32 35 39 42 42 41 44 43 44 42 44 49 54 56 61 62 61 57 57 59 64 63 61 55 57 55 57 61 63 63 62 59 58 54 55 58 59 59 62 62 61 62 59 58 55 53 53 52
34 35 39 41 42 42 42 40 40 42 42 43 50 54 56 59 59 58 57 57 57 57 63 61 56 64 60 54 54 55 56 56 56 57 56 56 58 58 58 58 58 57 57 56 55 52 51 49 50
35 37 38 39 40 41 39 37 40 44 43 45 47 50 54 54 55 56 56 54 55 57 59 63 58 63 64 58 57 55 53 54 57 57 57 57 57 57 57 57 56 54 53 51 49 48 48 47 52
37 35 39 38 37 38 39 35 39 43 44 43 43 49 53 54 55 55 53 51 55 57 58 63 61 57 63 63 59 57 55 53 54 55 56 55 55 55 54 53 53 52 52 50 52 52 53 53 53
34 36 33 35 37 39 36 33 39 42 44 41 42 48 52 54 54 55 55 56 57 56 58 64 63 58 58 63 62 62 59 58 57 55 55 53 54 55 56 56 55 53 54 54 55 56 56 55 55
30 26 33 29 37 38 35 32 38 43 43 40 42 46 51 54 54 54 55 56 56 59 59 64 63 60 54 56 61 63 63 63 61 60 60 59 58 58 59 60 58 58 58 57 56 56 55 55 56
28 25 25 27 35 34 33 35 39 40 41 40 45 42 50 54 54 55 57 59 59 60 62 64 63 62 59 57 57 58 62 63 64 65 64 61 61 59 60 61 60 59 59 58 58 56 56 56 56
30 27 23 22 34 33 32 35 38 38 42 41 45 50 50 51 56 57 58 60 59 60 63 65 64 63 63 63 61 60 57 58 59 62 64 63 62 61 61 63 61 61 59 59 59 58 56 57 58
31 26 25 31 33 34 32 33 38 37 39 41 45 50 51 54 55 57 59 60 60 60 61 61 63 63 64 64 64 63 62 61 60 60 59 60 61 62 62 62 62 61 61 60 60 59 57 58 61
29 28 27 28 33 34 35 33 37 36 39 40 43 48 51 54 54 56 58 59 60 60 60 60 60 62 64 64 64 64 64 64 63 63 62 62 62 62 64 63 63 63 63 62 61 60 59 60 61
25 30 30 30 30 24 30 29 35 36 38 39 41 45 47 51 54 55 57 59 59 57 56 60 59 60 63 64 63 62 60 59 61 63 63 63 64 63 64 64 64 64 64 64 62 62 61 61 59
28 32 30 29 28 26 25 24 31 35 35 37 40 41 44 49 53 54 56 58 58 57 56 60 60 61 60 60 60 60 59 60 61 61 61 61 61 63 64 64 64 64 64 63 63 63 63 62 60
33 31 29 29 28 24 21 23 26 31 35 36 38 40 42 44 46 49 55 58 57 59 61 60 60 60 61 60 61 60 60 59 60 60 59 59 60 61 63 64 64 64 63 63 63 63 63 62 60
30 28 24 23 24 18 25 23 21 24 29 35 37 38 40 43 44 45 46 48 54 58 59 58 59 59 60 60 58 60 61 60 59 58 57 56 59 60 60 62 64 64 63 64 64 63 63 62 60
29 28 24 19 17 15 26 21 25 26 29 30 31 33 34 38 41 42 43 45 48 53 56 57 58 58 59 59 59 60 61 60 59 59 58 58 59 60 62 62 63 63 63 63 63 62 61 60 59
31 28 30 26 21 16 17 21 20 22 25 28 28 28 29 30 32 40 41 42 42 46 50 54 56 57 57 59 59 60 61 60 60 60 60 60 60 61 62 62 62 62 61 61 60 59 57 58 58
29 33 27 27 19 13 14 15 17 22 24 24 25 26 29 32 34 37 36 37 40 41 45 46 49 52 57 60 61 61 60 60 61 61 61 61 61 61 60 60 58 57 56 56 56 55 53 53 52
25 27 29 30 28 23 16 17 23 26 27 27 24 28 31 36 38 39 40 38 36 37 40 43 45 49 52 58 61 60 61 62 62 61 61 60 59 58 57 55 53 51 50 50 49 48 47 46 47
27 26 28 23 25 26 24 23 26 27 26 26 28 30 32 35 36 40 41 39 39 39 39 41 43 46 51 56 58 59 59 59 59 58 57 56 55 55 53 50 48 46 45 44 43 42 43 43 43

GFSSGP_sfc_30mbdewp_114.txt.gz
Dewpoint
48 50 56 52 47 46 39 37 37 34 34 38 40 39 40 41 42 42 61 61 67 68 69 70 71 70 70 70 72 72 72 72 71 70 70 69 68 69 69 67 65 67 66 64 67 67 67 66 66
48 48 52 49 41 35 31 35 35 35 35 34 39 39 39 41 55 58 60 60 68 68 69 69 70 70 70 70 72 72 72 71 70 70 70 69 68 69 69 67 66 68 67 66 66 65 65 65 64
46 48 45 43 37 33 28 31 34 35 34 34 33 40 40 45 57 58 59 61 67 68 68 69 70 70 71 71 71 72 72 71 70 70 69 69 69 69 68 67 68 68 69 68 66 66 65 65 62
42 42 45 38 33 34 34 35 35 34 34 35 34 35 45 58 57 59 60 64 67 67 68 70 70 70 71 71 71 72 71 71 70 70 69 69 69 69 68 67 68 68 68 68 67 67 65 63 61
40 40 34 34 34 33 34 33 34 35 37 36 34 37 47 59 61 61 60 67 66 67 69 70 70 70 71 71 70 72 71 71 70 70 69 68 69 68 69 67 66 67 68 68 67 66 63 62 61
36 36 29 27 27 29 34 34 33 33 39 39 37 43 46 61 61 61 62 66 66 67 68 69 70 70 71 71 70 71 70 70 70 69 69 68 69 68 67 65 67 66 68 68 67 65 62 62 61
36 34 28 28 25 24 25 31 36 38 39 42 43 42 54 60 62 62 64 65 66 67 67 67 68 70 71 71 70 70 70 70 69 69 68 67 68 67 65 64 66 67 68 68 67 65 63 63 62
38 35 32 31 25 23 25 25 33 36 36 43 44 45 49 60 63 63 65 66 66 66 66 65 66 69 70 70 71 70 69 69 68 68 65 65 67 65 63 65 67 68 68 68 67 65 64 64 63
41 35 31 29 28 27 24 36 35 38 42 45 46 49 50 57 64 64 64 66 66 64 63 62 66 68 69 69 69 69 69 68 67 65 64 64 65 63 62 65 66 67 67 67 66 65 65 65 63
39 33 30 30 28 27 33 38 40 38 39 42 46 48 48 55 62 63 64 65 64 64 62 59 64 67 68 68 68 68 68 67 65 64 63 62 62 61 63 65 66 67 67 66 65 65 63 61 60
35 32 32 32 33 37 41 40 42 42 39 41 44 47 51 56 60 64 64 64 64 64 63 58 60 66 67 67 67 67 66 65 64 62 62 60 62 63 65 66 67 66 65 64 64 62 60 59 58
31 33 33 33 39 40 39 41 38 39 39 42 43 47 49 54 55 63 63 59 58 59 62 57 55 64 66 66 67 66 65 64 63 62 61 59 61 62 63 62 64 64 64 63 61 59 56 56 53
35 33 35 36 40 41 41 38 39 38 38 43 46 46 49 51 52 63 59 57 58 58 58 59 53 55 65 66 66 66 65 64 62 60 58 58 60 61 62 62 63 62 63 61 60 57 55 52 52
37 37 35 38 39 40 38 34 38 35 37 42 44 47 48 51 51 58 58 57 57 58 58 59 57 55 55 60 62 64 63 59 58 58 57 59 59 59 59 60 60 59 59 56 55 52 50 49 50
36 36 37 38 39 38 39 32 28 32 40 45 46 49 50 52 51 57 57 57 58 58 59 59 59 59 55 55 55 55 56 57 58 58 57 58 58 58 58 57 56 55 53 51 50 49 49 51 53
34 33 33 34 38 37 39 26 27 43 40 44 48 49 49 51 56 57 54 54 57 56 58 59 59 61 61 58 56 55 53 56 57 57 57 56 57 56 55 54 53 54 52 52 54 56 55 55 54
33 30 32 33 38 37 38 33 35 42 44 44 47 46 50 54 57 56 55 56 57 57 58 58 59 62 62 61 57 56 55 55 55 55 55 54 55 55 57 56 56 55 55 56 56 56 56 56 56
33 34 31 31 35 37 35 35 33 39 44 43 45 44 50 55 55 54 55 55 56 57 58 58 59 61 61 62 61 62 60 60 60 58 56 56 57 58 59 61 59 58 59 57 58 57 56 57 56
32 29 28 25 35 34 33 31 34 39 38 41 40 41 51 53 54 55 56 57 57 58 59 59 58 62 58 61 61 62 61 62 63 64 63 61 60 59 60 62 61 60 59 59 59 58 56 56 59
30 30 29 31 34 33 32 32 34 37 39 41 42 44 51 54 55 56 58 58 59 59 59 62 61 61 59 59 59 59 60 62 64 64 64 63 62 61 61 62 62 61 60 60 60 59 57 58 60
29 32 29 29 32 33 33 32 33 38 39 39 43 46 49 52 55 57 58 59 59 59 59 60 61 61 61 62 62 62 61 61 60 60 61 61 62 62 62 62 63 63 63 62 61 61 59 59 60
28 34 30 27 27 29 33 24 33 36 37 40 41 48 52 53 56 56 56 58 59 59 58 60 59 61 62 63 62 61 61 61 62 62 63 62 63 63 63 63 64 64 64 63 62 62 61 61 59
29 31 30 28 26 27 25 24 36 36 36 38 41 46 51 54 55 55 54 56 57 59 57 58 59 60 61 62 62 61 61 61 63 63 62 61 61 63 64 64 64 63 64 64 63 62 62 61 60
30 30 30 28 27 24 23 23 31 33 36 38 40 43 47 51 54 54 55 59 57 56 57 59 58 58 60 61 61 59 57 58 60 61 60 60 59 60 63 64 63 63 63 63 63 63 62 61 61
30 28 23 23 23 21 24 22 25 26 30 38 40 42 44 49 50 52 54 58 57 54 56 59 58 58 60 60 60 59 58 59 59 59 59 59 59 59 60 62 63 63 62 62 63 63 62 62 61
29 30 26 21 22 25 24 26 20 26 29 38 40 36 42 45 46 48 49 54 57 56 57 59 59 56 57 58 59 60 61 60 60 59 59 58 58 58 60 60 61 61 62 63 63 62 62 63 62
28 27 30 29 23 19 19 20 23 26 26 27 32 34 32 31 42 45 46 48 50 54 58 58 58 57 58 59 60 60 59 61 59 59 59 59 59 59 60 60 62 62 63 63 63 61 60 61 59
29 32 26 27 20 15 17 19 23 26 26 27 28 30 33 37 37 39 41 42 44 47 52 57 58 58 58 59 59 59 60 60 60 60 57 59 59 60 61 61 61 61 61 61 61 59 58 58 57
28 26 27 29 27 23 22 25 27 27 26 28 30 33 36 38 40 40 39 37 36 39 46 51 55 56 56 58 59 59 59 59 61 60 58 59 60 60 60 60 59 58 57 57 57 55 55 54 51
25 24 27 23 22 27 27 26 27 28 30 30 30 31 32 35 39 41 40 39 38 38 41 43 44 49 52 58 60 60 61 61 60 61 61 60 59 58 57 56 55 54 53 52 50 49 49 48 47

GFSSGP_sfc_30mbdewp_117.txt.gz
Dewpoint
48 50 55 51 45 45 37 35 39 36 36 39 40 40 41 42 42 42 62 65 68 69 70 71 71 71 72 73 73 72 72 71 70 71 70 69 69 69 67 67 68 66 66 68 67 66 66 66 67
48 49 51 48 39 34 21 32 34 37 37 36 36 39 37 36 53 59 61 68 69 69 70 70 71 71 71 73 73 72 72 71 70 71 70 70 69 69 68 67 68 66 68 67 67 66 66 66 65
47 47 42 41 37 31 26 31 31 35 37 36 34 35 38 40 56 60 63 68 68 69 69 70 71 71 70 73 73 72 72 71 71 71 70 70 70 69 68 68 68 68 67 67 66 66 64 62 60
43 42 43 38 34 34 33 33 33 33 34 37 38 37 39 58 57 59 67 68 68 68 69 71 71 71 71 73 73 72 72 71 70 71 70 70 69 69 69 69 69 69 68 67 66 65 63 60 61
42 39 35 34 32 34 34 34 34 33 32 33 41 39 41 50 60 63 67 68 68 67 69 70 71 71 71 72 72 72 72 71 70 70 70 70 69 69 69 69 69 69 68 67 65 63 62 61 61
36 37 32 28 28 30 30 31 34 34 33 35 39 42 43 56 61 65 66 67 67 68 69 70 71 71 71 71 72 72 72 71 70 70 69 70 69 69 68 69 69 69 68 67 65 62 61 61 61
37 34 27 30 29 29 28 28 27 31 32 34 41 39 43 45 59 65 66 67 68 69 69 69 70 71 71 70 72 71 71 71 70 69 69 69 69 68 67 67 67 69 68 67 64 62 62 62 62
39 36 31 31 29 27 28 27 26 27 31 37 41 39 43 53 56 57 66 67 67 68 68 68 69 69 70 70 71 71 71 70 69 68 69 68 68 66 65 66 67 69 68 67 66 64 63 63 62
42 36 30 31 30 31 31 29 31 36 37 36 39 42 47 50 52 54 57 66 66 66 67 67 68 69 70 70 70 70 70 69 68 67 67 66 65 61 62 65 67 69 68 68 66 65 65 63 61
39 35 32 33 32 30 30 33 36 39 37 38 39 40 45 49 54 54 54 64 65 65 65 66 68 68 69 69 69 69 68 68 66 64 64 64 62 60 62 64 66 67 67 67 66 66 64 62 60
38 32 34 32 33 33 37 35 41 40 39 39 38 38 43 48 52 55 56 63 64 64 63 65 67 68 68 68 68 68 67 65 64 63 62 63 61 62 64 65 66 66 65 65 65 63 61 60 58
33 36 34 33 34 34 35 39 40 40 39 39 40 42 43 47 49 52 53 61 64 62 61 64 67 68 67 67 67 67 66 65 63 62 62 62 62 62 64 65 65 65 64 63 61 59 58 58 57
37 38 36 35 37 36 40 39 39 36 37 39 40 40 45 47 47 50 54 56 63 59 59 58 65 67 66 67 66 66 65 64 62 62 61 62 62 62 62 62 63 64 63 62 61 58 56 55 53
39 39 39 38 36 40 39 40 40 37 38 38 38 40 48 47 50 51 54 52 60 59 58 58 58 62 66 66 66 65 64 63 62 60 61 61 62 63 61 61 62 63 63 62 60 59 56 53 51
38 36 36 36 37 38 39 38 38 37 35 36 34 42 48 49 53 52 54 56 60 60 60 58 59 59 62 66 66 65 65 63 61 59 58 60 61 62 61 61 61 61 61 59 57 53 50 49 50
36 34 30 33 38 40 38 31 34 38 42 40 44 46 49 50 53 52 57 58 59 59 60 60 61 60 59 62 65 63 63 60 58 58 59 59 59 60 60 60 59 57 55 51 51 52 53 54 53
35 29 31 33 34 38 37 34 35 37 41 42 45 47 48 51 55 53 54 56 57 60 60 60 59 59 60 59 58 59 58 58 58 57 58 58 58 57 57 56 54 53 53 53 54 56 56 56 55
31 32 34 33 34 37 37 36 37 38 39 43 45 46 47 53 56 56 56 57 58 59 59 60 60 59 61 59 57 56 57 56 57 56 55 56 56 56 56 55 54 54 55 56 56 56 56 56 56
36 31 32 34 37 36 36 36 35 34 38 39 43 43 47 52 57 57 57 57 57 58 58 58 60 61 63 59 58 56 56 56 56 55 55 56 56 57 58 57 57 57 57 57 57 57 56 56 59
30 30 34 38 36 35 33 32 33 35 37 39 39 41 49 54 55 56 56 57 58 57 58 59 59 62 62 61 59 57 58 59 59 58 58 57 58 58 60 61 60 59 59 59 58 58 57 57 60
28 30 32 31 30 34 33 30 33 35 37 39 39 46 51 52 54 56 56 57 59 59 59 60 58 62 62 63 62 62 62 62 61 62 60 60 60 60 60 63 63 61 61 60 60 60 58 58 60
28 32 30 29 29 25 32 25 32 37 37 38 40 48 50 50 54 56 57 58 59 59 60 59 61 61 61 62 61 60 59 59 60 61 63 62 62 62 62 62 63 63 63 62 61 62 61 60 59
30 31 29 30 28 27 25 28 32 39 38 40 42 47 51 53 54 55 57 58 58 58 57 58 60 61 61 60 61 60 58 59 61 62 62 62 63 63 63 63 63 63 63 62 62 62 62 62 61
31 30 29 29 29 22 26 28 25 26 36 41 41 44 51 53 54 54 56 57 58 58 58 58 58 60 60 60 58 56 54 60 59 61 61 61 62 63 63 63 63 63 63 63 62 62 61 61 61
28 28 21 22 22 21 25 24 25 26 40 41 40 41 48 52 53 53 56 56 55 56 57 57 57 58 60 60 58 58 58 58 58 60 61 60 59 60 61 62 62 62 61 62 62 61 61 61 61
28 29 25 19 20 23 26 20 25 26 30 43 44 42 41 47 52 53 54 54 54 54 56 58 56 58 59 60 59 59 60 59 59 59 59 59 59 59 60 61 62 62 62 61 61 61 62 62 61
27 25 29 28 29 24 23 26 26 28 28 33 40 41 41 39 42 48 51 55 55 56 56 58 57 56 58 58 59 59 59 59 59 59 59 58 58 58 59 60 60 60 61 61 61 61 61 61 62
29 31 22 24 19 19 23 27 26 28 29 31 33 36 37 41 41 40 40 44 50 55 57 58 58 57 57 58 58 59 59 60 60 59 58 58 58 58 59 59 59 61 61 61 61 61 60 60 59
25 25 27 27 27 22 20 25 30 28 29 30 31 32 36 39 40 40 39 38 37 42 50 57 58 58 57 58 59 58 59 60 60 59 59 59 59 59 60 60 60 60 59 60 60 60 59 58 57
25 22 25 21 20 28 27 26 34 34 30 31 31 31 32 35 40 41 41 42 41 39 44 50 55 58 58 58 58 58 59 60 60 60 60 60 58 59 59 60 59 58 58 58 58 57 56 55 54